<?xml version="1.0" encoding="UTF-8" standalone="no" ?>
<gpx xmlns="http://www.topografix.com/GPX/1/1" xmlns:xsi="http://www.w3.org/2001/XMLSchema-instance" xsi:schemaLocation="http://www.topografix.com/GPX/1/1 http://www.topografix.com/GPX/1/1/gpx.xsd" version="1.1" creator="VisuGPX - https://www.visugpx.com">
  <metadata>
    <name>Une sortie autour de Thoissia</name>
    <desc><![CDATA[Un joli parcours malgré un temps maussade et un terrain très gras.]]></desc>
  </metadata>
  <trk>
    <name><![CDATA[10/01/2016 08:48:27]]></name>
    <trkseg>
      <trkpt lat="46.42281" lon="5.39584">
        <ele>437.20001220703</ele>
        <time>2016-01-10T07:48:27Z</time>
      </trkpt>
      <trkpt lat="46.42281" lon="5.39592">
        <ele>437.59997558594</ele>
        <time>2016-01-10T07:48:46Z</time>
      </trkpt>
      <trkpt lat="46.42281" lon="5.39596">
        <ele>437.59997558594</ele>
        <time>2016-01-10T07:48:48Z</time>
      </trkpt>
      <trkpt lat="46.42281" lon="5.39596">
        <ele>437.40002441406</ele>
        <time>2016-01-10T07:48:49Z</time>
      </trkpt>
      <trkpt lat="46.42283" lon="5.39604">
        <ele>437.79998779297</ele>
        <time>2016-01-10T07:48:55Z</time>
      </trkpt>
      <trkpt lat="46.42283" lon="5.39605">
        <ele>438.20001220703</ele>
        <time>2016-01-10T07:48:56Z</time>
      </trkpt>
      <trkpt lat="46.42284" lon="5.39607">
        <ele>438.20001220703</ele>
        <time>2016-01-10T07:48:58Z</time>
      </trkpt>
      <trkpt lat="46.42287" lon="5.39621">
        <ele>439</ele>
        <time>2016-01-10T07:49:05Z</time>
      </trkpt>
      <trkpt lat="46.42287" lon="5.39624">
        <ele>439.40002441406</ele>
        <time>2016-01-10T07:49:06Z</time>
      </trkpt>
      <trkpt lat="46.42288" lon="5.39633">
        <ele>440.40002441406</ele>
        <time>2016-01-10T07:49:09Z</time>
      </trkpt>
      <trkpt lat="46.42289" lon="5.39638">
        <ele>440.40002441406</ele>
        <time>2016-01-10T07:49:11Z</time>
      </trkpt>
      <trkpt lat="46.42291" lon="5.39657">
        <ele>441.59997558594</ele>
        <time>2016-01-10T07:49:17Z</time>
      </trkpt>
      <trkpt lat="46.42293" lon="5.39667">
        <ele>442.79998779297</ele>
        <time>2016-01-10T07:49:20Z</time>
      </trkpt>
      <trkpt lat="46.42295" lon="5.39677">
        <ele>444</ele>
        <time>2016-01-10T07:49:23Z</time>
      </trkpt>
      <trkpt lat="46.42306" lon="5.39699">
        <ele>444.40002441406</ele>
        <time>2016-01-10T07:49:31Z</time>
      </trkpt>
      <trkpt lat="46.42322" lon="5.39734">
        <ele>443.59997558594</ele>
        <time>2016-01-10T07:49:44Z</time>
      </trkpt>
      <trkpt lat="46.4233" lon="5.39764">
        <ele>445</ele>
        <time>2016-01-10T07:49:53Z</time>
      </trkpt>
      <trkpt lat="46.42347" lon="5.39798">
        <ele>445.79998779297</ele>
        <time>2016-01-10T07:50:07Z</time>
      </trkpt>
      <trkpt lat="46.42358" lon="5.39803">
        <ele>445.79998779297</ele>
        <time>2016-01-10T07:50:10Z</time>
      </trkpt>
      <trkpt lat="46.42362" lon="5.39804">
        <ele>445.79998779297</ele>
        <time>2016-01-10T07:50:11Z</time>
      </trkpt>
      <trkpt lat="46.42383" lon="5.39814">
        <ele>445.40002441406</ele>
        <time>2016-01-10T07:50:16Z</time>
      </trkpt>
      <trkpt lat="46.42394" lon="5.39841">
        <ele>445.79998779297</ele>
        <time>2016-01-10T07:50:24Z</time>
      </trkpt>
      <trkpt lat="46.42396" lon="5.39859">
        <ele>446</ele>
        <time>2016-01-10T07:50:28Z</time>
      </trkpt>
      <trkpt lat="46.42397" lon="5.39894">
        <ele>446.20001220703</ele>
        <time>2016-01-10T07:50:37Z</time>
      </trkpt>
      <trkpt lat="46.42394" lon="5.39937">
        <ele>446.59997558594</ele>
        <time>2016-01-10T07:50:47Z</time>
      </trkpt>
      <trkpt lat="46.42394" lon="5.39977">
        <ele>446.20001220703</ele>
        <time>2016-01-10T07:50:58Z</time>
      </trkpt>
      <trkpt lat="46.42393" lon="5.39998">
        <ele>448.40002441406</ele>
        <time>2016-01-10T07:51:03Z</time>
      </trkpt>
      <trkpt lat="46.42393" lon="5.40007">
        <ele>449.59997558594</ele>
        <time>2016-01-10T07:51:05Z</time>
      </trkpt>
      <trkpt lat="46.42394" lon="5.40021">
        <ele>450.79998779297</ele>
        <time>2016-01-10T07:51:09Z</time>
      </trkpt>
      <trkpt lat="46.42393" lon="5.40025">
        <ele>451.79998779297</ele>
        <time>2016-01-10T07:51:10Z</time>
      </trkpt>
      <trkpt lat="46.42393" lon="5.40029">
        <ele>452.79998779297</ele>
        <time>2016-01-10T07:51:11Z</time>
      </trkpt>
      <trkpt lat="46.42392" lon="5.40038">
        <ele>453.79998779297</ele>
        <time>2016-01-10T07:51:13Z</time>
      </trkpt>
      <trkpt lat="46.42392" lon="5.40046">
        <ele>455.20001220703</ele>
        <time>2016-01-10T07:51:15Z</time>
      </trkpt>
      <trkpt lat="46.42391" lon="5.40053">
        <ele>456.40002441406</ele>
        <time>2016-01-10T07:51:17Z</time>
      </trkpt>
      <trkpt lat="46.42391" lon="5.40064">
        <ele>457.20001220703</ele>
        <time>2016-01-10T07:51:20Z</time>
      </trkpt>
      <trkpt lat="46.42391" lon="5.40067">
        <ele>458</ele>
        <time>2016-01-10T07:51:21Z</time>
      </trkpt>
      <trkpt lat="46.4239" lon="5.40078">
        <ele>459</ele>
        <time>2016-01-10T07:51:24Z</time>
      </trkpt>
      <trkpt lat="46.4239" lon="5.40088">
        <ele>460.40002441406</ele>
        <time>2016-01-10T07:51:27Z</time>
      </trkpt>
      <trkpt lat="46.4239" lon="5.40098">
        <ele>461.40002441406</ele>
        <time>2016-01-10T07:51:30Z</time>
      </trkpt>
      <trkpt lat="46.4239" lon="5.40102">
        <ele>462.20001220703</ele>
        <time>2016-01-10T07:51:31Z</time>
      </trkpt>
      <trkpt lat="46.4239" lon="5.40106">
        <ele>462.59997558594</ele>
        <time>2016-01-10T07:51:32Z</time>
      </trkpt>
      <trkpt lat="46.42389" lon="5.40127">
        <ele>464</ele>
        <time>2016-01-10T07:51:37Z</time>
      </trkpt>
      <trkpt lat="46.42388" lon="5.40142">
        <ele>464.40002441406</ele>
        <time>2016-01-10T07:51:42Z</time>
      </trkpt>
      <trkpt lat="46.42387" lon="5.40172">
        <ele>465</ele>
        <time>2016-01-10T07:51:51Z</time>
      </trkpt>
      <trkpt lat="46.42387" lon="5.40186">
        <ele>465.40002441406</ele>
        <time>2016-01-10T07:51:55Z</time>
      </trkpt>
      <trkpt lat="46.42386" lon="5.40216">
        <ele>466.40002441406</ele>
        <time>2016-01-10T07:52:03Z</time>
      </trkpt>
      <trkpt lat="46.42386" lon="5.40228">
        <ele>466</ele>
        <time>2016-01-10T07:52:07Z</time>
      </trkpt>
      <trkpt lat="46.42387" lon="5.40265">
        <ele>465.79998779297</ele>
        <time>2016-01-10T07:52:17Z</time>
      </trkpt>
      <trkpt lat="46.42389" lon="5.40271">
        <ele>465.20001220703</ele>
        <time>2016-01-10T07:52:19Z</time>
      </trkpt>
      <trkpt lat="46.42395" lon="5.40293">
        <ele>464.79998779297</ele>
        <time>2016-01-10T07:52:26Z</time>
      </trkpt>
      <trkpt lat="46.42409" lon="5.40314">
        <ele>464.79998779297</ele>
        <time>2016-01-10T07:52:35Z</time>
      </trkpt>
      <trkpt lat="46.42424" lon="5.40325">
        <ele>465</ele>
        <time>2016-01-10T07:52:43Z</time>
      </trkpt>
      <trkpt lat="46.42439" lon="5.40336">
        <ele>465.40002441406</ele>
        <time>2016-01-10T07:52:51Z</time>
      </trkpt>
      <trkpt lat="46.42457" lon="5.40348">
        <ele>465.59997558594</ele>
        <time>2016-01-10T07:53:01Z</time>
      </trkpt>
      <trkpt lat="46.42477" lon="5.40364">
        <ele>466.20001220703</ele>
        <time>2016-01-10T07:53:12Z</time>
      </trkpt>
      <trkpt lat="46.42491" lon="5.40389">
        <ele>466.79998779297</ele>
        <time>2016-01-10T07:53:23Z</time>
      </trkpt>
      <trkpt lat="46.42497" lon="5.40417">
        <ele>467.40002441406</ele>
        <time>2016-01-10T07:53:34Z</time>
      </trkpt>
      <trkpt lat="46.42495" lon="5.40431">
        <ele>468.40002441406</ele>
        <time>2016-01-10T07:53:39Z</time>
      </trkpt>
      <trkpt lat="46.42493" lon="5.40438">
        <ele>468.79998779297</ele>
        <time>2016-01-10T07:53:43Z</time>
      </trkpt>
      <trkpt lat="46.42492" lon="5.40439">
        <ele>469</ele>
        <time>2016-01-10T07:53:44Z</time>
      </trkpt>
      <trkpt lat="46.42483" lon="5.40459">
        <ele>469.40002441406</ele>
        <time>2016-01-10T07:53:53Z</time>
      </trkpt>
      <trkpt lat="46.42482" lon="5.40462">
        <ele>469.59997558594</ele>
        <time>2016-01-10T07:53:54Z</time>
      </trkpt>
      <trkpt lat="46.42469" lon="5.4049">
        <ele>470.59997558594</ele>
        <time>2016-01-10T07:54:03Z</time>
      </trkpt>
      <trkpt lat="46.42467" lon="5.40493">
        <ele>470.59997558594</ele>
        <time>2016-01-10T07:54:04Z</time>
      </trkpt>
      <trkpt lat="46.42451" lon="5.40521">
        <ele>471</ele>
        <time>2016-01-10T07:54:14Z</time>
      </trkpt>
      <trkpt lat="46.42436" lon="5.40544">
        <ele>471.59997558594</ele>
        <time>2016-01-10T07:54:24Z</time>
      </trkpt>
      <trkpt lat="46.42423" lon="5.4057">
        <ele>472.20001220703</ele>
        <time>2016-01-10T07:54:34Z</time>
      </trkpt>
      <trkpt lat="46.4242" lon="5.40575">
        <ele>472.59997558594</ele>
        <time>2016-01-10T07:54:36Z</time>
      </trkpt>
      <trkpt lat="46.42412" lon="5.40585">
        <ele>473.59997558594</ele>
        <time>2016-01-10T07:54:41Z</time>
      </trkpt>
      <trkpt lat="46.42409" lon="5.40589">
        <ele>474</ele>
        <time>2016-01-10T07:54:43Z</time>
      </trkpt>
      <trkpt lat="46.42406" lon="5.40593">
        <ele>474.59997558594</ele>
        <time>2016-01-10T07:54:45Z</time>
      </trkpt>
      <trkpt lat="46.42402" lon="5.40599">
        <ele>475.79998779297</ele>
        <time>2016-01-10T07:54:48Z</time>
      </trkpt>
      <trkpt lat="46.42398" lon="5.40606">
        <ele>477</ele>
        <time>2016-01-10T07:54:51Z</time>
      </trkpt>
      <trkpt lat="46.42397" lon="5.40608">
        <ele>477.40002441406</ele>
        <time>2016-01-10T07:54:52Z</time>
      </trkpt>
      <trkpt lat="46.42393" lon="5.40612">
        <ele>478.20001220703</ele>
        <time>2016-01-10T07:54:54Z</time>
      </trkpt>
      <trkpt lat="46.42386" lon="5.4062">
        <ele>479.20001220703</ele>
        <time>2016-01-10T07:54:58Z</time>
      </trkpt>
      <trkpt lat="46.42382" lon="5.40626">
        <ele>480</ele>
        <time>2016-01-10T07:55:01Z</time>
      </trkpt>
      <trkpt lat="46.42381" lon="5.40629">
        <ele>480.40002441406</ele>
        <time>2016-01-10T07:55:02Z</time>
      </trkpt>
      <trkpt lat="46.42374" lon="5.40638">
        <ele>481.59997558594</ele>
        <time>2016-01-10T07:55:06Z</time>
      </trkpt>
      <trkpt lat="46.42367" lon="5.40647">
        <ele>482.59997558594</ele>
        <time>2016-01-10T07:55:10Z</time>
      </trkpt>
      <trkpt lat="46.42364" lon="5.40651">
        <ele>483</ele>
        <time>2016-01-10T07:55:12Z</time>
      </trkpt>
      <trkpt lat="46.42357" lon="5.40659">
        <ele>483.79998779297</ele>
        <time>2016-01-10T07:55:16Z</time>
      </trkpt>
      <trkpt lat="46.42346" lon="5.40671">
        <ele>484.79998779297</ele>
        <time>2016-01-10T07:55:22Z</time>
      </trkpt>
      <trkpt lat="46.42345" lon="5.40674">
        <ele>485</ele>
        <time>2016-01-10T07:55:23Z</time>
      </trkpt>
      <trkpt lat="46.42336" lon="5.40689">
        <ele>486</ele>
        <time>2016-01-10T07:55:29Z</time>
      </trkpt>
      <trkpt lat="46.42331" lon="5.40699">
        <ele>487</ele>
        <time>2016-01-10T07:55:33Z</time>
      </trkpt>
      <trkpt lat="46.42329" lon="5.40701">
        <ele>487.20001220703</ele>
        <time>2016-01-10T07:55:34Z</time>
      </trkpt>
      <trkpt lat="46.42322" lon="5.40708">
        <ele>488.40002441406</ele>
        <time>2016-01-10T07:55:38Z</time>
      </trkpt>
      <trkpt lat="46.42314" lon="5.40715">
        <ele>489.59997558594</ele>
        <time>2016-01-10T07:55:42Z</time>
      </trkpt>
      <trkpt lat="46.4231" lon="5.40717">
        <ele>490.40002441406</ele>
        <time>2016-01-10T07:55:44Z</time>
      </trkpt>
      <trkpt lat="46.42308" lon="5.40719">
        <ele>490.79998779297</ele>
        <time>2016-01-10T07:55:45Z</time>
      </trkpt>
      <trkpt lat="46.42301" lon="5.40723">
        <ele>492.40002441406</ele>
        <time>2016-01-10T07:55:48Z</time>
      </trkpt>
      <trkpt lat="46.42297" lon="5.40727">
        <ele>493.40002441406</ele>
        <time>2016-01-10T07:55:50Z</time>
      </trkpt>
      <trkpt lat="46.42291" lon="5.40731">
        <ele>493.40002441406</ele>
        <time>2016-01-10T07:55:53Z</time>
      </trkpt>
      <trkpt lat="46.42273" lon="5.40745">
        <ele>493</ele>
        <time>2016-01-10T07:56:03Z</time>
      </trkpt>
      <trkpt lat="46.42255" lon="5.40761">
        <ele>493</ele>
        <time>2016-01-10T07:56:13Z</time>
      </trkpt>
      <trkpt lat="46.42236" lon="5.40773">
        <ele>492.79998779297</ele>
        <time>2016-01-10T07:56:23Z</time>
      </trkpt>
      <trkpt lat="46.42217" lon="5.40792">
        <ele>492.59997558594</ele>
        <time>2016-01-10T07:56:32Z</time>
      </trkpt>
      <trkpt lat="46.42203" lon="5.40814">
        <ele>492.59997558594</ele>
        <time>2016-01-10T07:56:41Z</time>
      </trkpt>
      <trkpt lat="46.4219" lon="5.40832">
        <ele>492.59997558594</ele>
        <time>2016-01-10T07:56:50Z</time>
      </trkpt>
      <trkpt lat="46.4217" lon="5.40839">
        <ele>492.59997558594</ele>
        <time>2016-01-10T07:56:59Z</time>
      </trkpt>
      <trkpt lat="46.42157" lon="5.40846">
        <ele>492.40002441406</ele>
        <time>2016-01-10T07:57:07Z</time>
      </trkpt>
      <trkpt lat="46.42153" lon="5.40848">
        <ele>492.40002441406</ele>
        <time>2016-01-10T07:57:09Z</time>
      </trkpt>
      <trkpt lat="46.4213" lon="5.40855">
        <ele>492.79998779297</ele>
        <time>2016-01-10T07:57:19Z</time>
      </trkpt>
      <trkpt lat="46.42115" lon="5.40856">
        <ele>493.79998779297</ele>
        <time>2016-01-10T07:57:24Z</time>
      </trkpt>
      <trkpt lat="46.42101" lon="5.40855">
        <ele>495</ele>
        <time>2016-01-10T07:57:28Z</time>
      </trkpt>
      <trkpt lat="46.42096" lon="5.40852">
        <ele>495.59997558594</ele>
        <time>2016-01-10T07:57:29Z</time>
      </trkpt>
      <trkpt lat="46.42091" lon="5.4085">
        <ele>496.20001220703</ele>
        <time>2016-01-10T07:57:30Z</time>
      </trkpt>
      <trkpt lat="46.42077" lon="5.4084">
        <ele>498.20001220703</ele>
        <time>2016-01-10T07:57:32Z</time>
      </trkpt>
      <trkpt lat="46.42063" lon="5.40837">
        <ele>499.79998779297</ele>
        <time>2016-01-10T07:57:36Z</time>
      </trkpt>
      <trkpt lat="46.42053" lon="5.40833">
        <ele>501</ele>
        <time>2016-01-10T07:57:38Z</time>
      </trkpt>
      <trkpt lat="46.4205" lon="5.40833">
        <ele>501.40002441406</ele>
        <time>2016-01-10T07:57:39Z</time>
      </trkpt>
      <trkpt lat="46.42041" lon="5.40835">
        <ele>502.20001220703</ele>
        <time>2016-01-10T07:57:42Z</time>
      </trkpt>
      <trkpt lat="46.42034" lon="5.4085">
        <ele>502.20001220703</ele>
        <time>2016-01-10T07:57:48Z</time>
      </trkpt>
      <trkpt lat="46.42027" lon="5.4087">
        <ele>501.40002441406</ele>
        <time>2016-01-10T07:57:56Z</time>
      </trkpt>
      <trkpt lat="46.42027" lon="5.40875">
        <ele>501</ele>
        <time>2016-01-10T07:57:58Z</time>
      </trkpt>
      <trkpt lat="46.42026" lon="5.40902">
        <ele>500.40002441406</ele>
        <time>2016-01-10T07:58:07Z</time>
      </trkpt>
      <trkpt lat="46.42027" lon="5.40911">
        <ele>500</ele>
        <time>2016-01-10T07:58:09Z</time>
      </trkpt>
      <trkpt lat="46.4203" lon="5.40923">
        <ele>499.79998779297</ele>
        <time>2016-01-10T07:58:12Z</time>
      </trkpt>
      <trkpt lat="46.42033" lon="5.40932">
        <ele>499.59997558594</ele>
        <time>2016-01-10T07:58:15Z</time>
      </trkpt>
      <trkpt lat="46.4216" lon="5.4095">
        <ele>504.20001220703</ele>
        <time>2016-01-10T07:59:23Z</time>
      </trkpt>
      <trkpt lat="46.42168" lon="5.40951">
        <ele>504.40002441406</ele>
        <time>2016-01-10T07:59:26Z</time>
      </trkpt>
      <trkpt lat="46.42189" lon="5.40955">
        <ele>505.20001220703</ele>
        <time>2016-01-10T07:59:34Z</time>
      </trkpt>
      <trkpt lat="46.42197" lon="5.40955">
        <ele>505.40002441406</ele>
        <time>2016-01-10T07:59:37Z</time>
      </trkpt>
      <trkpt lat="46.42223" lon="5.4096">
        <ele>506</ele>
        <time>2016-01-10T07:59:46Z</time>
      </trkpt>
      <trkpt lat="46.42233" lon="5.40963">
        <ele>506.40002441406</ele>
        <time>2016-01-10T07:59:50Z</time>
      </trkpt>
      <trkpt lat="46.42245" lon="5.40969">
        <ele>507</ele>
        <time>2016-01-10T07:59:55Z</time>
      </trkpt>
      <trkpt lat="46.42264" lon="5.4098">
        <ele>507.59997558594</ele>
        <time>2016-01-10T08:00:04Z</time>
      </trkpt>
      <trkpt lat="46.4227" lon="5.40994">
        <ele>508.79998779297</ele>
        <time>2016-01-10T08:00:09Z</time>
      </trkpt>
      <trkpt lat="46.42276" lon="5.41009">
        <ele>510</ele>
        <time>2016-01-10T08:00:14Z</time>
      </trkpt>
      <trkpt lat="46.42289" lon="5.41037">
        <ele>510.40002441406</ele>
        <time>2016-01-10T08:00:25Z</time>
      </trkpt>
      <trkpt lat="46.42304" lon="5.41059">
        <ele>510.79998779297</ele>
        <time>2016-01-10T08:00:36Z</time>
      </trkpt>
      <trkpt lat="46.42307" lon="5.41062">
        <ele>511</ele>
        <time>2016-01-10T08:00:38Z</time>
      </trkpt>
      <trkpt lat="46.42326" lon="5.41069">
        <ele>512.40002441406</ele>
        <time>2016-01-10T08:00:42Z</time>
      </trkpt>
      <trkpt lat="46.42332" lon="5.41076">
        <ele>513.59997558594</ele>
        <time>2016-01-10T08:00:45Z</time>
      </trkpt>
      <trkpt lat="46.42335" lon="5.41081">
        <ele>514.59997558594</ele>
        <time>2016-01-10T08:00:47Z</time>
      </trkpt>
      <trkpt lat="46.42336" lon="5.41083">
        <ele>515</ele>
        <time>2016-01-10T08:00:48Z</time>
      </trkpt>
      <trkpt lat="46.4234" lon="5.41089">
        <ele>516.20001220703</ele>
        <time>2016-01-10T08:00:51Z</time>
      </trkpt>
      <trkpt lat="46.42347" lon="5.41102">
        <ele>517.20001220703</ele>
        <time>2016-01-10T08:00:55Z</time>
      </trkpt>
      <trkpt lat="46.42352" lon="5.41111">
        <ele>518</ele>
        <time>2016-01-10T08:00:58Z</time>
      </trkpt>
      <trkpt lat="46.42354" lon="5.41114">
        <ele>518.79998779297</ele>
        <time>2016-01-10T08:00:59Z</time>
      </trkpt>
      <trkpt lat="46.4237" lon="5.41137">
        <ele>519.79998779297</ele>
        <time>2016-01-10T08:01:09Z</time>
      </trkpt>
      <trkpt lat="46.42374" lon="5.41144">
        <ele>521.20001220703</ele>
        <time>2016-01-10T08:01:12Z</time>
      </trkpt>
      <trkpt lat="46.42379" lon="5.41155">
        <ele>522.20001220703</ele>
        <time>2016-01-10T08:01:16Z</time>
      </trkpt>
      <trkpt lat="46.42383" lon="5.41164">
        <ele>523.40002441406</ele>
        <time>2016-01-10T08:01:19Z</time>
      </trkpt>
      <trkpt lat="46.42401" lon="5.41185">
        <ele>523.59997558594</ele>
        <time>2016-01-10T08:01:28Z</time>
      </trkpt>
      <trkpt lat="46.42412" lon="5.41206">
        <ele>524.80004882812</ele>
        <time>2016-01-10T08:01:35Z</time>
      </trkpt>
      <trkpt lat="46.42413" lon="5.41209">
        <ele>525.19995117188</ele>
        <time>2016-01-10T08:01:36Z</time>
      </trkpt>
      <trkpt lat="46.42422" lon="5.41227">
        <ele>526</ele>
        <time>2016-01-10T08:01:42Z</time>
      </trkpt>
      <trkpt lat="46.42429" lon="5.41238">
        <ele>526.59997558594</ele>
        <time>2016-01-10T08:01:46Z</time>
      </trkpt>
      <trkpt lat="46.42448" lon="5.41262">
        <ele>527</ele>
        <time>2016-01-10T08:01:57Z</time>
      </trkpt>
      <trkpt lat="46.4245" lon="5.41265">
        <ele>527.19995117188</ele>
        <time>2016-01-10T08:01:58Z</time>
      </trkpt>
      <trkpt lat="46.4246" lon="5.41274">
        <ele>528</ele>
        <time>2016-01-10T08:02:04Z</time>
      </trkpt>
      <trkpt lat="46.42462" lon="5.41276">
        <ele>528</ele>
        <time>2016-01-10T08:02:06Z</time>
      </trkpt>
      <trkpt lat="46.42596" lon="5.41199">
        <ele>534.59997558594</ele>
        <time>2016-01-10T08:03:56Z</time>
      </trkpt>
      <trkpt lat="46.42594" lon="5.41202">
        <ele>534.80004882812</ele>
        <time>2016-01-10T08:03:59Z</time>
      </trkpt>
      <trkpt lat="46.42612" lon="5.41193">
        <ele>535.59997558594</ele>
        <time>2016-01-10T08:04:09Z</time>
      </trkpt>
      <trkpt lat="46.42933" lon="5.41034">
        <ele>394.20001220703</ele>
        <time>2016-01-10T08:06:18Z</time>
      </trkpt>
      <trkpt lat="46.42935" lon="5.41035">
        <ele>392</ele>
        <time>2016-01-10T08:06:19Z</time>
      </trkpt>
      <trkpt lat="46.42937" lon="5.41036">
        <ele>389.79998779297</ele>
        <time>2016-01-10T08:06:20Z</time>
      </trkpt>
      <trkpt lat="46.42939" lon="5.41037">
        <ele>387.59997558594</ele>
        <time>2016-01-10T08:06:21Z</time>
      </trkpt>
      <trkpt lat="46.4294" lon="5.41038">
        <ele>385.59997558594</ele>
        <time>2016-01-10T08:06:22Z</time>
      </trkpt>
      <trkpt lat="46.42942" lon="5.41039">
        <ele>383.40002441406</ele>
        <time>2016-01-10T08:06:23Z</time>
      </trkpt>
      <trkpt lat="46.42944" lon="5.4104">
        <ele>381</ele>
        <time>2016-01-10T08:06:24Z</time>
      </trkpt>
      <trkpt lat="46.42945" lon="5.41042">
        <ele>378.59997558594</ele>
        <time>2016-01-10T08:06:25Z</time>
      </trkpt>
      <trkpt lat="46.42997" lon="5.41081">
        <ele>313.40002441406</ele>
        <time>2016-01-10T08:06:57Z</time>
      </trkpt>
      <trkpt lat="46.43" lon="5.41081">
        <ele>311.20001220703</ele>
        <time>2016-01-10T08:06:58Z</time>
      </trkpt>
      <trkpt lat="46.43002" lon="5.41082">
        <ele>309</ele>
        <time>2016-01-10T08:06:59Z</time>
      </trkpt>
      <trkpt lat="46.43005" lon="5.41081">
        <ele>306.59997558594</ele>
        <time>2016-01-10T08:07:00Z</time>
      </trkpt>
      <trkpt lat="46.43008" lon="5.41078">
        <ele>303</ele>
        <time>2016-01-10T08:07:01Z</time>
      </trkpt>
      <trkpt lat="46.43011" lon="5.41077">
        <ele>300.40002441406</ele>
        <time>2016-01-10T08:07:02Z</time>
      </trkpt>
      <trkpt lat="46.43015" lon="5.41075">
        <ele>297.40002441406</ele>
        <time>2016-01-10T08:07:03Z</time>
      </trkpt>
      <trkpt lat="46.43018" lon="5.41073">
        <ele>294.20001220703</ele>
        <time>2016-01-10T08:07:04Z</time>
      </trkpt>
      <trkpt lat="46.43022" lon="5.41071">
        <ele>291.20001220703</ele>
        <time>2016-01-10T08:07:05Z</time>
      </trkpt>
      <trkpt lat="46.43026" lon="5.41068">
        <ele>288.40002441406</ele>
        <time>2016-01-10T08:07:06Z</time>
      </trkpt>
      <trkpt lat="46.43031" lon="5.41066">
        <ele>285.59997558594</ele>
        <time>2016-01-10T08:07:07Z</time>
      </trkpt>
      <trkpt lat="46.43036" lon="5.41065">
        <ele>283.20001220703</ele>
        <time>2016-01-10T08:07:08Z</time>
      </trkpt>
      <trkpt lat="46.43049" lon="5.41067">
        <ele>282</ele>
        <time>2016-01-10T08:07:10Z</time>
      </trkpt>
      <trkpt lat="46.43059" lon="5.41072">
        <ele>281.59997558594</ele>
        <time>2016-01-10T08:07:12Z</time>
      </trkpt>
      <trkpt lat="46.43068" lon="5.41074">
        <ele>281</ele>
        <time>2016-01-10T08:07:14Z</time>
      </trkpt>
      <trkpt lat="46.43081" lon="5.4108">
        <ele>279.79998779297</ele>
        <time>2016-01-10T08:07:17Z</time>
      </trkpt>
      <trkpt lat="46.43088" lon="5.41083">
        <ele>281.20001220703</ele>
        <time>2016-01-10T08:07:18Z</time>
      </trkpt>
      <trkpt lat="46.43094" lon="5.41086">
        <ele>282.59997558594</ele>
        <time>2016-01-10T08:07:19Z</time>
      </trkpt>
      <trkpt lat="46.431" lon="5.4109">
        <ele>283.79998779297</ele>
        <time>2016-01-10T08:07:20Z</time>
      </trkpt>
      <trkpt lat="46.43105" lon="5.41093">
        <ele>285.20001220703</ele>
        <time>2016-01-10T08:07:21Z</time>
      </trkpt>
      <trkpt lat="46.4311" lon="5.41094">
        <ele>283.59997558594</ele>
        <time>2016-01-10T08:07:23Z</time>
      </trkpt>
      <trkpt lat="46.43112" lon="5.41094">
        <ele>283.40002441406</ele>
        <time>2016-01-10T08:07:24Z</time>
      </trkpt>
      <trkpt lat="46.43121" lon="5.41099">
        <ele>284.59997558594</ele>
        <time>2016-01-10T08:07:27Z</time>
      </trkpt>
      <trkpt lat="46.43127" lon="5.41104">
        <ele>286</ele>
        <time>2016-01-10T08:07:29Z</time>
      </trkpt>
      <trkpt lat="46.43132" lon="5.41108">
        <ele>288.59997558594</ele>
        <time>2016-01-10T08:07:30Z</time>
      </trkpt>
      <trkpt lat="46.43137" lon="5.41111">
        <ele>290.79998779297</ele>
        <time>2016-01-10T08:07:31Z</time>
      </trkpt>
      <trkpt lat="46.43142" lon="5.41114">
        <ele>292.59997558594</ele>
        <time>2016-01-10T08:07:32Z</time>
      </trkpt>
      <trkpt lat="46.43147" lon="5.41116">
        <ele>294.40002441406</ele>
        <time>2016-01-10T08:07:33Z</time>
      </trkpt>
      <trkpt lat="46.43151" lon="5.41119">
        <ele>296.20001220703</ele>
        <time>2016-01-10T08:07:34Z</time>
      </trkpt>
      <trkpt lat="46.43156" lon="5.41121">
        <ele>298.20001220703</ele>
        <time>2016-01-10T08:07:35Z</time>
      </trkpt>
      <trkpt lat="46.4316" lon="5.41123">
        <ele>299.59997558594</ele>
        <time>2016-01-10T08:07:36Z</time>
      </trkpt>
      <trkpt lat="46.43165" lon="5.41125">
        <ele>301</ele>
        <time>2016-01-10T08:07:37Z</time>
      </trkpt>
      <trkpt lat="46.43169" lon="5.41126">
        <ele>302.79998779297</ele>
        <time>2016-01-10T08:07:38Z</time>
      </trkpt>
      <trkpt lat="46.43176" lon="5.41128">
        <ele>303.79998779297</ele>
        <time>2016-01-10T08:07:41Z</time>
      </trkpt>
      <trkpt lat="46.43198" lon="5.41135">
        <ele>304.79998779297</ele>
        <time>2016-01-10T08:07:48Z</time>
      </trkpt>
      <trkpt lat="46.43208" lon="5.41136">
        <ele>306</ele>
        <time>2016-01-10T08:07:50Z</time>
      </trkpt>
      <trkpt lat="46.43212" lon="5.41136">
        <ele>306.20001220703</ele>
        <time>2016-01-10T08:07:51Z</time>
      </trkpt>
      <trkpt lat="46.43319" lon="5.41161">
        <ele>296</ele>
        <time>2016-01-10T08:08:32Z</time>
      </trkpt>
      <trkpt lat="46.43322" lon="5.41161">
        <ele>295.79998779297</ele>
        <time>2016-01-10T08:08:33Z</time>
      </trkpt>
      <trkpt lat="46.43346" lon="5.41153">
        <ele>295.59997558594</ele>
        <time>2016-01-10T08:08:41Z</time>
      </trkpt>
      <trkpt lat="46.43365" lon="5.41149">
        <ele>294.79998779297</ele>
        <time>2016-01-10T08:08:47Z</time>
      </trkpt>
      <trkpt lat="46.43374" lon="5.41146">
        <ele>292.59997558594</ele>
        <time>2016-01-10T08:08:50Z</time>
      </trkpt>
      <trkpt lat="46.43377" lon="5.41144">
        <ele>291.40002441406</ele>
        <time>2016-01-10T08:08:51Z</time>
      </trkpt>
      <trkpt lat="46.4338" lon="5.41143">
        <ele>290</ele>
        <time>2016-01-10T08:08:52Z</time>
      </trkpt>
      <trkpt lat="46.43385" lon="5.41144">
        <ele>289</ele>
        <time>2016-01-10T08:08:54Z</time>
      </trkpt>
      <trkpt lat="46.43391" lon="5.41145">
        <ele>287.59997558594</ele>
        <time>2016-01-10T08:08:56Z</time>
      </trkpt>
      <trkpt lat="46.43396" lon="5.41145">
        <ele>286.59997558594</ele>
        <time>2016-01-10T08:08:58Z</time>
      </trkpt>
      <trkpt lat="46.43402" lon="5.41144">
        <ele>285</ele>
        <time>2016-01-10T08:09:00Z</time>
      </trkpt>
      <trkpt lat="46.43408" lon="5.41144">
        <ele>284</ele>
        <time>2016-01-10T08:09:02Z</time>
      </trkpt>
      <trkpt lat="46.43413" lon="5.41145">
        <ele>282.59997558594</ele>
        <time>2016-01-10T08:09:04Z</time>
      </trkpt>
      <trkpt lat="46.43417" lon="5.41144">
        <ele>280.59997558594</ele>
        <time>2016-01-10T08:09:06Z</time>
      </trkpt>
      <trkpt lat="46.43425" lon="5.41143">
        <ele>279.40002441406</ele>
        <time>2016-01-10T08:09:09Z</time>
      </trkpt>
      <trkpt lat="46.43438" lon="5.4114">
        <ele>278</ele>
        <time>2016-01-10T08:09:13Z</time>
      </trkpt>
      <trkpt lat="46.43448" lon="5.41138">
        <ele>276.79998779297</ele>
        <time>2016-01-10T08:09:16Z</time>
      </trkpt>
      <trkpt lat="46.43453" lon="5.41137">
        <ele>276</ele>
        <time>2016-01-10T08:09:18Z</time>
      </trkpt>
      <trkpt lat="46.43454" lon="5.41137">
        <ele>275</ele>
        <time>2016-01-10T08:09:19Z</time>
      </trkpt>
      <trkpt lat="46.43461" lon="5.41137">
        <ele>273.40002441406</ele>
        <time>2016-01-10T08:09:22Z</time>
      </trkpt>
      <trkpt lat="46.43466" lon="5.41137">
        <ele>272.20001220703</ele>
        <time>2016-01-10T08:09:24Z</time>
      </trkpt>
      <trkpt lat="46.43472" lon="5.41137">
        <ele>271.20001220703</ele>
        <time>2016-01-10T08:09:26Z</time>
      </trkpt>
      <trkpt lat="46.43474" lon="5.41137">
        <ele>270.59997558594</ele>
        <time>2016-01-10T08:09:27Z</time>
      </trkpt>
      <trkpt lat="46.43477" lon="5.41136">
        <ele>269.79998779297</ele>
        <time>2016-01-10T08:09:28Z</time>
      </trkpt>
      <trkpt lat="46.43483" lon="5.41136">
        <ele>268.59997558594</ele>
        <time>2016-01-10T08:09:30Z</time>
      </trkpt>
      <trkpt lat="46.43485" lon="5.41135">
        <ele>267.40002441406</ele>
        <time>2016-01-10T08:09:31Z</time>
      </trkpt>
      <trkpt lat="46.43491" lon="5.41134">
        <ele>266.40002441406</ele>
        <time>2016-01-10T08:09:33Z</time>
      </trkpt>
      <trkpt lat="46.43497" lon="5.41133">
        <ele>265.20001220703</ele>
        <time>2016-01-10T08:09:35Z</time>
      </trkpt>
      <trkpt lat="46.43503" lon="5.41132">
        <ele>264.59997558594</ele>
        <time>2016-01-10T08:09:37Z</time>
      </trkpt>
      <trkpt lat="46.43506" lon="5.41131">
        <ele>264.20001220703</ele>
        <time>2016-01-10T08:09:38Z</time>
      </trkpt>
      <trkpt lat="46.43515" lon="5.41127">
        <ele>263.20001220703</ele>
        <time>2016-01-10T08:09:41Z</time>
      </trkpt>
      <trkpt lat="46.43518" lon="5.41124">
        <ele>262.20001220703</ele>
        <time>2016-01-10T08:09:42Z</time>
      </trkpt>
      <trkpt lat="46.43528" lon="5.41118">
        <ele>261</ele>
        <time>2016-01-10T08:09:46Z</time>
      </trkpt>
      <trkpt lat="46.4353" lon="5.41116">
        <ele>260.40002441406</ele>
        <time>2016-01-10T08:09:47Z</time>
      </trkpt>
      <trkpt lat="46.43533" lon="5.41114">
        <ele>260</ele>
        <time>2016-01-10T08:09:48Z</time>
      </trkpt>
      <trkpt lat="46.43534" lon="5.41111">
        <ele>257.79998779297</ele>
        <time>2016-01-10T08:09:49Z</time>
      </trkpt>
      <trkpt lat="46.43535" lon="5.41108">
        <ele>256</ele>
        <time>2016-01-10T08:09:50Z</time>
      </trkpt>
      <trkpt lat="46.43536" lon="5.41104">
        <ele>253.79998779297</ele>
        <time>2016-01-10T08:09:51Z</time>
      </trkpt>
      <trkpt lat="46.43537" lon="5.41102">
        <ele>252</ele>
        <time>2016-01-10T08:09:52Z</time>
      </trkpt>
      <trkpt lat="46.43538" lon="5.411">
        <ele>250.40002441406</ele>
        <time>2016-01-10T08:09:53Z</time>
      </trkpt>
      <trkpt lat="46.43539" lon="5.41098">
        <ele>249</ele>
        <time>2016-01-10T08:09:54Z</time>
      </trkpt>
      <trkpt lat="46.4354" lon="5.41097">
        <ele>247.20001220703</ele>
        <time>2016-01-10T08:09:55Z</time>
      </trkpt>
      <trkpt lat="46.43541" lon="5.41095">
        <ele>245.59997558594</ele>
        <time>2016-01-10T08:09:56Z</time>
      </trkpt>
      <trkpt lat="46.43543" lon="5.41094">
        <ele>243.40002441406</ele>
        <time>2016-01-10T08:09:57Z</time>
      </trkpt>
      <trkpt lat="46.43544" lon="5.41092">
        <ele>241.40002441406</ele>
        <time>2016-01-10T08:09:58Z</time>
      </trkpt>
      <trkpt lat="46.43546" lon="5.4109">
        <ele>239.59997558594</ele>
        <time>2016-01-10T08:09:59Z</time>
      </trkpt>
      <trkpt lat="46.43547" lon="5.41088">
        <ele>237.59997558594</ele>
        <time>2016-01-10T08:10:00Z</time>
      </trkpt>
      <trkpt lat="46.43549" lon="5.41087">
        <ele>235.79998779297</ele>
        <time>2016-01-10T08:10:01Z</time>
      </trkpt>
      <trkpt lat="46.4355" lon="5.41085">
        <ele>234</ele>
        <time>2016-01-10T08:10:02Z</time>
      </trkpt>
      <trkpt lat="46.43551" lon="5.41083">
        <ele>232.40002441406</ele>
        <time>2016-01-10T08:10:03Z</time>
      </trkpt>
      <trkpt lat="46.43553" lon="5.41081">
        <ele>230.40002441406</ele>
        <time>2016-01-10T08:10:04Z</time>
      </trkpt>
      <trkpt lat="46.43555" lon="5.4108">
        <ele>228.59997558594</ele>
        <time>2016-01-10T08:10:05Z</time>
      </trkpt>
      <trkpt lat="46.43557" lon="5.41078">
        <ele>226.59997558594</ele>
        <time>2016-01-10T08:10:06Z</time>
      </trkpt>
      <trkpt lat="46.43558" lon="5.41077">
        <ele>224.79998779297</ele>
        <time>2016-01-10T08:10:07Z</time>
      </trkpt>
      <trkpt lat="46.4356" lon="5.41076">
        <ele>222.79998779297</ele>
        <time>2016-01-10T08:10:08Z</time>
      </trkpt>
      <trkpt lat="46.43561" lon="5.41075">
        <ele>220.79998779297</ele>
        <time>2016-01-10T08:10:09Z</time>
      </trkpt>
      <trkpt lat="46.43563" lon="5.41075">
        <ele>219</ele>
        <time>2016-01-10T08:10:10Z</time>
      </trkpt>
      <trkpt lat="46.43565" lon="5.41074">
        <ele>217.40002441406</ele>
        <time>2016-01-10T08:10:11Z</time>
      </trkpt>
      <trkpt lat="46.43567" lon="5.41075">
        <ele>217.20001220703</ele>
        <time>2016-01-10T08:10:12Z</time>
      </trkpt>
      <trkpt lat="46.43569" lon="5.41077">
        <ele>218.40002441406</ele>
        <time>2016-01-10T08:10:13Z</time>
      </trkpt>
      <trkpt lat="46.43572" lon="5.41081">
        <ele>221.20001220703</ele>
        <time>2016-01-10T08:10:14Z</time>
      </trkpt>
      <trkpt lat="46.43575" lon="5.41084">
        <ele>223.59997558594</ele>
        <time>2016-01-10T08:10:15Z</time>
      </trkpt>
      <trkpt lat="46.43578" lon="5.41089">
        <ele>226.20001220703</ele>
        <time>2016-01-10T08:10:16Z</time>
      </trkpt>
      <trkpt lat="46.43585" lon="5.41093">
        <ele>230</ele>
        <time>2016-01-10T08:10:17Z</time>
      </trkpt>
      <trkpt lat="46.43591" lon="5.41097">
        <ele>233.59997558594</ele>
        <time>2016-01-10T08:10:18Z</time>
      </trkpt>
      <trkpt lat="46.43596" lon="5.411">
        <ele>237</ele>
        <time>2016-01-10T08:10:19Z</time>
      </trkpt>
      <trkpt lat="46.43601" lon="5.41104">
        <ele>240.40002441406</ele>
        <time>2016-01-10T08:10:20Z</time>
      </trkpt>
      <trkpt lat="46.43606" lon="5.41108">
        <ele>243.79998779297</ele>
        <time>2016-01-10T08:10:21Z</time>
      </trkpt>
      <trkpt lat="46.43611" lon="5.41111">
        <ele>247.40002441406</ele>
        <time>2016-01-10T08:10:22Z</time>
      </trkpt>
      <trkpt lat="46.43613" lon="5.41114">
        <ele>249.59997558594</ele>
        <time>2016-01-10T08:10:23Z</time>
      </trkpt>
      <trkpt lat="46.43618" lon="5.41118">
        <ele>253.20001220703</ele>
        <time>2016-01-10T08:10:24Z</time>
      </trkpt>
      <trkpt lat="46.4362" lon="5.4112">
        <ele>255.20001220703</ele>
        <time>2016-01-10T08:10:25Z</time>
      </trkpt>
      <trkpt lat="46.43623" lon="5.41123">
        <ele>257.20001220703</ele>
        <time>2016-01-10T08:10:26Z</time>
      </trkpt>
      <trkpt lat="46.43626" lon="5.41125">
        <ele>258.59997558594</ele>
        <time>2016-01-10T08:10:27Z</time>
      </trkpt>
      <trkpt lat="46.43628" lon="5.41126">
        <ele>259.20001220703</ele>
        <time>2016-01-10T08:10:28Z</time>
      </trkpt>
      <trkpt lat="46.43631" lon="5.41128">
        <ele>260.59997558594</ele>
        <time>2016-01-10T08:10:29Z</time>
      </trkpt>
      <trkpt lat="46.43634" lon="5.4113">
        <ele>262.40002441406</ele>
        <time>2016-01-10T08:10:30Z</time>
      </trkpt>
      <trkpt lat="46.43637" lon="5.41132">
        <ele>264.20001220703</ele>
        <time>2016-01-10T08:10:31Z</time>
      </trkpt>
      <trkpt lat="46.43639" lon="5.41135">
        <ele>265.79998779297</ele>
        <time>2016-01-10T08:10:32Z</time>
      </trkpt>
      <trkpt lat="46.4364" lon="5.41139">
        <ele>267.59997558594</ele>
        <time>2016-01-10T08:10:33Z</time>
      </trkpt>
      <trkpt lat="46.43642" lon="5.41143">
        <ele>269.40002441406</ele>
        <time>2016-01-10T08:10:34Z</time>
      </trkpt>
      <trkpt lat="46.43647" lon="5.41151">
        <ele>272.59997558594</ele>
        <time>2016-01-10T08:10:37Z</time>
      </trkpt>
      <trkpt lat="46.43652" lon="5.41158">
        <ele>276.40002441406</ele>
        <time>2016-01-10T08:10:38Z</time>
      </trkpt>
      <trkpt lat="46.43655" lon="5.41162">
        <ele>278.79998779297</ele>
        <time>2016-01-10T08:10:39Z</time>
      </trkpt>
      <trkpt lat="46.43659" lon="5.41167">
        <ele>282.20001220703</ele>
        <time>2016-01-10T08:10:40Z</time>
      </trkpt>
      <trkpt lat="46.43661" lon="5.41172">
        <ele>284</ele>
        <time>2016-01-10T08:10:41Z</time>
      </trkpt>
      <trkpt lat="46.43669" lon="5.4118">
        <ele>286.20001220703</ele>
        <time>2016-01-10T08:10:47Z</time>
      </trkpt>
      <trkpt lat="46.43671" lon="5.41184">
        <ele>288</ele>
        <time>2016-01-10T08:10:48Z</time>
      </trkpt>
      <trkpt lat="46.43676" lon="5.41186">
        <ele>290.40002441406</ele>
        <time>2016-01-10T08:10:49Z</time>
      </trkpt>
      <trkpt lat="46.4368" lon="5.41191">
        <ele>293.59997558594</ele>
        <time>2016-01-10T08:10:50Z</time>
      </trkpt>
      <trkpt lat="46.43684" lon="5.41194">
        <ele>296.20001220703</ele>
        <time>2016-01-10T08:10:51Z</time>
      </trkpt>
      <trkpt lat="46.43686" lon="5.41197">
        <ele>297.59997558594</ele>
        <time>2016-01-10T08:10:52Z</time>
      </trkpt>
      <trkpt lat="46.43688" lon="5.41199">
        <ele>299</ele>
        <time>2016-01-10T08:10:53Z</time>
      </trkpt>
      <trkpt lat="46.43692" lon="5.41201">
        <ele>301.59997558594</ele>
        <time>2016-01-10T08:10:54Z</time>
      </trkpt>
      <trkpt lat="46.43695" lon="5.41202">
        <ele>303.40002441406</ele>
        <time>2016-01-10T08:10:55Z</time>
      </trkpt>
      <trkpt lat="46.43699" lon="5.41205">
        <ele>305.79998779297</ele>
        <time>2016-01-10T08:10:56Z</time>
      </trkpt>
      <trkpt lat="46.43703" lon="5.41206">
        <ele>307.40002441406</ele>
        <time>2016-01-10T08:10:57Z</time>
      </trkpt>
      <trkpt lat="46.43704" lon="5.41208">
        <ele>308.59997558594</ele>
        <time>2016-01-10T08:10:58Z</time>
      </trkpt>
      <trkpt lat="46.43706" lon="5.4121">
        <ele>310</ele>
        <time>2016-01-10T08:10:59Z</time>
      </trkpt>
      <trkpt lat="46.43708" lon="5.41212">
        <ele>311.40002441406</ele>
        <time>2016-01-10T08:11:00Z</time>
      </trkpt>
      <trkpt lat="46.4371" lon="5.41214">
        <ele>312.79998779297</ele>
        <time>2016-01-10T08:11:01Z</time>
      </trkpt>
      <trkpt lat="46.43712" lon="5.41215">
        <ele>314.20001220703</ele>
        <time>2016-01-10T08:11:02Z</time>
      </trkpt>
      <trkpt lat="46.43714" lon="5.41217">
        <ele>315.79998779297</ele>
        <time>2016-01-10T08:11:03Z</time>
      </trkpt>
      <trkpt lat="46.43716" lon="5.41219">
        <ele>317.20001220703</ele>
        <time>2016-01-10T08:11:04Z</time>
      </trkpt>
      <trkpt lat="46.43718" lon="5.4122">
        <ele>318.59997558594</ele>
        <time>2016-01-10T08:11:05Z</time>
      </trkpt>
      <trkpt lat="46.4372" lon="5.41222">
        <ele>320.20001220703</ele>
        <time>2016-01-10T08:11:06Z</time>
      </trkpt>
      <trkpt lat="46.43722" lon="5.41224">
        <ele>321.79998779297</ele>
        <time>2016-01-10T08:11:07Z</time>
      </trkpt>
      <trkpt lat="46.43726" lon="5.41225">
        <ele>323.79998779297</ele>
        <time>2016-01-10T08:11:08Z</time>
      </trkpt>
      <trkpt lat="46.4373" lon="5.41226">
        <ele>325.79998779297</ele>
        <time>2016-01-10T08:11:09Z</time>
      </trkpt>
      <trkpt lat="46.43734" lon="5.41228">
        <ele>327.40002441406</ele>
        <time>2016-01-10T08:11:10Z</time>
      </trkpt>
      <trkpt lat="46.43737" lon="5.41228">
        <ele>329.20001220703</ele>
        <time>2016-01-10T08:11:11Z</time>
      </trkpt>
      <trkpt lat="46.43741" lon="5.4123">
        <ele>330.59997558594</ele>
        <time>2016-01-10T08:11:12Z</time>
      </trkpt>
      <trkpt lat="46.43744" lon="5.41229">
        <ele>331.59997558594</ele>
        <time>2016-01-10T08:11:13Z</time>
      </trkpt>
      <trkpt lat="46.43747" lon="5.41229">
        <ele>332.40002441406</ele>
        <time>2016-01-10T08:11:14Z</time>
      </trkpt>
      <trkpt lat="46.43753" lon="5.41229">
        <ele>334</ele>
        <time>2016-01-10T08:11:16Z</time>
      </trkpt>
      <trkpt lat="46.43756" lon="5.4123">
        <ele>335.59997558594</ele>
        <time>2016-01-10T08:11:17Z</time>
      </trkpt>
      <trkpt lat="46.44121" lon="5.41024">
        <ele>389.20001220703</ele>
        <time>2016-01-10T08:16:07Z</time>
      </trkpt>
      <trkpt lat="46.44124" lon="5.41024">
        <ele>388</ele>
        <time>2016-01-10T08:16:08Z</time>
      </trkpt>
      <trkpt lat="46.44228" lon="5.41053">
        <ele>399.40002441406</ele>
        <time>2016-01-10T08:17:01Z</time>
      </trkpt>
      <trkpt lat="46.44229" lon="5.4105">
        <ele>400.40002441406</ele>
        <time>2016-01-10T08:17:02Z</time>
      </trkpt>
      <trkpt lat="46.44231" lon="5.41047">
        <ele>401.20001220703</ele>
        <time>2016-01-10T08:17:03Z</time>
      </trkpt>
      <trkpt lat="46.44234" lon="5.41042">
        <ele>402.59997558594</ele>
        <time>2016-01-10T08:17:05Z</time>
      </trkpt>
      <trkpt lat="46.44235" lon="5.4104">
        <ele>403.59997558594</ele>
        <time>2016-01-10T08:17:06Z</time>
      </trkpt>
      <trkpt lat="46.44238" lon="5.41034">
        <ele>405.20001220703</ele>
        <time>2016-01-10T08:17:08Z</time>
      </trkpt>
      <trkpt lat="46.44241" lon="5.41028">
        <ele>406.40002441406</ele>
        <time>2016-01-10T08:17:10Z</time>
      </trkpt>
      <trkpt lat="46.44242" lon="5.41027">
        <ele>406.40002441406</ele>
        <time>2016-01-10T08:17:11Z</time>
      </trkpt>
      <trkpt lat="46.44262" lon="5.41003">
        <ele>406.59997558594</ele>
        <time>2016-01-10T08:17:20Z</time>
      </trkpt>
      <trkpt lat="46.44322" lon="5.40886">
        <ele>407.20001220703</ele>
        <time>2016-01-10T08:17:54Z</time>
      </trkpt>
      <trkpt lat="46.44324" lon="5.4088">
        <ele>407.40002441406</ele>
        <time>2016-01-10T08:17:56Z</time>
      </trkpt>
      <trkpt lat="46.44331" lon="5.40863">
        <ele>408</ele>
        <time>2016-01-10T08:18:03Z</time>
      </trkpt>
      <trkpt lat="46.44482" lon="5.40646">
        <ele>408.79998779297</ele>
        <time>2016-01-10T08:19:09Z</time>
      </trkpt>
      <trkpt lat="46.4449" lon="5.40631">
        <ele>408.79998779297</ele>
        <time>2016-01-10T08:19:13Z</time>
      </trkpt>
      <trkpt lat="46.44511" lon="5.40594">
        <ele>409</ele>
        <time>2016-01-10T08:19:24Z</time>
      </trkpt>
      <trkpt lat="46.44528" lon="5.40561">
        <ele>409.20001220703</ele>
        <time>2016-01-10T08:19:33Z</time>
      </trkpt>
      <trkpt lat="46.44545" lon="5.40528">
        <ele>409.20001220703</ele>
        <time>2016-01-10T08:19:41Z</time>
      </trkpt>
      <trkpt lat="46.44568" lon="5.40456">
        <ele>409.40002441406</ele>
        <time>2016-01-10T08:19:56Z</time>
      </trkpt>
      <trkpt lat="46.4457" lon="5.4044">
        <ele>411.20001220703</ele>
        <time>2016-01-10T08:19:59Z</time>
      </trkpt>
      <trkpt lat="46.44569" lon="5.40434">
        <ele>412.59997558594</ele>
        <time>2016-01-10T08:20:00Z</time>
      </trkpt>
      <trkpt lat="46.44571" lon="5.40423">
        <ele>414.20001220703</ele>
        <time>2016-01-10T08:20:02Z</time>
      </trkpt>
      <trkpt lat="46.44622" lon="5.40365">
        <ele>409.79998779297</ele>
        <time>2016-01-10T08:20:04Z</time>
      </trkpt>
      <trkpt lat="46.44643" lon="5.4034">
        <ele>408.59997558594</ele>
        <time>2016-01-10T08:20:05Z</time>
      </trkpt>
      <trkpt lat="46.44672" lon="5.4031">
        <ele>416.59997558594</ele>
        <time>2016-01-10T08:20:06Z</time>
      </trkpt>
      <trkpt lat="46.44692" lon="5.40286">
        <ele>419.59997558594</ele>
        <time>2016-01-10T08:20:07Z</time>
      </trkpt>
      <trkpt lat="46.44697" lon="5.40269">
        <ele>421</ele>
        <time>2016-01-10T08:20:10Z</time>
      </trkpt>
      <trkpt lat="46.44699" lon="5.40264">
        <ele>422.79998779297</ele>
        <time>2016-01-10T08:20:11Z</time>
      </trkpt>
      <trkpt lat="46.44701" lon="5.40258">
        <ele>424.40002441406</ele>
        <time>2016-01-10T08:20:12Z</time>
      </trkpt>
      <trkpt lat="46.44703" lon="5.40253">
        <ele>425.79998779297</ele>
        <time>2016-01-10T08:20:13Z</time>
      </trkpt>
      <trkpt lat="46.44705" lon="5.40249">
        <ele>427.20001220703</ele>
        <time>2016-01-10T08:20:14Z</time>
      </trkpt>
      <trkpt lat="46.44706" lon="5.40245">
        <ele>428.59997558594</ele>
        <time>2016-01-10T08:20:15Z</time>
      </trkpt>
      <trkpt lat="46.44707" lon="5.40241">
        <ele>429.59997558594</ele>
        <time>2016-01-10T08:20:16Z</time>
      </trkpt>
      <trkpt lat="46.44708" lon="5.40237">
        <ele>430.79998779297</ele>
        <time>2016-01-10T08:20:17Z</time>
      </trkpt>
      <trkpt lat="46.44709" lon="5.40233">
        <ele>431.79998779297</ele>
        <time>2016-01-10T08:20:18Z</time>
      </trkpt>
      <trkpt lat="46.4471" lon="5.40227">
        <ele>434.20001220703</ele>
        <time>2016-01-10T08:20:19Z</time>
      </trkpt>
      <trkpt lat="46.44711" lon="5.40222">
        <ele>436.59997558594</ele>
        <time>2016-01-10T08:20:20Z</time>
      </trkpt>
      <trkpt lat="46.44713" lon="5.40217">
        <ele>438.79998779297</ele>
        <time>2016-01-10T08:20:21Z</time>
      </trkpt>
      <trkpt lat="46.44713" lon="5.40211">
        <ele>440.79998779297</ele>
        <time>2016-01-10T08:20:22Z</time>
      </trkpt>
      <trkpt lat="46.44714" lon="5.40206">
        <ele>442.79998779297</ele>
        <time>2016-01-10T08:20:23Z</time>
      </trkpt>
      <trkpt lat="46.44715" lon="5.40201">
        <ele>444.40002441406</ele>
        <time>2016-01-10T08:20:24Z</time>
      </trkpt>
      <trkpt lat="46.44716" lon="5.40196">
        <ele>447</ele>
        <time>2016-01-10T08:20:25Z</time>
      </trkpt>
      <trkpt lat="46.44716" lon="5.40191">
        <ele>448.40002441406</ele>
        <time>2016-01-10T08:20:26Z</time>
      </trkpt>
      <trkpt lat="46.44717" lon="5.40187">
        <ele>449.79998779297</ele>
        <time>2016-01-10T08:20:27Z</time>
      </trkpt>
      <trkpt lat="46.44716" lon="5.40179">
        <ele>451</ele>
        <time>2016-01-10T08:20:29Z</time>
      </trkpt>
      <trkpt lat="46.44716" lon="5.40175">
        <ele>452.20001220703</ele>
        <time>2016-01-10T08:20:30Z</time>
      </trkpt>
      <trkpt lat="46.44717" lon="5.40171">
        <ele>453.40002441406</ele>
        <time>2016-01-10T08:20:31Z</time>
      </trkpt>
      <trkpt lat="46.44717" lon="5.40167">
        <ele>454.40002441406</ele>
        <time>2016-01-10T08:20:32Z</time>
      </trkpt>
      <trkpt lat="46.44718" lon="5.40163">
        <ele>455.79998779297</ele>
        <time>2016-01-10T08:20:33Z</time>
      </trkpt>
      <trkpt lat="46.44718" lon="5.40156">
        <ele>457.40002441406</ele>
        <time>2016-01-10T08:20:35Z</time>
      </trkpt>
      <trkpt lat="46.44718" lon="5.40153">
        <ele>458</ele>
        <time>2016-01-10T08:20:36Z</time>
      </trkpt>
      <trkpt lat="46.44717" lon="5.40151">
        <ele>458.40002441406</ele>
        <time>2016-01-10T08:20:37Z</time>
      </trkpt>
      <trkpt lat="46.44715" lon="5.40133">
        <ele>459.79998779297</ele>
        <time>2016-01-10T08:20:42Z</time>
      </trkpt>
      <trkpt lat="46.44714" lon="5.40125">
        <ele>460.59997558594</ele>
        <time>2016-01-10T08:20:44Z</time>
      </trkpt>
      <trkpt lat="46.44714" lon="5.40121">
        <ele>461</ele>
        <time>2016-01-10T08:20:45Z</time>
      </trkpt>
      <trkpt lat="46.44713" lon="5.40112">
        <ele>462.40002441406</ele>
        <time>2016-01-10T08:20:48Z</time>
      </trkpt>
      <trkpt lat="46.44695" lon="5.39924">
        <ele>451</ele>
        <time>2016-01-10T08:21:46Z</time>
      </trkpt>
      <trkpt lat="46.44696" lon="5.39919">
        <ele>450.59997558594</ele>
        <time>2016-01-10T08:21:47Z</time>
      </trkpt>
      <trkpt lat="46.44698" lon="5.39907">
        <ele>449.79998779297</ele>
        <time>2016-01-10T08:21:49Z</time>
      </trkpt>
      <trkpt lat="46.44702" lon="5.39878">
        <ele>448.79998779297</ele>
        <time>2016-01-10T08:21:55Z</time>
      </trkpt>
      <trkpt lat="46.44702" lon="5.39873">
        <ele>448.59997558594</ele>
        <time>2016-01-10T08:21:56Z</time>
      </trkpt>
      <trkpt lat="46.44704" lon="5.39859">
        <ele>447.79998779297</ele>
        <time>2016-01-10T08:21:59Z</time>
      </trkpt>
      <trkpt lat="46.44709" lon="5.39833">
        <ele>448</ele>
        <time>2016-01-10T08:22:06Z</time>
      </trkpt>
      <trkpt lat="46.44707" lon="5.39804">
        <ele>451.20001220703</ele>
        <time>2016-01-10T08:22:17Z</time>
      </trkpt>
      <trkpt lat="46.447" lon="5.39802">
        <ele>451.59997558594</ele>
        <time>2016-01-10T08:22:21Z</time>
      </trkpt>
      <trkpt lat="46.44686" lon="5.39795">
        <ele>449.79998779297</ele>
        <time>2016-01-10T08:22:27Z</time>
      </trkpt>
      <trkpt lat="46.44682" lon="5.39795">
        <ele>448.79998779297</ele>
        <time>2016-01-10T08:22:29Z</time>
      </trkpt>
      <trkpt lat="46.4468" lon="5.39796">
        <ele>448.59997558594</ele>
        <time>2016-01-10T08:22:30Z</time>
      </trkpt>
      <trkpt lat="46.44609" lon="5.39602">
        <ele>456.40002441406</ele>
        <time>2016-01-10T08:23:56Z</time>
      </trkpt>
      <trkpt lat="46.44608" lon="5.39599">
        <ele>455.79998779297</ele>
        <time>2016-01-10T08:23:57Z</time>
      </trkpt>
      <trkpt lat="46.4461" lon="5.39601">
        <ele>458.59997558594</ele>
        <time>2016-01-10T08:23:58Z</time>
      </trkpt>
      <trkpt lat="46.44612" lon="5.396">
        <ele>461</ele>
        <time>2016-01-10T08:23:59Z</time>
      </trkpt>
      <trkpt lat="46.44614" lon="5.39598">
        <ele>463</ele>
        <time>2016-01-10T08:24:00Z</time>
      </trkpt>
      <trkpt lat="46.44615" lon="5.39595">
        <ele>464.59997558594</ele>
        <time>2016-01-10T08:24:01Z</time>
      </trkpt>
      <trkpt lat="46.44614" lon="5.39591">
        <ele>466.40002441406</ele>
        <time>2016-01-10T08:24:03Z</time>
      </trkpt>
      <trkpt lat="46.44615" lon="5.39585">
        <ele>467.59997558594</ele>
        <time>2016-01-10T08:24:05Z</time>
      </trkpt>
      <trkpt lat="46.44614" lon="5.39577">
        <ele>469.20001220703</ele>
        <time>2016-01-10T08:24:08Z</time>
      </trkpt>
      <trkpt lat="46.44613" lon="5.39571">
        <ele>471.40002441406</ele>
        <time>2016-01-10T08:24:10Z</time>
      </trkpt>
      <trkpt lat="46.44612" lon="5.39569">
        <ele>472.20001220703</ele>
        <time>2016-01-10T08:24:11Z</time>
      </trkpt>
      <trkpt lat="46.44611" lon="5.39567">
        <ele>472.59997558594</ele>
        <time>2016-01-10T08:24:12Z</time>
      </trkpt>
      <trkpt lat="46.44602" lon="5.39555">
        <ele>472</ele>
        <time>2016-01-10T08:24:20Z</time>
      </trkpt>
      <trkpt lat="46.446" lon="5.39551">
        <ele>471.40002441406</ele>
        <time>2016-01-10T08:24:22Z</time>
      </trkpt>
      <trkpt lat="46.44594" lon="5.39536">
        <ele>470.59997558594</ele>
        <time>2016-01-10T08:24:28Z</time>
      </trkpt>
      <trkpt lat="46.44595" lon="5.39529">
        <ele>470.40002441406</ele>
        <time>2016-01-10T08:24:30Z</time>
      </trkpt>
      <trkpt lat="46.44598" lon="5.39427">
        <ele>464.20001220703</ele>
        <time>2016-01-10T08:25:02Z</time>
      </trkpt>
      <trkpt lat="46.44596" lon="5.39424">
        <ele>463.59997558594</ele>
        <time>2016-01-10T08:25:03Z</time>
      </trkpt>
      <trkpt lat="46.44595" lon="5.39421">
        <ele>463</ele>
        <time>2016-01-10T08:25:04Z</time>
      </trkpt>
      <trkpt lat="46.44592" lon="5.39415">
        <ele>461.79998779297</ele>
        <time>2016-01-10T08:25:06Z</time>
      </trkpt>
      <trkpt lat="46.44585" lon="5.39405">
        <ele>460.59997558594</ele>
        <time>2016-01-10T08:25:09Z</time>
      </trkpt>
      <trkpt lat="46.44581" lon="5.39399">
        <ele>459.79998779297</ele>
        <time>2016-01-10T08:25:11Z</time>
      </trkpt>
      <trkpt lat="46.4458" lon="5.39395">
        <ele>459.40002441406</ele>
        <time>2016-01-10T08:25:12Z</time>
      </trkpt>
      <trkpt lat="46.44576" lon="5.39388">
        <ele>458</ele>
        <time>2016-01-10T08:25:15Z</time>
      </trkpt>
      <trkpt lat="46.44574" lon="5.39383">
        <ele>457</ele>
        <time>2016-01-10T08:25:17Z</time>
      </trkpt>
      <trkpt lat="46.44572" lon="5.39377">
        <ele>456.20001220703</ele>
        <time>2016-01-10T08:25:19Z</time>
      </trkpt>
      <trkpt lat="46.4457" lon="5.39374">
        <ele>455.79998779297</ele>
        <time>2016-01-10T08:25:20Z</time>
      </trkpt>
      <trkpt lat="46.44563" lon="5.3936">
        <ele>457</ele>
        <time>2016-01-10T08:25:24Z</time>
      </trkpt>
      <trkpt lat="46.44556" lon="5.3935">
        <ele>458.20001220703</ele>
        <time>2016-01-10T08:25:27Z</time>
      </trkpt>
      <trkpt lat="46.44539" lon="5.39327">
        <ele>459.40002441406</ele>
        <time>2016-01-10T08:25:35Z</time>
      </trkpt>
      <trkpt lat="46.44535" lon="5.3932">
        <ele>459.79998779297</ele>
        <time>2016-01-10T08:25:37Z</time>
      </trkpt>
      <trkpt lat="46.44532" lon="5.39313">
        <ele>460.59997558594</ele>
        <time>2016-01-10T08:25:39Z</time>
      </trkpt>
      <trkpt lat="46.44529" lon="5.39304">
        <ele>462</ele>
        <time>2016-01-10T08:25:41Z</time>
      </trkpt>
      <trkpt lat="46.44523" lon="5.39292">
        <ele>463.20001220703</ele>
        <time>2016-01-10T08:25:44Z</time>
      </trkpt>
      <trkpt lat="46.4452" lon="5.39286">
        <ele>463.79998779297</ele>
        <time>2016-01-10T08:25:46Z</time>
      </trkpt>
      <trkpt lat="46.44516" lon="5.39281">
        <ele>464.40002441406</ele>
        <time>2016-01-10T08:25:48Z</time>
      </trkpt>
      <trkpt lat="46.44511" lon="5.39273">
        <ele>465.59997558594</ele>
        <time>2016-01-10T08:25:51Z</time>
      </trkpt>
      <trkpt lat="46.44508" lon="5.39267">
        <ele>466.79998779297</ele>
        <time>2016-01-10T08:25:53Z</time>
      </trkpt>
      <trkpt lat="46.44505" lon="5.39262">
        <ele>468</ele>
        <time>2016-01-10T08:25:55Z</time>
      </trkpt>
      <trkpt lat="46.44502" lon="5.3925">
        <ele>469.59997558594</ele>
        <time>2016-01-10T08:25:58Z</time>
      </trkpt>
      <trkpt lat="46.44501" lon="5.39237">
        <ele>470.40002441406</ele>
        <time>2016-01-10T08:26:01Z</time>
      </trkpt>
      <trkpt lat="46.44502" lon="5.39231">
        <ele>470.79998779297</ele>
        <time>2016-01-10T08:26:03Z</time>
      </trkpt>
      <trkpt lat="46.44509" lon="5.39214">
        <ele>470</ele>
        <time>2016-01-10T08:26:10Z</time>
      </trkpt>
      <trkpt lat="46.44512" lon="5.39208">
        <ele>469.79998779297</ele>
        <time>2016-01-10T08:26:12Z</time>
      </trkpt>
      <trkpt lat="46.4452" lon="5.39189">
        <ele>470.20001220703</ele>
        <time>2016-01-10T08:26:17Z</time>
      </trkpt>
      <trkpt lat="46.44524" lon="5.39167">
        <ele>470.59997558594</ele>
        <time>2016-01-10T08:26:23Z</time>
      </trkpt>
      <trkpt lat="46.44524" lon="5.39132">
        <ele>470.59997558594</ele>
        <time>2016-01-10T08:26:32Z</time>
      </trkpt>
      <trkpt lat="46.44521" lon="5.39104">
        <ele>469.20001220703</ele>
        <time>2016-01-10T08:26:41Z</time>
      </trkpt>
      <trkpt lat="46.4452" lon="5.39098">
        <ele>468.40002441406</ele>
        <time>2016-01-10T08:26:43Z</time>
      </trkpt>
      <trkpt lat="46.44519" lon="5.39086">
        <ele>467.20001220703</ele>
        <time>2016-01-10T08:26:47Z</time>
      </trkpt>
      <trkpt lat="46.44519" lon="5.3908">
        <ele>466.40002441406</ele>
        <time>2016-01-10T08:26:49Z</time>
      </trkpt>
      <trkpt lat="46.44519" lon="5.39078">
        <ele>466.20001220703</ele>
        <time>2016-01-10T08:26:50Z</time>
      </trkpt>
      <trkpt lat="46.44513" lon="5.39048">
        <ele>466</ele>
        <time>2016-01-10T08:26:57Z</time>
      </trkpt>
      <trkpt lat="46.44512" lon="5.39015">
        <ele>467.59997558594</ele>
        <time>2016-01-10T08:27:05Z</time>
      </trkpt>
      <trkpt lat="46.44511" lon="5.39001">
        <ele>469</ele>
        <time>2016-01-10T08:27:08Z</time>
      </trkpt>
      <trkpt lat="46.4451" lon="5.38987">
        <ele>470.20001220703</ele>
        <time>2016-01-10T08:27:12Z</time>
      </trkpt>
      <trkpt lat="46.44509" lon="5.38983">
        <ele>470.79998779297</ele>
        <time>2016-01-10T08:27:13Z</time>
      </trkpt>
      <trkpt lat="46.4451" lon="5.38976">
        <ele>471.40002441406</ele>
        <time>2016-01-10T08:27:15Z</time>
      </trkpt>
      <trkpt lat="46.44508" lon="5.38955">
        <ele>472.59997558594</ele>
        <time>2016-01-10T08:27:21Z</time>
      </trkpt>
      <trkpt lat="46.44503" lon="5.38927">
        <ele>472.20001220703</ele>
        <time>2016-01-10T08:27:29Z</time>
      </trkpt>
      <trkpt lat="46.44503" lon="5.38921">
        <ele>471.59997558594</ele>
        <time>2016-01-10T08:27:31Z</time>
      </trkpt>
      <trkpt lat="46.44506" lon="5.38899">
        <ele>471.59997558594</ele>
        <time>2016-01-10T08:27:37Z</time>
      </trkpt>
      <trkpt lat="46.44507" lon="5.38879">
        <ele>472.79998779297</ele>
        <time>2016-01-10T08:27:42Z</time>
      </trkpt>
      <trkpt lat="46.44508" lon="5.3887">
        <ele>473.79998779297</ele>
        <time>2016-01-10T08:27:44Z</time>
      </trkpt>
      <trkpt lat="46.44508" lon="5.38861">
        <ele>475</ele>
        <time>2016-01-10T08:27:46Z</time>
      </trkpt>
      <trkpt lat="46.44507" lon="5.38857">
        <ele>475.20001220703</ele>
        <time>2016-01-10T08:27:47Z</time>
      </trkpt>
      <trkpt lat="46.44507" lon="5.38847">
        <ele>476</ele>
        <time>2016-01-10T08:27:50Z</time>
      </trkpt>
      <trkpt lat="46.44508" lon="5.38836">
        <ele>477.20001220703</ele>
        <time>2016-01-10T08:27:54Z</time>
      </trkpt>
      <trkpt lat="46.44503" lon="5.38823">
        <ele>476.79998779297</ele>
        <time>2016-01-10T08:28:01Z</time>
      </trkpt>
      <trkpt lat="46.44497" lon="5.38815">
        <ele>476.40002441406</ele>
        <time>2016-01-10T08:28:06Z</time>
      </trkpt>
      <trkpt lat="46.44491" lon="5.38792">
        <ele>477</ele>
        <time>2016-01-10T08:28:13Z</time>
      </trkpt>
      <trkpt lat="46.44489" lon="5.38782">
        <ele>478.20001220703</ele>
        <time>2016-01-10T08:28:16Z</time>
      </trkpt>
      <trkpt lat="46.44487" lon="5.38769">
        <ele>479.59997558594</ele>
        <time>2016-01-10T08:28:20Z</time>
      </trkpt>
      <trkpt lat="46.44487" lon="5.38766">
        <ele>480</ele>
        <time>2016-01-10T08:28:21Z</time>
      </trkpt>
      <trkpt lat="46.44484" lon="5.38755">
        <ele>481</ele>
        <time>2016-01-10T08:28:24Z</time>
      </trkpt>
      <trkpt lat="46.44481" lon="5.38744">
        <ele>482.40002441406</ele>
        <time>2016-01-10T08:28:27Z</time>
      </trkpt>
      <trkpt lat="46.44479" lon="5.38737">
        <ele>483.59997558594</ele>
        <time>2016-01-10T08:28:29Z</time>
      </trkpt>
      <trkpt lat="46.44476" lon="5.38729">
        <ele>484.59997558594</ele>
        <time>2016-01-10T08:28:31Z</time>
      </trkpt>
      <trkpt lat="46.44472" lon="5.38716">
        <ele>486</ele>
        <time>2016-01-10T08:28:35Z</time>
      </trkpt>
      <trkpt lat="46.44471" lon="5.38709">
        <ele>486.40002441406</ele>
        <time>2016-01-10T08:28:37Z</time>
      </trkpt>
      <trkpt lat="46.4447" lon="5.38699">
        <ele>487.40002441406</ele>
        <time>2016-01-10T08:28:40Z</time>
      </trkpt>
      <trkpt lat="46.44469" lon="5.38691">
        <ele>488.40002441406</ele>
        <time>2016-01-10T08:28:42Z</time>
      </trkpt>
      <trkpt lat="46.44469" lon="5.38684">
        <ele>489.20001220703</ele>
        <time>2016-01-10T08:28:44Z</time>
      </trkpt>
      <trkpt lat="46.44469" lon="5.3868">
        <ele>489.59997558594</ele>
        <time>2016-01-10T08:28:45Z</time>
      </trkpt>
      <trkpt lat="46.44469" lon="5.38667">
        <ele>490.59997558594</ele>
        <time>2016-01-10T08:28:49Z</time>
      </trkpt>
      <trkpt lat="46.44468" lon="5.38657">
        <ele>491.59997558594</ele>
        <time>2016-01-10T08:28:52Z</time>
      </trkpt>
      <trkpt lat="46.44468" lon="5.38649">
        <ele>491.79998779297</ele>
        <time>2016-01-10T08:28:54Z</time>
      </trkpt>
      <trkpt lat="46.44466" lon="5.38624">
        <ele>492.59997558594</ele>
        <time>2016-01-10T08:29:00Z</time>
      </trkpt>
      <trkpt lat="46.44466" lon="5.38603">
        <ele>492.79998779297</ele>
        <time>2016-01-10T08:29:07Z</time>
      </trkpt>
      <trkpt lat="46.44428" lon="5.38562">
        <ele>487.79998779297</ele>
        <time>2016-01-10T08:29:31Z</time>
      </trkpt>
      <trkpt lat="46.44414" lon="5.38553">
        <ele>486.59997558594</ele>
        <time>2016-01-10T08:29:37Z</time>
      </trkpt>
      <trkpt lat="46.44405" lon="5.38549">
        <ele>485.79998779297</ele>
        <time>2016-01-10T08:29:41Z</time>
      </trkpt>
      <trkpt lat="46.44403" lon="5.38548">
        <ele>485.59997558594</ele>
        <time>2016-01-10T08:29:42Z</time>
      </trkpt>
      <trkpt lat="46.44361" lon="5.38525">
        <ele>478.59997558594</ele>
        <time>2016-01-10T08:30:02Z</time>
      </trkpt>
      <trkpt lat="46.44356" lon="5.38523">
        <ele>477.20001220703</ele>
        <time>2016-01-10T08:30:04Z</time>
      </trkpt>
      <trkpt lat="46.44355" lon="5.38521">
        <ele>476.40002441406</ele>
        <time>2016-01-10T08:30:05Z</time>
      </trkpt>
      <trkpt lat="46.44352" lon="5.3852">
        <ele>475.79998779297</ele>
        <time>2016-01-10T08:30:06Z</time>
      </trkpt>
      <trkpt lat="46.44348" lon="5.38516">
        <ele>474.79998779297</ele>
        <time>2016-01-10T08:30:08Z</time>
      </trkpt>
      <trkpt lat="46.44326" lon="5.38502">
        <ele>476</ele>
        <time>2016-01-10T08:30:16Z</time>
      </trkpt>
      <trkpt lat="46.44305" lon="5.38489">
        <ele>475</ele>
        <time>2016-01-10T08:30:26Z</time>
      </trkpt>
      <trkpt lat="46.44303" lon="5.38487">
        <ele>474.59997558594</ele>
        <time>2016-01-10T08:30:27Z</time>
      </trkpt>
      <trkpt lat="46.44254" lon="5.38468">
        <ele>474.59997558594</ele>
        <time>2016-01-10T08:30:51Z</time>
      </trkpt>
      <trkpt lat="46.44249" lon="5.38466">
        <ele>476.20001220703</ele>
        <time>2016-01-10T08:30:53Z</time>
      </trkpt>
      <trkpt lat="46.44247" lon="5.38465">
        <ele>476.79998779297</ele>
        <time>2016-01-10T08:30:54Z</time>
      </trkpt>
      <trkpt lat="46.44245" lon="5.38466">
        <ele>477.40002441406</ele>
        <time>2016-01-10T08:30:55Z</time>
      </trkpt>
      <trkpt lat="46.44238" lon="5.38462">
        <ele>478.79998779297</ele>
        <time>2016-01-10T08:30:58Z</time>
      </trkpt>
      <trkpt lat="46.44232" lon="5.38457">
        <ele>480.20001220703</ele>
        <time>2016-01-10T08:31:00Z</time>
      </trkpt>
      <trkpt lat="46.44225" lon="5.38456">
        <ele>481.20001220703</ele>
        <time>2016-01-10T08:31:03Z</time>
      </trkpt>
      <trkpt lat="46.44222" lon="5.38455">
        <ele>481.40002441406</ele>
        <time>2016-01-10T08:31:04Z</time>
      </trkpt>
      <trkpt lat="46.442" lon="5.38447">
        <ele>480.59997558594</ele>
        <time>2016-01-10T08:31:15Z</time>
      </trkpt>
      <trkpt lat="46.44198" lon="5.38446">
        <ele>480.40002441406</ele>
        <time>2016-01-10T08:31:16Z</time>
      </trkpt>
      <trkpt lat="46.44188" lon="5.38435">
        <ele>478.59997558594</ele>
        <time>2016-01-10T08:31:22Z</time>
      </trkpt>
      <trkpt lat="46.44184" lon="5.38431">
        <ele>478</ele>
        <time>2016-01-10T08:31:24Z</time>
      </trkpt>
      <trkpt lat="46.44179" lon="5.38428">
        <ele>477.40002441406</ele>
        <time>2016-01-10T08:31:27Z</time>
      </trkpt>
      <trkpt lat="46.44171" lon="5.38419">
        <ele>476.79998779297</ele>
        <time>2016-01-10T08:31:32Z</time>
      </trkpt>
      <trkpt lat="46.44167" lon="5.38414">
        <ele>476.40002441406</ele>
        <time>2016-01-10T08:31:35Z</time>
      </trkpt>
      <trkpt lat="46.44161" lon="5.38402">
        <ele>477.20001220703</ele>
        <time>2016-01-10T08:31:41Z</time>
      </trkpt>
      <trkpt lat="46.4416" lon="5.384">
        <ele>478</ele>
        <time>2016-01-10T08:31:42Z</time>
      </trkpt>
      <trkpt lat="46.44159" lon="5.38396">
        <ele>479.40002441406</ele>
        <time>2016-01-10T08:31:44Z</time>
      </trkpt>
      <trkpt lat="46.44158" lon="5.38383">
        <ele>478.20001220703</ele>
        <time>2016-01-10T08:31:49Z</time>
      </trkpt>
      <trkpt lat="46.44158" lon="5.38381">
        <ele>477</ele>
        <time>2016-01-10T08:31:50Z</time>
      </trkpt>
      <trkpt lat="46.44158" lon="5.38379">
        <ele>475.79998779297</ele>
        <time>2016-01-10T08:31:51Z</time>
      </trkpt>
      <trkpt lat="46.44158" lon="5.38368">
        <ele>474.59997558594</ele>
        <time>2016-01-10T08:31:55Z</time>
      </trkpt>
      <trkpt lat="46.44158" lon="5.38364">
        <ele>474.20001220703</ele>
        <time>2016-01-10T08:31:57Z</time>
      </trkpt>
      <trkpt lat="46.44157" lon="5.3836">
        <ele>475.79998779297</ele>
        <time>2016-01-10T08:31:59Z</time>
      </trkpt>
      <trkpt lat="46.44156" lon="5.38355">
        <ele>477</ele>
        <time>2016-01-10T08:32:01Z</time>
      </trkpt>
      <trkpt lat="46.44152" lon="5.38343">
        <ele>478</ele>
        <time>2016-01-10T08:32:06Z</time>
      </trkpt>
      <trkpt lat="46.4415" lon="5.38335">
        <ele>478.79998779297</ele>
        <time>2016-01-10T08:32:09Z</time>
      </trkpt>
      <trkpt lat="46.44149" lon="5.38332">
        <ele>479.20001220703</ele>
        <time>2016-01-10T08:32:10Z</time>
      </trkpt>
      <trkpt lat="46.44146" lon="5.3832">
        <ele>480.40002441406</ele>
        <time>2016-01-10T08:32:14Z</time>
      </trkpt>
      <trkpt lat="46.44143" lon="5.38312">
        <ele>481.59997558594</ele>
        <time>2016-01-10T08:32:17Z</time>
      </trkpt>
      <trkpt lat="46.44142" lon="5.3831">
        <ele>482.20001220703</ele>
        <time>2016-01-10T08:32:18Z</time>
      </trkpt>
      <trkpt lat="46.44141" lon="5.38304">
        <ele>483</ele>
        <time>2016-01-10T08:32:20Z</time>
      </trkpt>
      <trkpt lat="46.44138" lon="5.38296">
        <ele>484.40002441406</ele>
        <time>2016-01-10T08:32:23Z</time>
      </trkpt>
      <trkpt lat="46.44135" lon="5.38288">
        <ele>485.40002441406</ele>
        <time>2016-01-10T08:32:26Z</time>
      </trkpt>
      <trkpt lat="46.44135" lon="5.38286">
        <ele>485.79998779297</ele>
        <time>2016-01-10T08:32:27Z</time>
      </trkpt>
      <trkpt lat="46.44134" lon="5.3828">
        <ele>486.59997558594</ele>
        <time>2016-01-10T08:32:29Z</time>
      </trkpt>
      <trkpt lat="46.4413" lon="5.38267">
        <ele>487.59997558594</ele>
        <time>2016-01-10T08:32:33Z</time>
      </trkpt>
      <trkpt lat="46.44127" lon="5.38254">
        <ele>488.20001220703</ele>
        <time>2016-01-10T08:32:37Z</time>
      </trkpt>
      <trkpt lat="46.44124" lon="5.38245">
        <ele>488.79998779297</ele>
        <time>2016-01-10T08:32:40Z</time>
      </trkpt>
      <trkpt lat="46.4412" lon="5.38228">
        <ele>490</ele>
        <time>2016-01-10T08:32:46Z</time>
      </trkpt>
      <trkpt lat="46.44114" lon="5.3821">
        <ele>491.20001220703</ele>
        <time>2016-01-10T08:32:52Z</time>
      </trkpt>
      <trkpt lat="46.44109" lon="5.38194">
        <ele>493.20001220703</ele>
        <time>2016-01-10T08:32:54Z</time>
      </trkpt>
      <trkpt lat="46.44106" lon="5.38186">
        <ele>494.79998779297</ele>
        <time>2016-01-10T08:32:55Z</time>
      </trkpt>
      <trkpt lat="46.44104" lon="5.38181">
        <ele>496.20001220703</ele>
        <time>2016-01-10T08:32:56Z</time>
      </trkpt>
      <trkpt lat="46.44102" lon="5.38175">
        <ele>497.59997558594</ele>
        <time>2016-01-10T08:32:57Z</time>
      </trkpt>
      <trkpt lat="46.441" lon="5.38171">
        <ele>498.79998779297</ele>
        <time>2016-01-10T08:32:58Z</time>
      </trkpt>
      <trkpt lat="46.44098" lon="5.38166">
        <ele>500</ele>
        <time>2016-01-10T08:32:59Z</time>
      </trkpt>
      <trkpt lat="46.44097" lon="5.38162">
        <ele>501.20001220703</ele>
        <time>2016-01-10T08:33:00Z</time>
      </trkpt>
      <trkpt lat="46.44096" lon="5.3816">
        <ele>502.20001220703</ele>
        <time>2016-01-10T08:33:01Z</time>
      </trkpt>
      <trkpt lat="46.44095" lon="5.38157">
        <ele>503.59997558594</ele>
        <time>2016-01-10T08:33:02Z</time>
      </trkpt>
      <trkpt lat="46.44094" lon="5.38154">
        <ele>504.79998779297</ele>
        <time>2016-01-10T08:33:03Z</time>
      </trkpt>
      <trkpt lat="46.44092" lon="5.38147">
        <ele>506.40002441406</ele>
        <time>2016-01-10T08:33:05Z</time>
      </trkpt>
      <trkpt lat="46.4409" lon="5.38145">
        <ele>507.20001220703</ele>
        <time>2016-01-10T08:33:06Z</time>
      </trkpt>
      <trkpt lat="46.44089" lon="5.38143">
        <ele>508</ele>
        <time>2016-01-10T08:33:07Z</time>
      </trkpt>
      <trkpt lat="46.44086" lon="5.38137">
        <ele>509.59997558594</ele>
        <time>2016-01-10T08:33:09Z</time>
      </trkpt>
      <trkpt lat="46.44084" lon="5.38133">
        <ele>511.20001220703</ele>
        <time>2016-01-10T08:33:11Z</time>
      </trkpt>
      <trkpt lat="46.44082" lon="5.38127">
        <ele>512.79998779297</ele>
        <time>2016-01-10T08:33:13Z</time>
      </trkpt>
      <trkpt lat="46.4408" lon="5.38122">
        <ele>513.79998779297</ele>
        <time>2016-01-10T08:33:15Z</time>
      </trkpt>
      <trkpt lat="46.44076" lon="5.38113">
        <ele>515.40002441406</ele>
        <time>2016-01-10T08:33:18Z</time>
      </trkpt>
      <trkpt lat="46.44073" lon="5.38107">
        <ele>516.59997558594</ele>
        <time>2016-01-10T08:33:20Z</time>
      </trkpt>
      <trkpt lat="46.4407" lon="5.38102">
        <ele>518.20001220703</ele>
        <time>2016-01-10T08:33:22Z</time>
      </trkpt>
      <trkpt lat="46.44067" lon="5.38098">
        <ele>520.20001220703</ele>
        <time>2016-01-10T08:33:24Z</time>
      </trkpt>
      <trkpt lat="46.44064" lon="5.38094">
        <ele>521.40002441406</ele>
        <time>2016-01-10T08:33:26Z</time>
      </trkpt>
      <trkpt lat="46.44062" lon="5.3809">
        <ele>522.59997558594</ele>
        <time>2016-01-10T08:33:28Z</time>
      </trkpt>
      <trkpt lat="46.44058" lon="5.38082">
        <ele>524</ele>
        <time>2016-01-10T08:33:31Z</time>
      </trkpt>
      <trkpt lat="46.44055" lon="5.38073">
        <ele>525.40002441406</ele>
        <time>2016-01-10T08:33:34Z</time>
      </trkpt>
      <trkpt lat="46.44054" lon="5.3807">
        <ele>526</ele>
        <time>2016-01-10T08:33:35Z</time>
      </trkpt>
      <trkpt lat="46.44053" lon="5.38062">
        <ele>527.40002441406</ele>
        <time>2016-01-10T08:33:37Z</time>
      </trkpt>
      <trkpt lat="46.44052" lon="5.38054">
        <ele>528.40002441406</ele>
        <time>2016-01-10T08:33:39Z</time>
      </trkpt>
      <trkpt lat="46.44052" lon="5.38044">
        <ele>529.59997558594</ele>
        <time>2016-01-10T08:33:42Z</time>
      </trkpt>
      <trkpt lat="46.44052" lon="5.38041">
        <ele>529.80004882812</ele>
        <time>2016-01-10T08:33:43Z</time>
      </trkpt>
      <trkpt lat="46.44052" lon="5.38026">
        <ele>530.59997558594</ele>
        <time>2016-01-10T08:33:48Z</time>
      </trkpt>
      <trkpt lat="46.44051" lon="5.38011">
        <ele>531.59997558594</ele>
        <time>2016-01-10T08:33:54Z</time>
      </trkpt>
      <trkpt lat="46.44049" lon="5.38008">
        <ele>531.80004882812</ele>
        <time>2016-01-10T08:33:55Z</time>
      </trkpt>
      <trkpt lat="46.44047" lon="5.38004">
        <ele>532.80004882812</ele>
        <time>2016-01-10T08:33:57Z</time>
      </trkpt>
      <trkpt lat="46.44044" lon="5.37999">
        <ele>534</ele>
        <time>2016-01-10T08:33:58Z</time>
      </trkpt>
      <trkpt lat="46.44043" lon="5.37994">
        <ele>535.19995117188</ele>
        <time>2016-01-10T08:33:59Z</time>
      </trkpt>
      <trkpt lat="46.43984" lon="5.37935">
        <ele>535.19995117188</ele>
        <time>2016-01-10T08:34:52Z</time>
      </trkpt>
      <trkpt lat="46.43977" lon="5.37931">
        <ele>533.80004882812</ele>
        <time>2016-01-10T08:34:55Z</time>
      </trkpt>
      <trkpt lat="46.43972" lon="5.3793">
        <ele>532.59997558594</ele>
        <time>2016-01-10T08:34:57Z</time>
      </trkpt>
      <trkpt lat="46.43967" lon="5.37928">
        <ele>531.19995117188</ele>
        <time>2016-01-10T08:34:59Z</time>
      </trkpt>
      <trkpt lat="46.43962" lon="5.37926">
        <ele>529.80004882812</ele>
        <time>2016-01-10T08:35:01Z</time>
      </trkpt>
      <trkpt lat="46.43958" lon="5.37926">
        <ele>528.19995117188</ele>
        <time>2016-01-10T08:35:03Z</time>
      </trkpt>
      <trkpt lat="46.43954" lon="5.37924">
        <ele>527.19995117188</ele>
        <time>2016-01-10T08:35:05Z</time>
      </trkpt>
      <trkpt lat="46.4395" lon="5.37923">
        <ele>525.80004882812</ele>
        <time>2016-01-10T08:35:07Z</time>
      </trkpt>
      <trkpt lat="46.43945" lon="5.3792">
        <ele>524.80004882812</ele>
        <time>2016-01-10T08:35:09Z</time>
      </trkpt>
      <trkpt lat="46.43942" lon="5.37918">
        <ele>523.20001220703</ele>
        <time>2016-01-10T08:35:11Z</time>
      </trkpt>
      <trkpt lat="46.43937" lon="5.37917">
        <ele>521.59997558594</ele>
        <time>2016-01-10T08:35:13Z</time>
      </trkpt>
      <trkpt lat="46.43934" lon="5.37915">
        <ele>521</ele>
        <time>2016-01-10T08:35:14Z</time>
      </trkpt>
      <trkpt lat="46.43931" lon="5.37913">
        <ele>520.40002441406</ele>
        <time>2016-01-10T08:35:15Z</time>
      </trkpt>
      <trkpt lat="46.43923" lon="5.37911">
        <ele>519.20001220703</ele>
        <time>2016-01-10T08:35:18Z</time>
      </trkpt>
      <trkpt lat="46.43918" lon="5.37911">
        <ele>517.79998779297</ele>
        <time>2016-01-10T08:35:20Z</time>
      </trkpt>
      <trkpt lat="46.43913" lon="5.37908">
        <ele>516.20001220703</ele>
        <time>2016-01-10T08:35:22Z</time>
      </trkpt>
      <trkpt lat="46.43909" lon="5.37906">
        <ele>514.59997558594</ele>
        <time>2016-01-10T08:35:24Z</time>
      </trkpt>
      <trkpt lat="46.43904" lon="5.37902">
        <ele>513</ele>
        <time>2016-01-10T08:35:26Z</time>
      </trkpt>
      <trkpt lat="46.439" lon="5.37901">
        <ele>512</ele>
        <time>2016-01-10T08:35:28Z</time>
      </trkpt>
      <trkpt lat="46.43897" lon="5.379">
        <ele>511.40002441406</ele>
        <time>2016-01-10T08:35:29Z</time>
      </trkpt>
      <trkpt lat="46.43893" lon="5.37898">
        <ele>510.40002441406</ele>
        <time>2016-01-10T08:35:31Z</time>
      </trkpt>
      <trkpt lat="46.43889" lon="5.37895">
        <ele>509</ele>
        <time>2016-01-10T08:35:33Z</time>
      </trkpt>
      <trkpt lat="46.43886" lon="5.37893">
        <ele>507.59997558594</ele>
        <time>2016-01-10T08:35:35Z</time>
      </trkpt>
      <trkpt lat="46.4388" lon="5.37889">
        <ele>506.40002441406</ele>
        <time>2016-01-10T08:35:37Z</time>
      </trkpt>
      <trkpt lat="46.43875" lon="5.37886">
        <ele>505.40002441406</ele>
        <time>2016-01-10T08:35:39Z</time>
      </trkpt>
      <trkpt lat="46.43865" lon="5.37882">
        <ele>504.20001220703</ele>
        <time>2016-01-10T08:35:42Z</time>
      </trkpt>
      <trkpt lat="46.43856" lon="5.37879">
        <ele>503</ele>
        <time>2016-01-10T08:35:45Z</time>
      </trkpt>
      <trkpt lat="46.43847" lon="5.37876">
        <ele>501.79998779297</ele>
        <time>2016-01-10T08:35:48Z</time>
      </trkpt>
      <trkpt lat="46.43844" lon="5.37876">
        <ele>500.79998779297</ele>
        <time>2016-01-10T08:35:49Z</time>
      </trkpt>
      <trkpt lat="46.43836" lon="5.37875">
        <ele>499</ele>
        <time>2016-01-10T08:35:52Z</time>
      </trkpt>
      <trkpt lat="46.43819" lon="5.37872">
        <ele>497.59997558594</ele>
        <time>2016-01-10T08:35:57Z</time>
      </trkpt>
      <trkpt lat="46.43811" lon="5.37869">
        <ele>496.59997558594</ele>
        <time>2016-01-10T08:36:00Z</time>
      </trkpt>
      <trkpt lat="46.43809" lon="5.37869">
        <ele>496.79998779297</ele>
        <time>2016-01-10T08:36:01Z</time>
      </trkpt>
      <trkpt lat="46.43796" lon="5.37861">
        <ele>495.40002441406</ele>
        <time>2016-01-10T08:36:06Z</time>
      </trkpt>
      <trkpt lat="46.43786" lon="5.37861">
        <ele>494.59997558594</ele>
        <time>2016-01-10T08:36:10Z</time>
      </trkpt>
      <trkpt lat="46.43782" lon="5.37861">
        <ele>494.20001220703</ele>
        <time>2016-01-10T08:36:12Z</time>
      </trkpt>
      <trkpt lat="46.43773" lon="5.37859">
        <ele>492.40002441406</ele>
        <time>2016-01-10T08:36:16Z</time>
      </trkpt>
      <trkpt lat="46.4377" lon="5.37858">
        <ele>492.20001220703</ele>
        <time>2016-01-10T08:36:17Z</time>
      </trkpt>
      <trkpt lat="46.43764" lon="5.37856">
        <ele>491.40002441406</ele>
        <time>2016-01-10T08:36:20Z</time>
      </trkpt>
      <trkpt lat="46.43751" lon="5.3785">
        <ele>492.40002441406</ele>
        <time>2016-01-10T08:36:24Z</time>
      </trkpt>
      <trkpt lat="46.43748" lon="5.37849">
        <ele>492.59997558594</ele>
        <time>2016-01-10T08:36:25Z</time>
      </trkpt>
      <trkpt lat="46.43736" lon="5.37848">
        <ele>494</ele>
        <time>2016-01-10T08:36:29Z</time>
      </trkpt>
      <trkpt lat="46.43728" lon="5.37849">
        <ele>494.20001220703</ele>
        <time>2016-01-10T08:36:32Z</time>
      </trkpt>
      <trkpt lat="46.43717" lon="5.37856">
        <ele>495</ele>
        <time>2016-01-10T08:36:36Z</time>
      </trkpt>
      <trkpt lat="46.4371" lon="5.37863">
        <ele>496.20001220703</ele>
        <time>2016-01-10T08:36:39Z</time>
      </trkpt>
      <trkpt lat="46.43704" lon="5.37871">
        <ele>497.79998779297</ele>
        <time>2016-01-10T08:36:42Z</time>
      </trkpt>
      <trkpt lat="46.43693" lon="5.37882">
        <ele>499</ele>
        <time>2016-01-10T08:36:47Z</time>
      </trkpt>
      <trkpt lat="46.43688" lon="5.37888">
        <ele>500</ele>
        <time>2016-01-10T08:36:49Z</time>
      </trkpt>
      <trkpt lat="46.43683" lon="5.37893">
        <ele>501.40002441406</ele>
        <time>2016-01-10T08:36:51Z</time>
      </trkpt>
      <trkpt lat="46.43679" lon="5.37899">
        <ele>502.79998779297</ele>
        <time>2016-01-10T08:36:53Z</time>
      </trkpt>
      <trkpt lat="46.43659" lon="5.37919">
        <ele>503.40002441406</ele>
        <time>2016-01-10T08:37:05Z</time>
      </trkpt>
      <trkpt lat="46.4365" lon="5.37924">
        <ele>501.59997558594</ele>
        <time>2016-01-10T08:37:09Z</time>
      </trkpt>
      <trkpt lat="46.43647" lon="5.37928">
        <ele>502</ele>
        <time>2016-01-10T08:37:10Z</time>
      </trkpt>
      <trkpt lat="46.43638" lon="5.37938">
        <ele>502.79998779297</ele>
        <time>2016-01-10T08:37:13Z</time>
      </trkpt>
      <trkpt lat="46.43623" lon="5.37953">
        <ele>502.40002441406</ele>
        <time>2016-01-10T08:37:19Z</time>
      </trkpt>
      <trkpt lat="46.43616" lon="5.37958">
        <ele>501.40002441406</ele>
        <time>2016-01-10T08:37:22Z</time>
      </trkpt>
      <trkpt lat="46.43609" lon="5.37963">
        <ele>500</ele>
        <time>2016-01-10T08:37:25Z</time>
      </trkpt>
      <trkpt lat="46.43602" lon="5.37966">
        <ele>498.79998779297</ele>
        <time>2016-01-10T08:37:28Z</time>
      </trkpt>
      <trkpt lat="46.43598" lon="5.37966">
        <ele>497.40002441406</ele>
        <time>2016-01-10T08:37:30Z</time>
      </trkpt>
      <trkpt lat="46.43593" lon="5.37964">
        <ele>496</ele>
        <time>2016-01-10T08:37:32Z</time>
      </trkpt>
      <trkpt lat="46.43588" lon="5.37961">
        <ele>494.40002441406</ele>
        <time>2016-01-10T08:37:34Z</time>
      </trkpt>
      <trkpt lat="46.43585" lon="5.3796">
        <ele>494.40002441406</ele>
        <time>2016-01-10T08:37:35Z</time>
      </trkpt>
      <trkpt lat="46.43576" lon="5.37959">
        <ele>493</ele>
        <time>2016-01-10T08:37:39Z</time>
      </trkpt>
      <trkpt lat="46.43572" lon="5.37958">
        <ele>492</ele>
        <time>2016-01-10T08:37:41Z</time>
      </trkpt>
      <trkpt lat="46.4357" lon="5.37958">
        <ele>491.40002441406</ele>
        <time>2016-01-10T08:37:42Z</time>
      </trkpt>
      <trkpt lat="46.43568" lon="5.37958">
        <ele>490.79998779297</ele>
        <time>2016-01-10T08:37:43Z</time>
      </trkpt>
      <trkpt lat="46.43563" lon="5.37957">
        <ele>489.59997558594</ele>
        <time>2016-01-10T08:37:45Z</time>
      </trkpt>
      <trkpt lat="46.43556" lon="5.37954">
        <ele>488.20001220703</ele>
        <time>2016-01-10T08:37:48Z</time>
      </trkpt>
      <trkpt lat="46.43552" lon="5.37953">
        <ele>486.79998779297</ele>
        <time>2016-01-10T08:37:50Z</time>
      </trkpt>
      <trkpt lat="46.43548" lon="5.3795">
        <ele>484.79998779297</ele>
        <time>2016-01-10T08:37:52Z</time>
      </trkpt>
      <trkpt lat="46.43546" lon="5.37949">
        <ele>483.79998779297</ele>
        <time>2016-01-10T08:37:53Z</time>
      </trkpt>
      <trkpt lat="46.43545" lon="5.37946">
        <ele>482.40002441406</ele>
        <time>2016-01-10T08:37:54Z</time>
      </trkpt>
      <trkpt lat="46.43543" lon="5.37944">
        <ele>481</ele>
        <time>2016-01-10T08:37:55Z</time>
      </trkpt>
      <trkpt lat="46.43541" lon="5.37942">
        <ele>479.59997558594</ele>
        <time>2016-01-10T08:37:56Z</time>
      </trkpt>
      <trkpt lat="46.4354" lon="5.3794">
        <ele>478.40002441406</ele>
        <time>2016-01-10T08:37:57Z</time>
      </trkpt>
      <trkpt lat="46.43535" lon="5.37937">
        <ele>476.79998779297</ele>
        <time>2016-01-10T08:37:59Z</time>
      </trkpt>
      <trkpt lat="46.4353" lon="5.37935">
        <ele>475.20001220703</ele>
        <time>2016-01-10T08:38:01Z</time>
      </trkpt>
      <trkpt lat="46.43528" lon="5.37934">
        <ele>474.20001220703</ele>
        <time>2016-01-10T08:38:02Z</time>
      </trkpt>
      <trkpt lat="46.43526" lon="5.37931">
        <ele>474</ele>
        <time>2016-01-10T08:38:03Z</time>
      </trkpt>
      <trkpt lat="46.43512" lon="5.37923">
        <ele>475.79998779297</ele>
        <time>2016-01-10T08:38:08Z</time>
      </trkpt>
      <trkpt lat="46.43506" lon="5.37918">
        <ele>477.59997558594</ele>
        <time>2016-01-10T08:38:10Z</time>
      </trkpt>
      <trkpt lat="46.43494" lon="5.37911">
        <ele>480.20001220703</ele>
        <time>2016-01-10T08:38:15Z</time>
      </trkpt>
      <trkpt lat="46.4349" lon="5.37909">
        <ele>481.59997558594</ele>
        <time>2016-01-10T08:38:16Z</time>
      </trkpt>
      <trkpt lat="46.43484" lon="5.37907">
        <ele>483.59997558594</ele>
        <time>2016-01-10T08:38:18Z</time>
      </trkpt>
      <trkpt lat="46.4348" lon="5.37903">
        <ele>484.79998779297</ele>
        <time>2016-01-10T08:38:19Z</time>
      </trkpt>
      <trkpt lat="46.43477" lon="5.37901">
        <ele>486</ele>
        <time>2016-01-10T08:38:20Z</time>
      </trkpt>
      <trkpt lat="46.43474" lon="5.379">
        <ele>487</ele>
        <time>2016-01-10T08:38:21Z</time>
      </trkpt>
      <trkpt lat="46.43465" lon="5.37902">
        <ele>488.20001220703</ele>
        <time>2016-01-10T08:38:25Z</time>
      </trkpt>
      <trkpt lat="46.43443" lon="5.3789">
        <ele>488.59997558594</ele>
        <time>2016-01-10T08:38:35Z</time>
      </trkpt>
      <trkpt lat="46.43437" lon="5.37885">
        <ele>489.79998779297</ele>
        <time>2016-01-10T08:38:37Z</time>
      </trkpt>
      <trkpt lat="46.4343" lon="5.37886">
        <ele>493.40002441406</ele>
        <time>2016-01-10T08:38:39Z</time>
      </trkpt>
      <trkpt lat="46.43425" lon="5.37889">
        <ele>496.79998779297</ele>
        <time>2016-01-10T08:38:40Z</time>
      </trkpt>
      <trkpt lat="46.43421" lon="5.37891">
        <ele>499.79998779297</ele>
        <time>2016-01-10T08:38:41Z</time>
      </trkpt>
      <trkpt lat="46.43417" lon="5.37896">
        <ele>504.20001220703</ele>
        <time>2016-01-10T08:38:42Z</time>
      </trkpt>
      <trkpt lat="46.43413" lon="5.37897">
        <ele>506.59997558594</ele>
        <time>2016-01-10T08:38:43Z</time>
      </trkpt>
      <trkpt lat="46.43409" lon="5.37895">
        <ele>508.79998779297</ele>
        <time>2016-01-10T08:38:44Z</time>
      </trkpt>
      <trkpt lat="46.43407" lon="5.37894">
        <ele>510</ele>
        <time>2016-01-10T08:38:45Z</time>
      </trkpt>
      <trkpt lat="46.43404" lon="5.37892">
        <ele>511.20001220703</ele>
        <time>2016-01-10T08:38:46Z</time>
      </trkpt>
      <trkpt lat="46.43399" lon="5.37889">
        <ele>512.79998779297</ele>
        <time>2016-01-10T08:38:48Z</time>
      </trkpt>
      <trkpt lat="46.43396" lon="5.37885">
        <ele>514.40002441406</ele>
        <time>2016-01-10T08:38:49Z</time>
      </trkpt>
      <trkpt lat="46.43391" lon="5.37879">
        <ele>516.20001220703</ele>
        <time>2016-01-10T08:38:52Z</time>
      </trkpt>
      <trkpt lat="46.43384" lon="5.37872">
        <ele>517.40002441406</ele>
        <time>2016-01-10T08:38:55Z</time>
      </trkpt>
      <trkpt lat="46.43373" lon="5.37859">
        <ele>518.59997558594</ele>
        <time>2016-01-10T08:39:00Z</time>
      </trkpt>
      <trkpt lat="46.43355" lon="5.37838">
        <ele>519.20001220703</ele>
        <time>2016-01-10T08:39:10Z</time>
      </trkpt>
      <trkpt lat="46.43342" lon="5.37829">
        <ele>519.59997558594</ele>
        <time>2016-01-10T08:39:16Z</time>
      </trkpt>
      <trkpt lat="46.43334" lon="5.37826">
        <ele>518.79998779297</ele>
        <time>2016-01-10T08:39:20Z</time>
      </trkpt>
      <trkpt lat="46.43313" lon="5.37811">
        <ele>520.79998779297</ele>
        <time>2016-01-10T08:39:27Z</time>
      </trkpt>
      <trkpt lat="46.4331" lon="5.37809">
        <ele>521.20001220703</ele>
        <time>2016-01-10T08:39:28Z</time>
      </trkpt>
      <trkpt lat="46.43305" lon="5.37806">
        <ele>522</ele>
        <time>2016-01-10T08:39:30Z</time>
      </trkpt>
      <trkpt lat="46.43296" lon="5.37804">
        <ele>523</ele>
        <time>2016-01-10T08:39:33Z</time>
      </trkpt>
      <trkpt lat="46.43287" lon="5.37799">
        <ele>523.59997558594</ele>
        <time>2016-01-10T08:39:37Z</time>
      </trkpt>
      <trkpt lat="46.43281" lon="5.37794">
        <ele>524.19995117188</ele>
        <time>2016-01-10T08:39:39Z</time>
      </trkpt>
      <trkpt lat="46.43267" lon="5.37784">
        <ele>524.40002441406</ele>
        <time>2016-01-10T08:39:45Z</time>
      </trkpt>
      <trkpt lat="46.43265" lon="5.37785">
        <ele>524</ele>
        <time>2016-01-10T08:39:46Z</time>
      </trkpt>
      <trkpt lat="46.43258" lon="5.37783">
        <ele>522.79998779297</ele>
        <time>2016-01-10T08:39:49Z</time>
      </trkpt>
      <trkpt lat="46.43253" lon="5.37783">
        <ele>521.40002441406</ele>
        <time>2016-01-10T08:39:51Z</time>
      </trkpt>
      <trkpt lat="46.43249" lon="5.37782">
        <ele>519.79998779297</ele>
        <time>2016-01-10T08:39:53Z</time>
      </trkpt>
      <trkpt lat="46.43244" lon="5.37782">
        <ele>518.79998779297</ele>
        <time>2016-01-10T08:39:55Z</time>
      </trkpt>
      <trkpt lat="46.43238" lon="5.37783">
        <ele>518.59997558594</ele>
        <time>2016-01-10T08:39:57Z</time>
      </trkpt>
      <trkpt lat="46.43216" lon="5.37792">
        <ele>520.20001220703</ele>
        <time>2016-01-10T08:40:05Z</time>
      </trkpt>
      <trkpt lat="46.43212" lon="5.37794">
        <ele>521</ele>
        <time>2016-01-10T08:40:06Z</time>
      </trkpt>
      <trkpt lat="46.43209" lon="5.37796">
        <ele>521.79998779297</ele>
        <time>2016-01-10T08:40:07Z</time>
      </trkpt>
      <trkpt lat="46.43203" lon="5.37801">
        <ele>523</ele>
        <time>2016-01-10T08:40:09Z</time>
      </trkpt>
      <trkpt lat="46.43192" lon="5.37814">
        <ele>523.20001220703</ele>
        <time>2016-01-10T08:40:14Z</time>
      </trkpt>
      <trkpt lat="46.43177" lon="5.37818">
        <ele>523.79998779297</ele>
        <time>2016-01-10T08:40:22Z</time>
      </trkpt>
      <trkpt lat="46.43159" lon="5.37812">
        <ele>524.19995117188</ele>
        <time>2016-01-10T08:40:29Z</time>
      </trkpt>
      <trkpt lat="46.4315" lon="5.37809">
        <ele>524.59997558594</ele>
        <time>2016-01-10T08:40:32Z</time>
      </trkpt>
      <trkpt lat="46.43134" lon="5.37803">
        <ele>525.59997558594</ele>
        <time>2016-01-10T08:40:37Z</time>
      </trkpt>
      <trkpt lat="46.43126" lon="5.37799">
        <ele>527</ele>
        <time>2016-01-10T08:40:40Z</time>
      </trkpt>
      <trkpt lat="46.43115" lon="5.37797">
        <ele>528</ele>
        <time>2016-01-10T08:40:44Z</time>
      </trkpt>
      <trkpt lat="46.43104" lon="5.37794">
        <ele>528.59997558594</ele>
        <time>2016-01-10T08:40:49Z</time>
      </trkpt>
      <trkpt lat="46.43085" lon="5.37789">
        <ele>528</ele>
        <time>2016-01-10T08:40:57Z</time>
      </trkpt>
      <trkpt lat="46.43069" lon="5.37787">
        <ele>526.80004882812</ele>
        <time>2016-01-10T08:41:04Z</time>
      </trkpt>
      <trkpt lat="46.43066" lon="5.37787">
        <ele>526.40002441406</ele>
        <time>2016-01-10T08:41:05Z</time>
      </trkpt>
      <trkpt lat="46.43061" lon="5.37786">
        <ele>525.80004882812</ele>
        <time>2016-01-10T08:41:07Z</time>
      </trkpt>
      <trkpt lat="46.4304" lon="5.37786">
        <ele>527</ele>
        <time>2016-01-10T08:41:15Z</time>
      </trkpt>
      <trkpt lat="46.43025" lon="5.37784">
        <ele>528</ele>
        <time>2016-01-10T08:41:21Z</time>
      </trkpt>
      <trkpt lat="46.43018" lon="5.37785">
        <ele>528.80004882812</ele>
        <time>2016-01-10T08:41:24Z</time>
      </trkpt>
      <trkpt lat="46.43015" lon="5.37786">
        <ele>529.40002441406</ele>
        <time>2016-01-10T08:41:25Z</time>
      </trkpt>
      <trkpt lat="46.43006" lon="5.37787">
        <ele>530.40002441406</ele>
        <time>2016-01-10T08:41:29Z</time>
      </trkpt>
      <trkpt lat="46.42997" lon="5.37789">
        <ele>530.59997558594</ele>
        <time>2016-01-10T08:41:33Z</time>
      </trkpt>
      <trkpt lat="46.4299" lon="5.3779">
        <ele>529.19995117188</ele>
        <time>2016-01-10T08:41:37Z</time>
      </trkpt>
      <trkpt lat="46.42983" lon="5.37792">
        <ele>528.19995117188</ele>
        <time>2016-01-10T08:41:41Z</time>
      </trkpt>
      <trkpt lat="46.42979" lon="5.37794">
        <ele>527.80004882812</ele>
        <time>2016-01-10T08:41:43Z</time>
      </trkpt>
      <trkpt lat="46.42973" lon="5.37796">
        <ele>527.19995117188</ele>
        <time>2016-01-10T08:41:46Z</time>
      </trkpt>
      <trkpt lat="46.42965" lon="5.378">
        <ele>526.59997558594</ele>
        <time>2016-01-10T08:41:51Z</time>
      </trkpt>
      <trkpt lat="46.42959" lon="5.37802">
        <ele>526.19995117188</ele>
        <time>2016-01-10T08:41:54Z</time>
      </trkpt>
      <trkpt lat="46.42946" lon="5.37803">
        <ele>525.80004882812</ele>
        <time>2016-01-10T08:42:01Z</time>
      </trkpt>
      <trkpt lat="46.42926" lon="5.37805">
        <ele>526.40002441406</ele>
        <time>2016-01-10T08:42:11Z</time>
      </trkpt>
      <trkpt lat="46.42916" lon="5.37805">
        <ele>527.19995117188</ele>
        <time>2016-01-10T08:42:16Z</time>
      </trkpt>
      <trkpt lat="46.42907" lon="5.37805">
        <ele>528.19995117188</ele>
        <time>2016-01-10T08:42:21Z</time>
      </trkpt>
      <trkpt lat="46.42901" lon="5.37804">
        <ele>529.80004882812</ele>
        <time>2016-01-10T08:42:24Z</time>
      </trkpt>
      <trkpt lat="46.42896" lon="5.37803">
        <ele>531.19995117188</ele>
        <time>2016-01-10T08:42:26Z</time>
      </trkpt>
      <trkpt lat="46.42894" lon="5.37801">
        <ele>532.19995117188</ele>
        <time>2016-01-10T08:42:27Z</time>
      </trkpt>
      <trkpt lat="46.42891" lon="5.37797">
        <ele>533.80004882812</ele>
        <time>2016-01-10T08:42:28Z</time>
      </trkpt>
      <trkpt lat="46.42889" lon="5.37793">
        <ele>535.80004882812</ele>
        <time>2016-01-10T08:42:29Z</time>
      </trkpt>
      <trkpt lat="46.42885" lon="5.37785">
        <ele>539</ele>
        <time>2016-01-10T08:42:30Z</time>
      </trkpt>
      <trkpt lat="46.42883" lon="5.37781">
        <ele>541.19995117188</ele>
        <time>2016-01-10T08:42:31Z</time>
      </trkpt>
      <trkpt lat="46.42879" lon="5.37776">
        <ele>544.19995117188</ele>
        <time>2016-01-10T08:42:32Z</time>
      </trkpt>
      <trkpt lat="46.42876" lon="5.37775">
        <ele>546.40002441406</ele>
        <time>2016-01-10T08:42:33Z</time>
      </trkpt>
      <trkpt lat="46.42874" lon="5.37776">
        <ele>547.80004882812</ele>
        <time>2016-01-10T08:42:34Z</time>
      </trkpt>
      <trkpt lat="46.42871" lon="5.37776">
        <ele>549.80004882812</ele>
        <time>2016-01-10T08:42:35Z</time>
      </trkpt>
      <trkpt lat="46.42869" lon="5.37778">
        <ele>551</ele>
        <time>2016-01-10T08:42:36Z</time>
      </trkpt>
      <trkpt lat="46.42866" lon="5.37778">
        <ele>552</ele>
        <time>2016-01-10T08:42:37Z</time>
      </trkpt>
      <trkpt lat="46.42864" lon="5.37779">
        <ele>553.19995117188</ele>
        <time>2016-01-10T08:42:38Z</time>
      </trkpt>
      <trkpt lat="46.42862" lon="5.3778">
        <ele>554.40002441406</ele>
        <time>2016-01-10T08:42:39Z</time>
      </trkpt>
      <trkpt lat="46.42858" lon="5.37782">
        <ele>555.80004882812</ele>
        <time>2016-01-10T08:42:41Z</time>
      </trkpt>
      <trkpt lat="46.42853" lon="5.37783">
        <ele>557.19995117188</ele>
        <time>2016-01-10T08:42:43Z</time>
      </trkpt>
      <trkpt lat="46.42851" lon="5.37783">
        <ele>558</ele>
        <time>2016-01-10T08:42:44Z</time>
      </trkpt>
      <trkpt lat="46.42849" lon="5.37784">
        <ele>558.59997558594</ele>
        <time>2016-01-10T08:42:45Z</time>
      </trkpt>
      <trkpt lat="46.42845" lon="5.37787">
        <ele>559.80004882812</ele>
        <time>2016-01-10T08:42:47Z</time>
      </trkpt>
      <trkpt lat="46.42841" lon="5.37788">
        <ele>561</ele>
        <time>2016-01-10T08:42:49Z</time>
      </trkpt>
      <trkpt lat="46.42837" lon="5.3779">
        <ele>562.59997558594</ele>
        <time>2016-01-10T08:42:51Z</time>
      </trkpt>
      <trkpt lat="46.42835" lon="5.3779">
        <ele>563.19995117188</ele>
        <time>2016-01-10T08:42:52Z</time>
      </trkpt>
      <trkpt lat="46.42833" lon="5.37791">
        <ele>563.80004882812</ele>
        <time>2016-01-10T08:42:53Z</time>
      </trkpt>
      <trkpt lat="46.42819" lon="5.37799">
        <ele>564.80004882812</ele>
        <time>2016-01-10T08:43:00Z</time>
      </trkpt>
      <trkpt lat="46.42817" lon="5.37801">
        <ele>565</ele>
        <time>2016-01-10T08:43:01Z</time>
      </trkpt>
      <trkpt lat="46.42809" lon="5.37806">
        <ele>566.19995117188</ele>
        <time>2016-01-10T08:43:05Z</time>
      </trkpt>
      <trkpt lat="46.42802" lon="5.37815">
        <ele>566.80004882812</ele>
        <time>2016-01-10T08:43:09Z</time>
      </trkpt>
      <trkpt lat="46.42795" lon="5.37833">
        <ele>565.19995117188</ele>
        <time>2016-01-10T08:43:17Z</time>
      </trkpt>
      <trkpt lat="46.42795" lon="5.37835">
        <ele>565</ele>
        <time>2016-01-10T08:43:18Z</time>
      </trkpt>
      <trkpt lat="46.42797" lon="5.37857">
        <ele>564.40002441406</ele>
        <time>2016-01-10T08:43:25Z</time>
      </trkpt>
      <trkpt lat="46.42799" lon="5.37863">
        <ele>563.80004882812</ele>
        <time>2016-01-10T08:43:27Z</time>
      </trkpt>
      <trkpt lat="46.42801" lon="5.37875">
        <ele>564.40002441406</ele>
        <time>2016-01-10T08:43:34Z</time>
      </trkpt>
      <trkpt lat="46.428" lon="5.37877">
        <ele>565.19995117188</ele>
        <time>2016-01-10T08:43:35Z</time>
      </trkpt>
      <trkpt lat="46.42797" lon="5.37883">
        <ele>566</ele>
        <time>2016-01-10T08:43:37Z</time>
      </trkpt>
      <trkpt lat="46.42794" lon="5.37891">
        <ele>566.19995117188</ele>
        <time>2016-01-10T08:43:39Z</time>
      </trkpt>
      <trkpt lat="46.42791" lon="5.37896">
        <ele>566.19995117188</ele>
        <time>2016-01-10T08:43:40Z</time>
      </trkpt>
      <trkpt lat="46.42782" lon="5.37905">
        <ele>567.40002441406</ele>
        <time>2016-01-10T08:43:43Z</time>
      </trkpt>
      <trkpt lat="46.42774" lon="5.37911">
        <ele>568</ele>
        <time>2016-01-10T08:43:46Z</time>
      </trkpt>
      <trkpt lat="46.4275" lon="5.37915">
        <ele>567.80004882812</ele>
        <time>2016-01-10T08:43:56Z</time>
      </trkpt>
      <trkpt lat="46.42727" lon="5.37911">
        <ele>568.19995117188</ele>
        <time>2016-01-10T08:44:05Z</time>
      </trkpt>
      <trkpt lat="46.4271" lon="5.37916">
        <ele>566.40002441406</ele>
        <time>2016-01-10T08:44:14Z</time>
      </trkpt>
      <trkpt lat="46.42709" lon="5.37916">
        <ele>566.19995117188</ele>
        <time>2016-01-10T08:44:15Z</time>
      </trkpt>
      <trkpt lat="46.42703" lon="5.37917">
        <ele>565</ele>
        <time>2016-01-10T08:44:19Z</time>
      </trkpt>
      <trkpt lat="46.42699" lon="5.37916">
        <ele>563.80004882812</ele>
        <time>2016-01-10T08:44:22Z</time>
      </trkpt>
      <trkpt lat="46.42696" lon="5.37914">
        <ele>562.80004882812</ele>
        <time>2016-01-10T08:44:24Z</time>
      </trkpt>
      <trkpt lat="46.42695" lon="5.37914">
        <ele>562.40002441406</ele>
        <time>2016-01-10T08:44:25Z</time>
      </trkpt>
      <trkpt lat="46.42691" lon="5.37913">
        <ele>560.80004882812</ele>
        <time>2016-01-10T08:44:28Z</time>
      </trkpt>
      <trkpt lat="46.42676" lon="5.37917">
        <ele>563</ele>
        <time>2016-01-10T08:44:33Z</time>
      </trkpt>
      <trkpt lat="46.42502" lon="5.38022">
        <ele>538.40002441406</ele>
        <time>2016-01-10T08:45:52Z</time>
      </trkpt>
      <trkpt lat="46.42499" lon="5.38022">
        <ele>537.40002441406</ele>
        <time>2016-01-10T08:45:53Z</time>
      </trkpt>
      <trkpt lat="46.42496" lon="5.38023">
        <ele>536.19995117188</ele>
        <time>2016-01-10T08:45:54Z</time>
      </trkpt>
      <trkpt lat="46.4249" lon="5.38025">
        <ele>534.40002441406</ele>
        <time>2016-01-10T08:45:56Z</time>
      </trkpt>
      <trkpt lat="46.42484" lon="5.38026">
        <ele>533</ele>
        <time>2016-01-10T08:45:58Z</time>
      </trkpt>
      <trkpt lat="46.42474" lon="5.38024">
        <ele>532.40002441406</ele>
        <time>2016-01-10T08:46:01Z</time>
      </trkpt>
      <trkpt lat="46.42471" lon="5.38027">
        <ele>532</ele>
        <time>2016-01-10T08:46:02Z</time>
      </trkpt>
      <trkpt lat="46.42463" lon="5.3803">
        <ele>531.40002441406</ele>
        <time>2016-01-10T08:46:05Z</time>
      </trkpt>
      <trkpt lat="46.4246" lon="5.38031">
        <ele>530.80004882812</ele>
        <time>2016-01-10T08:46:06Z</time>
      </trkpt>
      <trkpt lat="46.42456" lon="5.38032">
        <ele>529.59997558594</ele>
        <time>2016-01-10T08:46:08Z</time>
      </trkpt>
      <trkpt lat="46.42452" lon="5.38036">
        <ele>527.80004882812</ele>
        <time>2016-01-10T08:46:10Z</time>
      </trkpt>
      <trkpt lat="46.42449" lon="5.38038">
        <ele>526.19995117188</ele>
        <time>2016-01-10T08:46:12Z</time>
      </trkpt>
      <trkpt lat="46.42422" lon="5.38064">
        <ele>508.40002441406</ele>
        <time>2016-01-10T08:46:26Z</time>
      </trkpt>
      <trkpt lat="46.42419" lon="5.38066">
        <ele>507</ele>
        <time>2016-01-10T08:46:27Z</time>
      </trkpt>
      <trkpt lat="46.42416" lon="5.38068">
        <ele>505.40002441406</ele>
        <time>2016-01-10T08:46:29Z</time>
      </trkpt>
      <trkpt lat="46.42413" lon="5.3807">
        <ele>503.79998779297</ele>
        <time>2016-01-10T08:46:30Z</time>
      </trkpt>
      <trkpt lat="46.4241" lon="5.38072">
        <ele>502.20001220703</ele>
        <time>2016-01-10T08:46:31Z</time>
      </trkpt>
      <trkpt lat="46.42407" lon="5.38074">
        <ele>500.59997558594</ele>
        <time>2016-01-10T08:46:32Z</time>
      </trkpt>
      <trkpt lat="46.42404" lon="5.38075">
        <ele>499.59997558594</ele>
        <time>2016-01-10T08:46:33Z</time>
      </trkpt>
      <trkpt lat="46.42399" lon="5.38076">
        <ele>497.59997558594</ele>
        <time>2016-01-10T08:46:35Z</time>
      </trkpt>
      <trkpt lat="46.42393" lon="5.38078">
        <ele>495.79998779297</ele>
        <time>2016-01-10T08:46:37Z</time>
      </trkpt>
      <trkpt lat="46.42369" lon="5.38084">
        <ele>490</ele>
        <time>2016-01-10T08:46:46Z</time>
      </trkpt>
      <trkpt lat="46.42361" lon="5.38085">
        <ele>489</ele>
        <time>2016-01-10T08:46:49Z</time>
      </trkpt>
      <trkpt lat="46.42358" lon="5.38085">
        <ele>487.79998779297</ele>
        <time>2016-01-10T08:46:50Z</time>
      </trkpt>
      <trkpt lat="46.42356" lon="5.38085">
        <ele>487.59997558594</ele>
        <time>2016-01-10T08:46:51Z</time>
      </trkpt>
      <trkpt lat="46.42348" lon="5.38085">
        <ele>486.40002441406</ele>
        <time>2016-01-10T08:46:54Z</time>
      </trkpt>
      <trkpt lat="46.42328" lon="5.38093">
        <ele>485.40002441406</ele>
        <time>2016-01-10T08:47:01Z</time>
      </trkpt>
      <trkpt lat="46.42317" lon="5.38097">
        <ele>484.20001220703</ele>
        <time>2016-01-10T08:47:05Z</time>
      </trkpt>
      <trkpt lat="46.42308" lon="5.38095">
        <ele>483.79998779297</ele>
        <time>2016-01-10T08:47:09Z</time>
      </trkpt>
      <trkpt lat="46.42297" lon="5.38094">
        <ele>483</ele>
        <time>2016-01-10T08:47:13Z</time>
      </trkpt>
      <trkpt lat="46.42289" lon="5.38096">
        <ele>482</ele>
        <time>2016-01-10T08:47:16Z</time>
      </trkpt>
      <trkpt lat="46.42287" lon="5.38097">
        <ele>480.40002441406</ele>
        <time>2016-01-10T08:47:17Z</time>
      </trkpt>
      <trkpt lat="46.42285" lon="5.38098">
        <ele>479</ele>
        <time>2016-01-10T08:47:18Z</time>
      </trkpt>
      <trkpt lat="46.42284" lon="5.38099">
        <ele>477.40002441406</ele>
        <time>2016-01-10T08:47:19Z</time>
      </trkpt>
      <trkpt lat="46.42282" lon="5.381">
        <ele>476.20001220703</ele>
        <time>2016-01-10T08:47:20Z</time>
      </trkpt>
      <trkpt lat="46.4228" lon="5.38101">
        <ele>474.59997558594</ele>
        <time>2016-01-10T08:47:21Z</time>
      </trkpt>
      <trkpt lat="46.42278" lon="5.38102">
        <ele>473.20001220703</ele>
        <time>2016-01-10T08:47:22Z</time>
      </trkpt>
      <trkpt lat="46.42276" lon="5.38103">
        <ele>471.79998779297</ele>
        <time>2016-01-10T08:47:23Z</time>
      </trkpt>
      <trkpt lat="46.42273" lon="5.38104">
        <ele>470.20001220703</ele>
        <time>2016-01-10T08:47:24Z</time>
      </trkpt>
      <trkpt lat="46.42271" lon="5.38105">
        <ele>468.79998779297</ele>
        <time>2016-01-10T08:47:25Z</time>
      </trkpt>
      <trkpt lat="46.42269" lon="5.38106">
        <ele>467.40002441406</ele>
        <time>2016-01-10T08:47:26Z</time>
      </trkpt>
      <trkpt lat="46.42267" lon="5.38107">
        <ele>466</ele>
        <time>2016-01-10T08:47:27Z</time>
      </trkpt>
      <trkpt lat="46.42264" lon="5.38108">
        <ele>464.59997558594</ele>
        <time>2016-01-10T08:47:28Z</time>
      </trkpt>
      <trkpt lat="46.42262" lon="5.38109">
        <ele>463.40002441406</ele>
        <time>2016-01-10T08:47:29Z</time>
      </trkpt>
      <trkpt lat="46.4226" lon="5.3811">
        <ele>462</ele>
        <time>2016-01-10T08:47:30Z</time>
      </trkpt>
      <trkpt lat="46.42259" lon="5.3811">
        <ele>460.40002441406</ele>
        <time>2016-01-10T08:47:31Z</time>
      </trkpt>
      <trkpt lat="46.42257" lon="5.38111">
        <ele>459</ele>
        <time>2016-01-10T08:47:32Z</time>
      </trkpt>
      <trkpt lat="46.42256" lon="5.38112">
        <ele>457.59997558594</ele>
        <time>2016-01-10T08:47:33Z</time>
      </trkpt>
      <trkpt lat="46.42254" lon="5.38112">
        <ele>456.20001220703</ele>
        <time>2016-01-10T08:47:34Z</time>
      </trkpt>
      <trkpt lat="46.42253" lon="5.38113">
        <ele>455</ele>
        <time>2016-01-10T08:47:35Z</time>
      </trkpt>
      <trkpt lat="46.42251" lon="5.38113">
        <ele>453.79998779297</ele>
        <time>2016-01-10T08:47:36Z</time>
      </trkpt>
      <trkpt lat="46.42249" lon="5.38113">
        <ele>452.59997558594</ele>
        <time>2016-01-10T08:47:37Z</time>
      </trkpt>
      <trkpt lat="46.42247" lon="5.38113">
        <ele>451.40002441406</ele>
        <time>2016-01-10T08:47:38Z</time>
      </trkpt>
      <trkpt lat="46.42245" lon="5.38113">
        <ele>450.40002441406</ele>
        <time>2016-01-10T08:47:39Z</time>
      </trkpt>
      <trkpt lat="46.42244" lon="5.38112">
        <ele>449.40002441406</ele>
        <time>2016-01-10T08:47:40Z</time>
      </trkpt>
      <trkpt lat="46.4224" lon="5.3811">
        <ele>447.59997558594</ele>
        <time>2016-01-10T08:47:42Z</time>
      </trkpt>
      <trkpt lat="46.422" lon="5.38082">
        <ele>426.40002441406</ele>
        <time>2016-01-10T08:48:05Z</time>
      </trkpt>
      <trkpt lat="46.42195" lon="5.38078">
        <ele>424.59997558594</ele>
        <time>2016-01-10T08:48:07Z</time>
      </trkpt>
      <trkpt lat="46.42191" lon="5.38075">
        <ele>422.79998779297</ele>
        <time>2016-01-10T08:48:09Z</time>
      </trkpt>
      <trkpt lat="46.42188" lon="5.38072">
        <ele>421.20001220703</ele>
        <time>2016-01-10T08:48:11Z</time>
      </trkpt>
      <trkpt lat="46.42184" lon="5.38068">
        <ele>419.59997558594</ele>
        <time>2016-01-10T08:48:13Z</time>
      </trkpt>
      <trkpt lat="46.42179" lon="5.38063">
        <ele>418.59997558594</ele>
        <time>2016-01-10T08:48:15Z</time>
      </trkpt>
      <trkpt lat="46.4217" lon="5.38055">
        <ele>420.20001220703</ele>
        <time>2016-01-10T08:48:18Z</time>
      </trkpt>
      <trkpt lat="46.42165" lon="5.38049">
        <ele>420.79998779297</ele>
        <time>2016-01-10T08:48:20Z</time>
      </trkpt>
      <trkpt lat="46.42157" lon="5.3804">
        <ele>422.20001220703</ele>
        <time>2016-01-10T08:48:23Z</time>
      </trkpt>
      <trkpt lat="46.42148" lon="5.38032">
        <ele>423.40002441406</ele>
        <time>2016-01-10T08:48:26Z</time>
      </trkpt>
      <trkpt lat="46.4214" lon="5.38026">
        <ele>424.59997558594</ele>
        <time>2016-01-10T08:48:29Z</time>
      </trkpt>
      <trkpt lat="46.42131" lon="5.38023">
        <ele>425.79998779297</ele>
        <time>2016-01-10T08:48:32Z</time>
      </trkpt>
      <trkpt lat="46.42122" lon="5.38017">
        <ele>427</ele>
        <time>2016-01-10T08:48:35Z</time>
      </trkpt>
      <trkpt lat="46.42119" lon="5.38015">
        <ele>427.40002441406</ele>
        <time>2016-01-10T08:48:36Z</time>
      </trkpt>
      <trkpt lat="46.42114" lon="5.38012">
        <ele>428.40002441406</ele>
        <time>2016-01-10T08:48:38Z</time>
      </trkpt>
      <trkpt lat="46.4211" lon="5.38008">
        <ele>429.59997558594</ele>
        <time>2016-01-10T08:48:40Z</time>
      </trkpt>
      <trkpt lat="46.42105" lon="5.38005">
        <ele>431</ele>
        <time>2016-01-10T08:48:42Z</time>
      </trkpt>
      <trkpt lat="46.42102" lon="5.37997">
        <ele>434.59997558594</ele>
        <time>2016-01-10T08:48:43Z</time>
      </trkpt>
      <trkpt lat="46.42099" lon="5.37991">
        <ele>438.20001220703</ele>
        <time>2016-01-10T08:48:44Z</time>
      </trkpt>
      <trkpt lat="46.42095" lon="5.37983">
        <ele>441.40002441406</ele>
        <time>2016-01-10T08:48:45Z</time>
      </trkpt>
      <trkpt lat="46.42088" lon="5.37976">
        <ele>446.59997558594</ele>
        <time>2016-01-10T08:48:47Z</time>
      </trkpt>
      <trkpt lat="46.42085" lon="5.37971">
        <ele>447.59997558594</ele>
        <time>2016-01-10T08:48:49Z</time>
      </trkpt>
      <trkpt lat="46.4208" lon="5.37962">
        <ele>448.59997558594</ele>
        <time>2016-01-10T08:48:53Z</time>
      </trkpt>
      <trkpt lat="46.42077" lon="5.37953">
        <ele>448.79998779297</ele>
        <time>2016-01-10T08:48:56Z</time>
      </trkpt>
      <trkpt lat="46.42073" lon="5.37942">
        <ele>450</ele>
        <time>2016-01-10T08:48:59Z</time>
      </trkpt>
      <trkpt lat="46.4207" lon="5.37936">
        <ele>452</ele>
        <time>2016-01-10T08:49:01Z</time>
      </trkpt>
      <trkpt lat="46.42069" lon="5.37934">
        <ele>453.20001220703</ele>
        <time>2016-01-10T08:49:02Z</time>
      </trkpt>
      <trkpt lat="46.42066" lon="5.37928">
        <ele>454.79998779297</ele>
        <time>2016-01-10T08:49:04Z</time>
      </trkpt>
      <trkpt lat="46.42064" lon="5.37916">
        <ele>455.79998779297</ele>
        <time>2016-01-10T08:49:07Z</time>
      </trkpt>
      <trkpt lat="46.42063" lon="5.37912">
        <ele>456.20001220703</ele>
        <time>2016-01-10T08:49:08Z</time>
      </trkpt>
      <trkpt lat="46.42061" lon="5.37893">
        <ele>457</ele>
        <time>2016-01-10T08:49:12Z</time>
      </trkpt>
      <trkpt lat="46.42059" lon="5.37881">
        <ele>458.40002441406</ele>
        <time>2016-01-10T08:49:14Z</time>
      </trkpt>
      <trkpt lat="46.42058" lon="5.37871">
        <ele>459.20001220703</ele>
        <time>2016-01-10T08:49:16Z</time>
      </trkpt>
      <trkpt lat="46.42057" lon="5.37864">
        <ele>459.79998779297</ele>
        <time>2016-01-10T08:49:17Z</time>
      </trkpt>
      <trkpt lat="46.42054" lon="5.37847">
        <ele>461.20001220703</ele>
        <time>2016-01-10T08:49:20Z</time>
      </trkpt>
      <trkpt lat="46.42052" lon="5.37839">
        <ele>462.20001220703</ele>
        <time>2016-01-10T08:49:22Z</time>
      </trkpt>
      <trkpt lat="46.42052" lon="5.37834">
        <ele>462.59997558594</ele>
        <time>2016-01-10T08:49:23Z</time>
      </trkpt>
      <trkpt lat="46.42051" lon="5.37829">
        <ele>463.20001220703</ele>
        <time>2016-01-10T08:49:24Z</time>
      </trkpt>
      <trkpt lat="46.42051" lon="5.37801">
        <ele>464.40002441406</ele>
        <time>2016-01-10T08:49:30Z</time>
      </trkpt>
      <trkpt lat="46.42053" lon="5.37771">
        <ele>467</ele>
        <time>2016-01-10T08:49:36Z</time>
      </trkpt>
      <trkpt lat="46.42053" lon="5.37763">
        <ele>468.59997558594</ele>
        <time>2016-01-10T08:49:37Z</time>
      </trkpt>
      <trkpt lat="46.42054" lon="5.37755">
        <ele>470.20001220703</ele>
        <time>2016-01-10T08:49:38Z</time>
      </trkpt>
      <trkpt lat="46.42055" lon="5.37749">
        <ele>471.79998779297</ele>
        <time>2016-01-10T08:49:39Z</time>
      </trkpt>
      <trkpt lat="46.42056" lon="5.37744">
        <ele>473</ele>
        <time>2016-01-10T08:49:40Z</time>
      </trkpt>
      <trkpt lat="46.42058" lon="5.3774">
        <ele>474.79998779297</ele>
        <time>2016-01-10T08:49:41Z</time>
      </trkpt>
      <trkpt lat="46.42062" lon="5.37736">
        <ele>476</ele>
        <time>2016-01-10T08:49:42Z</time>
      </trkpt>
      <trkpt lat="46.42068" lon="5.37732">
        <ele>477.59997558594</ele>
        <time>2016-01-10T08:49:43Z</time>
      </trkpt>
      <trkpt lat="46.42073" lon="5.3773">
        <ele>479</ele>
        <time>2016-01-10T08:49:44Z</time>
      </trkpt>
      <trkpt lat="46.42074" lon="5.37721">
        <ele>482.20001220703</ele>
        <time>2016-01-10T08:49:45Z</time>
      </trkpt>
      <trkpt lat="46.42075" lon="5.37714">
        <ele>485.20001220703</ele>
        <time>2016-01-10T08:49:46Z</time>
      </trkpt>
      <trkpt lat="46.42077" lon="5.37707">
        <ele>487.79998779297</ele>
        <time>2016-01-10T08:49:47Z</time>
      </trkpt>
      <trkpt lat="46.42079" lon="5.37702">
        <ele>490.20001220703</ele>
        <time>2016-01-10T08:49:48Z</time>
      </trkpt>
      <trkpt lat="46.42081" lon="5.37697">
        <ele>492.79998779297</ele>
        <time>2016-01-10T08:49:49Z</time>
      </trkpt>
      <trkpt lat="46.42083" lon="5.37692">
        <ele>494.79998779297</ele>
        <time>2016-01-10T08:49:50Z</time>
      </trkpt>
      <trkpt lat="46.42086" lon="5.37687">
        <ele>497</ele>
        <time>2016-01-10T08:49:51Z</time>
      </trkpt>
      <trkpt lat="46.42088" lon="5.37684">
        <ele>499</ele>
        <time>2016-01-10T08:49:52Z</time>
      </trkpt>
      <trkpt lat="46.4209" lon="5.3768">
        <ele>500.79998779297</ele>
        <time>2016-01-10T08:49:53Z</time>
      </trkpt>
      <trkpt lat="46.42093" lon="5.37677">
        <ele>502.59997558594</ele>
        <time>2016-01-10T08:49:54Z</time>
      </trkpt>
      <trkpt lat="46.42096" lon="5.37673">
        <ele>504.40002441406</ele>
        <time>2016-01-10T08:49:55Z</time>
      </trkpt>
      <trkpt lat="46.42099" lon="5.37671">
        <ele>506</ele>
        <time>2016-01-10T08:49:56Z</time>
      </trkpt>
      <trkpt lat="46.42102" lon="5.37669">
        <ele>507.40002441406</ele>
        <time>2016-01-10T08:49:57Z</time>
      </trkpt>
      <trkpt lat="46.42105" lon="5.37667">
        <ele>508.59997558594</ele>
        <time>2016-01-10T08:49:58Z</time>
      </trkpt>
      <trkpt lat="46.42108" lon="5.37664">
        <ele>510</ele>
        <time>2016-01-10T08:49:59Z</time>
      </trkpt>
      <trkpt lat="46.42111" lon="5.37658">
        <ele>510.40002441406</ele>
        <time>2016-01-10T08:50:01Z</time>
      </trkpt>
      <trkpt lat="46.42122" lon="5.37633">
        <ele>511</ele>
        <time>2016-01-10T08:50:08Z</time>
      </trkpt>
      <trkpt lat="46.42123" lon="5.3763">
        <ele>511</ele>
        <time>2016-01-10T08:50:09Z</time>
      </trkpt>
      <trkpt lat="46.42128" lon="5.37612">
        <ele>511.40002441406</ele>
        <time>2016-01-10T08:50:15Z</time>
      </trkpt>
      <trkpt lat="46.42125" lon="5.37588">
        <ele>511.59997558594</ele>
        <time>2016-01-10T08:50:23Z</time>
      </trkpt>
      <trkpt lat="46.42132" lon="5.37576">
        <ele>518.79998779297</ele>
        <time>2016-01-10T08:50:29Z</time>
      </trkpt>
      <trkpt lat="46.42131" lon="5.37571">
        <ele>519.40002441406</ele>
        <time>2016-01-10T08:50:30Z</time>
      </trkpt>
      <trkpt lat="46.42128" lon="5.37562">
        <ele>519.79998779297</ele>
        <time>2016-01-10T08:50:32Z</time>
      </trkpt>
      <trkpt lat="46.42113" lon="5.37534">
        <ele>519</ele>
        <time>2016-01-10T08:50:40Z</time>
      </trkpt>
      <trkpt lat="46.42105" lon="5.37528">
        <ele>518.79998779297</ele>
        <time>2016-01-10T08:50:43Z</time>
      </trkpt>
      <trkpt lat="46.42096" lon="5.3752">
        <ele>518.20001220703</ele>
        <time>2016-01-10T08:50:47Z</time>
      </trkpt>
      <trkpt lat="46.42091" lon="5.37515">
        <ele>517.79998779297</ele>
        <time>2016-01-10T08:50:50Z</time>
      </trkpt>
      <trkpt lat="46.42083" lon="5.37505">
        <ele>517</ele>
        <time>2016-01-10T08:50:55Z</time>
      </trkpt>
      <trkpt lat="46.42081" lon="5.37498">
        <ele>516.40002441406</ele>
        <time>2016-01-10T08:50:57Z</time>
      </trkpt>
      <trkpt lat="46.4208" lon="5.37482">
        <ele>515.20001220703</ele>
        <time>2016-01-10T08:51:01Z</time>
      </trkpt>
      <trkpt lat="46.4208" lon="5.37479">
        <ele>515</ele>
        <time>2016-01-10T08:51:02Z</time>
      </trkpt>
      <trkpt lat="46.42078" lon="5.37448">
        <ele>514.59997558594</ele>
        <time>2016-01-10T08:51:10Z</time>
      </trkpt>
      <trkpt lat="46.42072" lon="5.37426">
        <ele>514.79998779297</ele>
        <time>2016-01-10T08:51:16Z</time>
      </trkpt>
      <trkpt lat="46.4205" lon="5.37394">
        <ele>515.40002441406</ele>
        <time>2016-01-10T08:51:25Z</time>
      </trkpt>
      <trkpt lat="46.42032" lon="5.37388">
        <ele>515.20001220703</ele>
        <time>2016-01-10T08:51:32Z</time>
      </trkpt>
      <trkpt lat="46.42011" lon="5.37387">
        <ele>515</ele>
        <time>2016-01-10T08:51:41Z</time>
      </trkpt>
      <trkpt lat="46.41979" lon="5.37382">
        <ele>515</ele>
        <time>2016-01-10T08:51:52Z</time>
      </trkpt>
      <trkpt lat="46.41956" lon="5.37373">
        <ele>515</ele>
        <time>2016-01-10T08:52:00Z</time>
      </trkpt>
      <trkpt lat="46.41935" lon="5.37364">
        <ele>515.20001220703</ele>
        <time>2016-01-10T08:52:08Z</time>
      </trkpt>
      <trkpt lat="46.41918" lon="5.37351">
        <ele>515.20001220703</ele>
        <time>2016-01-10T08:52:15Z</time>
      </trkpt>
      <trkpt lat="46.41904" lon="5.37324">
        <ele>514.79998779297</ele>
        <time>2016-01-10T08:52:23Z</time>
      </trkpt>
      <trkpt lat="46.41897" lon="5.37301">
        <ele>514.20001220703</ele>
        <time>2016-01-10T08:52:29Z</time>
      </trkpt>
      <trkpt lat="46.41896" lon="5.37294">
        <ele>514</ele>
        <time>2016-01-10T08:52:31Z</time>
      </trkpt>
      <trkpt lat="46.41887" lon="5.37272">
        <ele>513.59997558594</ele>
        <time>2016-01-10T08:52:38Z</time>
      </trkpt>
      <trkpt lat="46.4187" lon="5.37245">
        <ele>513.59997558594</ele>
        <time>2016-01-10T08:52:47Z</time>
      </trkpt>
      <trkpt lat="46.41854" lon="5.37228">
        <ele>513.59997558594</ele>
        <time>2016-01-10T08:52:55Z</time>
      </trkpt>
      <trkpt lat="46.41843" lon="5.37214">
        <ele>513.20001220703</ele>
        <time>2016-01-10T08:53:01Z</time>
      </trkpt>
      <trkpt lat="46.41839" lon="5.3721">
        <ele>512.79998779297</ele>
        <time>2016-01-10T08:53:03Z</time>
      </trkpt>
      <trkpt lat="46.41819" lon="5.3719">
        <ele>513</ele>
        <time>2016-01-10T08:53:12Z</time>
      </trkpt>
      <trkpt lat="46.41803" lon="5.37173">
        <ele>512.79998779297</ele>
        <time>2016-01-10T08:53:19Z</time>
      </trkpt>
      <trkpt lat="46.41783" lon="5.37157">
        <ele>513.20001220703</ele>
        <time>2016-01-10T08:53:26Z</time>
      </trkpt>
      <trkpt lat="46.41764" lon="5.37148">
        <ele>513.40002441406</ele>
        <time>2016-01-10T08:53:34Z</time>
      </trkpt>
      <trkpt lat="46.41751" lon="5.37147">
        <ele>513.59997558594</ele>
        <time>2016-01-10T08:53:41Z</time>
      </trkpt>
      <trkpt lat="46.41728" lon="5.37147">
        <ele>513.20001220703</ele>
        <time>2016-01-10T08:53:49Z</time>
      </trkpt>
      <trkpt lat="46.41708" lon="5.37152">
        <ele>513.20001220703</ele>
        <time>2016-01-10T08:53:56Z</time>
      </trkpt>
      <trkpt lat="46.4169" lon="5.37149">
        <ele>513.20001220703</ele>
        <time>2016-01-10T08:54:04Z</time>
      </trkpt>
      <trkpt lat="46.41673" lon="5.37141">
        <ele>513.59997558594</ele>
        <time>2016-01-10T08:54:13Z</time>
      </trkpt>
      <trkpt lat="46.4166" lon="5.37136">
        <ele>513.79998779297</ele>
        <time>2016-01-10T08:54:20Z</time>
      </trkpt>
      <trkpt lat="46.41638" lon="5.37126">
        <ele>514</ele>
        <time>2016-01-10T08:54:29Z</time>
      </trkpt>
      <trkpt lat="46.41621" lon="5.3712">
        <ele>513.59997558594</ele>
        <time>2016-01-10T08:54:37Z</time>
      </trkpt>
      <trkpt lat="46.41603" lon="5.37109">
        <ele>513.40002441406</ele>
        <time>2016-01-10T08:54:45Z</time>
      </trkpt>
      <trkpt lat="46.41583" lon="5.37098">
        <ele>512.59997558594</ele>
        <time>2016-01-10T08:54:54Z</time>
      </trkpt>
      <trkpt lat="46.4156" lon="5.37084">
        <ele>513.40002441406</ele>
        <time>2016-01-10T08:55:04Z</time>
      </trkpt>
      <trkpt lat="46.41555" lon="5.37081">
        <ele>514.79998779297</ele>
        <time>2016-01-10T08:55:06Z</time>
      </trkpt>
      <trkpt lat="46.41554" lon="5.37079">
        <ele>515.79998779297</ele>
        <time>2016-01-10T08:55:07Z</time>
      </trkpt>
      <trkpt lat="46.41549" lon="5.3707">
        <ele>520</ele>
        <time>2016-01-10T08:55:09Z</time>
      </trkpt>
      <trkpt lat="46.41546" lon="5.37064">
        <ele>523</ele>
        <time>2016-01-10T08:55:10Z</time>
      </trkpt>
      <trkpt lat="46.41543" lon="5.37059">
        <ele>525</ele>
        <time>2016-01-10T08:55:11Z</time>
      </trkpt>
      <trkpt lat="46.41537" lon="5.37051">
        <ele>526.40002441406</ele>
        <time>2016-01-10T08:55:15Z</time>
      </trkpt>
      <trkpt lat="46.41534" lon="5.37047">
        <ele>527.59997558594</ele>
        <time>2016-01-10T08:55:16Z</time>
      </trkpt>
      <trkpt lat="46.41526" lon="5.37038">
        <ele>529</ele>
        <time>2016-01-10T08:55:19Z</time>
      </trkpt>
      <trkpt lat="46.41511" lon="5.37028">
        <ele>527.59997558594</ele>
        <time>2016-01-10T08:55:25Z</time>
      </trkpt>
      <trkpt lat="46.41509" lon="5.37029">
        <ele>527.19995117188</ele>
        <time>2016-01-10T08:55:26Z</time>
      </trkpt>
      <trkpt lat="46.41507" lon="5.3703">
        <ele>526.40002441406</ele>
        <time>2016-01-10T08:55:27Z</time>
      </trkpt>
      <trkpt lat="46.41504" lon="5.37031">
        <ele>525.59997558594</ele>
        <time>2016-01-10T08:55:29Z</time>
      </trkpt>
      <trkpt lat="46.41502" lon="5.37032">
        <ele>525</ele>
        <time>2016-01-10T08:55:30Z</time>
      </trkpt>
      <trkpt lat="46.41498" lon="5.37034">
        <ele>524</ele>
        <time>2016-01-10T08:55:32Z</time>
      </trkpt>
      <trkpt lat="46.41496" lon="5.37035">
        <ele>523.59997558594</ele>
        <time>2016-01-10T08:55:33Z</time>
      </trkpt>
      <trkpt lat="46.41494" lon="5.37036">
        <ele>523</ele>
        <time>2016-01-10T08:55:34Z</time>
      </trkpt>
      <trkpt lat="46.4149" lon="5.37039">
        <ele>522</ele>
        <time>2016-01-10T08:55:36Z</time>
      </trkpt>
      <trkpt lat="46.41488" lon="5.37041">
        <ele>520.79998779297</ele>
        <time>2016-01-10T08:55:38Z</time>
      </trkpt>
      <trkpt lat="46.41481" lon="5.37047">
        <ele>520.59997558594</ele>
        <time>2016-01-10T08:55:41Z</time>
      </trkpt>
      <trkpt lat="46.41464" lon="5.37057">
        <ele>521.20001220703</ele>
        <time>2016-01-10T08:55:47Z</time>
      </trkpt>
      <trkpt lat="46.41448" lon="5.37068">
        <ele>520.79998779297</ele>
        <time>2016-01-10T08:55:54Z</time>
      </trkpt>
      <trkpt lat="46.41427" lon="5.37082">
        <ele>520</ele>
        <time>2016-01-10T08:56:02Z</time>
      </trkpt>
      <trkpt lat="46.41425" lon="5.37083">
        <ele>519.40002441406</ele>
        <time>2016-01-10T08:56:03Z</time>
      </trkpt>
      <trkpt lat="46.41422" lon="5.37084">
        <ele>518.20001220703</ele>
        <time>2016-01-10T08:56:05Z</time>
      </trkpt>
      <trkpt lat="46.41419" lon="5.37086">
        <ele>517</ele>
        <time>2016-01-10T08:56:07Z</time>
      </trkpt>
      <trkpt lat="46.41414" lon="5.37089">
        <ele>515.79998779297</ele>
        <time>2016-01-10T08:56:09Z</time>
      </trkpt>
      <trkpt lat="46.4141" lon="5.37093">
        <ele>514.79998779297</ele>
        <time>2016-01-10T08:56:11Z</time>
      </trkpt>
      <trkpt lat="46.41406" lon="5.37097">
        <ele>513.59997558594</ele>
        <time>2016-01-10T08:56:13Z</time>
      </trkpt>
      <trkpt lat="46.41401" lon="5.37101">
        <ele>512.40002441406</ele>
        <time>2016-01-10T08:56:15Z</time>
      </trkpt>
      <trkpt lat="46.41397" lon="5.37105">
        <ele>511.20001220703</ele>
        <time>2016-01-10T08:56:17Z</time>
      </trkpt>
      <trkpt lat="46.41393" lon="5.37109">
        <ele>510</ele>
        <time>2016-01-10T08:56:19Z</time>
      </trkpt>
      <trkpt lat="46.41389" lon="5.37113">
        <ele>508.79998779297</ele>
        <time>2016-01-10T08:56:21Z</time>
      </trkpt>
      <trkpt lat="46.41385" lon="5.37116">
        <ele>507.59997558594</ele>
        <time>2016-01-10T08:56:23Z</time>
      </trkpt>
      <trkpt lat="46.41381" lon="5.37119">
        <ele>506.20001220703</ele>
        <time>2016-01-10T08:56:25Z</time>
      </trkpt>
      <trkpt lat="46.41377" lon="5.37121">
        <ele>505</ele>
        <time>2016-01-10T08:56:27Z</time>
      </trkpt>
      <trkpt lat="46.41374" lon="5.37123">
        <ele>503.79998779297</ele>
        <time>2016-01-10T08:56:29Z</time>
      </trkpt>
      <trkpt lat="46.41372" lon="5.37124">
        <ele>503</ele>
        <time>2016-01-10T08:56:30Z</time>
      </trkpt>
      <trkpt lat="46.4137" lon="5.37124">
        <ele>502.40002441406</ele>
        <time>2016-01-10T08:56:31Z</time>
      </trkpt>
      <trkpt lat="46.41367" lon="5.37125">
        <ele>501</ele>
        <time>2016-01-10T08:56:33Z</time>
      </trkpt>
      <trkpt lat="46.41362" lon="5.37126">
        <ele>499.79998779297</ele>
        <time>2016-01-10T08:56:35Z</time>
      </trkpt>
      <trkpt lat="46.41358" lon="5.37126">
        <ele>498.59997558594</ele>
        <time>2016-01-10T08:56:37Z</time>
      </trkpt>
      <trkpt lat="46.41354" lon="5.37125">
        <ele>497.40002441406</ele>
        <time>2016-01-10T08:56:39Z</time>
      </trkpt>
      <trkpt lat="46.41352" lon="5.37125">
        <ele>496.79998779297</ele>
        <time>2016-01-10T08:56:40Z</time>
      </trkpt>
      <trkpt lat="46.4135" lon="5.37125">
        <ele>496</ele>
        <time>2016-01-10T08:56:41Z</time>
      </trkpt>
      <trkpt lat="46.41347" lon="5.37125">
        <ele>494.59997558594</ele>
        <time>2016-01-10T08:56:43Z</time>
      </trkpt>
      <trkpt lat="46.41342" lon="5.37126">
        <ele>493.20001220703</ele>
        <time>2016-01-10T08:56:45Z</time>
      </trkpt>
      <trkpt lat="46.41338" lon="5.37126">
        <ele>491.79998779297</ele>
        <time>2016-01-10T08:56:47Z</time>
      </trkpt>
      <trkpt lat="46.41335" lon="5.37126">
        <ele>491.20001220703</ele>
        <time>2016-01-10T08:56:48Z</time>
      </trkpt>
      <trkpt lat="46.41334" lon="5.37126">
        <ele>490.59997558594</ele>
        <time>2016-01-10T08:56:49Z</time>
      </trkpt>
      <trkpt lat="46.4133" lon="5.37128">
        <ele>489.40002441406</ele>
        <time>2016-01-10T08:56:51Z</time>
      </trkpt>
      <trkpt lat="46.41326" lon="5.37131">
        <ele>488.20001220703</ele>
        <time>2016-01-10T08:56:53Z</time>
      </trkpt>
      <trkpt lat="46.41322" lon="5.37134">
        <ele>487.20001220703</ele>
        <time>2016-01-10T08:56:55Z</time>
      </trkpt>
      <trkpt lat="46.41318" lon="5.37136">
        <ele>486.20001220703</ele>
        <time>2016-01-10T08:56:57Z</time>
      </trkpt>
      <trkpt lat="46.41316" lon="5.37138">
        <ele>485.59997558594</ele>
        <time>2016-01-10T08:56:58Z</time>
      </trkpt>
      <trkpt lat="46.41314" lon="5.37141">
        <ele>485.20001220703</ele>
        <time>2016-01-10T08:56:59Z</time>
      </trkpt>
      <trkpt lat="46.41312" lon="5.37143">
        <ele>484.59997558594</ele>
        <time>2016-01-10T08:57:00Z</time>
      </trkpt>
      <trkpt lat="46.4131" lon="5.37145">
        <ele>484</ele>
        <time>2016-01-10T08:57:01Z</time>
      </trkpt>
      <trkpt lat="46.41305" lon="5.37149">
        <ele>483</ele>
        <time>2016-01-10T08:57:03Z</time>
      </trkpt>
      <trkpt lat="46.41301" lon="5.37155">
        <ele>481.79998779297</ele>
        <time>2016-01-10T08:57:05Z</time>
      </trkpt>
      <trkpt lat="46.41296" lon="5.37159">
        <ele>481</ele>
        <time>2016-01-10T08:57:07Z</time>
      </trkpt>
      <trkpt lat="46.41294" lon="5.37161">
        <ele>480.40002441406</ele>
        <time>2016-01-10T08:57:08Z</time>
      </trkpt>
      <trkpt lat="46.41286" lon="5.37164">
        <ele>479</ele>
        <time>2016-01-10T08:57:11Z</time>
      </trkpt>
      <trkpt lat="46.41282" lon="5.37165">
        <ele>478</ele>
        <time>2016-01-10T08:57:13Z</time>
      </trkpt>
      <trkpt lat="46.41278" lon="5.37166">
        <ele>477.20001220703</ele>
        <time>2016-01-10T08:57:15Z</time>
      </trkpt>
      <trkpt lat="46.41275" lon="5.37166">
        <ele>476.79998779297</ele>
        <time>2016-01-10T08:57:16Z</time>
      </trkpt>
      <trkpt lat="46.41269" lon="5.37165">
        <ele>475.79998779297</ele>
        <time>2016-01-10T08:57:19Z</time>
      </trkpt>
      <trkpt lat="46.41262" lon="5.37164">
        <ele>474.79998779297</ele>
        <time>2016-01-10T08:57:22Z</time>
      </trkpt>
      <trkpt lat="46.41258" lon="5.37164">
        <ele>473.59997558594</ele>
        <time>2016-01-10T08:57:24Z</time>
      </trkpt>
      <trkpt lat="46.41253" lon="5.37167">
        <ele>472.20001220703</ele>
        <time>2016-01-10T08:57:27Z</time>
      </trkpt>
      <trkpt lat="46.41247" lon="5.37171">
        <ele>470.79998779297</ele>
        <time>2016-01-10T08:57:30Z</time>
      </trkpt>
      <trkpt lat="46.41243" lon="5.37174">
        <ele>470</ele>
        <time>2016-01-10T08:57:32Z</time>
      </trkpt>
      <trkpt lat="46.4124" lon="5.37175">
        <ele>469.59997558594</ele>
        <time>2016-01-10T08:57:33Z</time>
      </trkpt>
      <trkpt lat="46.41222" lon="5.37177">
        <ele>470</ele>
        <time>2016-01-10T08:57:40Z</time>
      </trkpt>
      <trkpt lat="46.41213" lon="5.37177">
        <ele>470.79998779297</ele>
        <time>2016-01-10T08:57:43Z</time>
      </trkpt>
      <trkpt lat="46.41203" lon="5.37178">
        <ele>471.79998779297</ele>
        <time>2016-01-10T08:57:47Z</time>
      </trkpt>
      <trkpt lat="46.412" lon="5.37178">
        <ele>472.20001220703</ele>
        <time>2016-01-10T08:57:48Z</time>
      </trkpt>
      <trkpt lat="46.41192" lon="5.37178">
        <ele>473</ele>
        <time>2016-01-10T08:57:51Z</time>
      </trkpt>
      <trkpt lat="46.41182" lon="5.37176">
        <ele>474.20001220703</ele>
        <time>2016-01-10T08:57:56Z</time>
      </trkpt>
      <trkpt lat="46.4118" lon="5.37177">
        <ele>474.59997558594</ele>
        <time>2016-01-10T08:57:57Z</time>
      </trkpt>
      <trkpt lat="46.41174" lon="5.3718">
        <ele>475.40002441406</ele>
        <time>2016-01-10T08:58:00Z</time>
      </trkpt>
      <trkpt lat="46.41166" lon="5.37183">
        <ele>476.59997558594</ele>
        <time>2016-01-10T08:58:04Z</time>
      </trkpt>
      <trkpt lat="46.41164" lon="5.37183">
        <ele>476.79998779297</ele>
        <time>2016-01-10T08:58:05Z</time>
      </trkpt>
      <trkpt lat="46.41159" lon="5.37184">
        <ele>477.59997558594</ele>
        <time>2016-01-10T08:58:07Z</time>
      </trkpt>
      <trkpt lat="46.41151" lon="5.37185">
        <ele>478.79998779297</ele>
        <time>2016-01-10T08:58:10Z</time>
      </trkpt>
      <trkpt lat="46.41141" lon="5.37183">
        <ele>480</ele>
        <time>2016-01-10T08:58:14Z</time>
      </trkpt>
      <trkpt lat="46.41133" lon="5.37178">
        <ele>481</ele>
        <time>2016-01-10T08:58:17Z</time>
      </trkpt>
      <trkpt lat="46.41126" lon="5.37173">
        <ele>482</ele>
        <time>2016-01-10T08:58:20Z</time>
      </trkpt>
      <trkpt lat="46.41117" lon="5.37165">
        <ele>483.40002441406</ele>
        <time>2016-01-10T08:58:24Z</time>
      </trkpt>
      <trkpt lat="46.41105" lon="5.37159">
        <ele>484.59997558594</ele>
        <time>2016-01-10T08:58:29Z</time>
      </trkpt>
      <trkpt lat="46.41096" lon="5.37157">
        <ele>486</ele>
        <time>2016-01-10T08:58:33Z</time>
      </trkpt>
      <trkpt lat="46.41088" lon="5.37155">
        <ele>487.20001220703</ele>
        <time>2016-01-10T08:58:36Z</time>
      </trkpt>
      <trkpt lat="46.41077" lon="5.37148">
        <ele>488.59997558594</ele>
        <time>2016-01-10T08:58:40Z</time>
      </trkpt>
      <trkpt lat="46.41074" lon="5.37147">
        <ele>489</ele>
        <time>2016-01-10T08:58:41Z</time>
      </trkpt>
      <trkpt lat="46.41068" lon="5.37144">
        <ele>489.79998779297</ele>
        <time>2016-01-10T08:58:43Z</time>
      </trkpt>
      <trkpt lat="46.41061" lon="5.37139">
        <ele>490.79998779297</ele>
        <time>2016-01-10T08:58:46Z</time>
      </trkpt>
      <trkpt lat="46.4105" lon="5.37135">
        <ele>492.20001220703</ele>
        <time>2016-01-10T08:58:50Z</time>
      </trkpt>
      <trkpt lat="46.41038" lon="5.3713">
        <ele>493.40002441406</ele>
        <time>2016-01-10T08:58:54Z</time>
      </trkpt>
      <trkpt lat="46.4103" lon="5.37126">
        <ele>494.59997558594</ele>
        <time>2016-01-10T08:58:57Z</time>
      </trkpt>
      <trkpt lat="46.4102" lon="5.37122">
        <ele>495.79998779297</ele>
        <time>2016-01-10T08:59:00Z</time>
      </trkpt>
      <trkpt lat="46.41012" lon="5.37116">
        <ele>497.40002441406</ele>
        <time>2016-01-10T08:59:03Z</time>
      </trkpt>
      <trkpt lat="46.41008" lon="5.37113">
        <ele>499.40002441406</ele>
        <time>2016-01-10T08:59:04Z</time>
      </trkpt>
      <trkpt lat="46.41004" lon="5.3711">
        <ele>500.79998779297</ele>
        <time>2016-01-10T08:59:05Z</time>
      </trkpt>
      <trkpt lat="46.41001" lon="5.37107">
        <ele>502</ele>
        <time>2016-01-10T08:59:06Z</time>
      </trkpt>
      <trkpt lat="46.40995" lon="5.37102">
        <ele>504</ele>
        <time>2016-01-10T08:59:08Z</time>
      </trkpt>
      <trkpt lat="46.40989" lon="5.37097">
        <ele>505.59997558594</ele>
        <time>2016-01-10T08:59:10Z</time>
      </trkpt>
      <trkpt lat="46.40984" lon="5.37094">
        <ele>507</ele>
        <time>2016-01-10T08:59:12Z</time>
      </trkpt>
      <trkpt lat="46.40978" lon="5.3709">
        <ele>508.59997558594</ele>
        <time>2016-01-10T08:59:14Z</time>
      </trkpt>
      <trkpt lat="46.40969" lon="5.37083">
        <ele>509.59997558594</ele>
        <time>2016-01-10T08:59:18Z</time>
      </trkpt>
      <trkpt lat="46.40963" lon="5.3708">
        <ele>510.20001220703</ele>
        <time>2016-01-10T08:59:20Z</time>
      </trkpt>
      <trkpt lat="46.40946" lon="5.37074">
        <ele>511</ele>
        <time>2016-01-10T08:59:27Z</time>
      </trkpt>
      <trkpt lat="46.40927" lon="5.37067">
        <ele>512.40002441406</ele>
        <time>2016-01-10T08:59:34Z</time>
      </trkpt>
      <trkpt lat="46.40918" lon="5.37061">
        <ele>513.59997558594</ele>
        <time>2016-01-10T08:59:38Z</time>
      </trkpt>
      <trkpt lat="46.40907" lon="5.37056">
        <ele>514.59997558594</ele>
        <time>2016-01-10T08:59:42Z</time>
      </trkpt>
      <trkpt lat="46.40902" lon="5.37054">
        <ele>514.79998779297</ele>
        <time>2016-01-10T08:59:44Z</time>
      </trkpt>
      <trkpt lat="46.40893" lon="5.37047">
        <ele>516</ele>
        <time>2016-01-10T08:59:48Z</time>
      </trkpt>
      <trkpt lat="46.40887" lon="5.37045">
        <ele>515.79998779297</ele>
        <time>2016-01-10T08:59:51Z</time>
      </trkpt>
      <trkpt lat="46.40869" lon="5.37034">
        <ele>515.79998779297</ele>
        <time>2016-01-10T08:59:58Z</time>
      </trkpt>
      <trkpt lat="46.40853" lon="5.37021">
        <ele>515.59997558594</ele>
        <time>2016-01-10T09:00:05Z</time>
      </trkpt>
      <trkpt lat="46.40843" lon="5.37016">
        <ele>514.59997558594</ele>
        <time>2016-01-10T09:00:10Z</time>
      </trkpt>
      <trkpt lat="46.40841" lon="5.37014">
        <ele>514.20001220703</ele>
        <time>2016-01-10T09:00:11Z</time>
      </trkpt>
      <trkpt lat="46.40836" lon="5.37011">
        <ele>513.59997558594</ele>
        <time>2016-01-10T09:00:13Z</time>
      </trkpt>
      <trkpt lat="46.40825" lon="5.37007">
        <ele>512.79998779297</ele>
        <time>2016-01-10T09:00:18Z</time>
      </trkpt>
      <trkpt lat="46.40808" lon="5.36996">
        <ele>512.59997558594</ele>
        <time>2016-01-10T09:00:26Z</time>
      </trkpt>
      <trkpt lat="46.40806" lon="5.36994">
        <ele>512.59997558594</ele>
        <time>2016-01-10T09:00:27Z</time>
      </trkpt>
      <trkpt lat="46.40798" lon="5.36984">
        <ele>513.79998779297</ele>
        <time>2016-01-10T09:00:30Z</time>
      </trkpt>
      <trkpt lat="46.40793" lon="5.36971">
        <ele>514.59997558594</ele>
        <time>2016-01-10T09:00:33Z</time>
      </trkpt>
      <trkpt lat="46.40791" lon="5.36967">
        <ele>514.79998779297</ele>
        <time>2016-01-10T09:00:34Z</time>
      </trkpt>
      <trkpt lat="46.40786" lon="5.36955">
        <ele>516</ele>
        <time>2016-01-10T09:00:37Z</time>
      </trkpt>
      <trkpt lat="46.40776" lon="5.36932">
        <ele>516.59997558594</ele>
        <time>2016-01-10T09:00:43Z</time>
      </trkpt>
      <trkpt lat="46.40772" lon="5.36922">
        <ele>517</ele>
        <time>2016-01-10T09:00:46Z</time>
      </trkpt>
      <trkpt lat="46.40763" lon="5.36903">
        <ele>517.20001220703</ele>
        <time>2016-01-10T09:00:51Z</time>
      </trkpt>
      <trkpt lat="46.40755" lon="5.36888">
        <ele>517</ele>
        <time>2016-01-10T09:00:56Z</time>
      </trkpt>
      <trkpt lat="46.40744" lon="5.36868">
        <ele>517.79998779297</ele>
        <time>2016-01-10T09:01:02Z</time>
      </trkpt>
      <trkpt lat="46.40736" lon="5.3685">
        <ele>517.79998779297</ele>
        <time>2016-01-10T09:01:07Z</time>
      </trkpt>
      <trkpt lat="46.40725" lon="5.36825">
        <ele>517</ele>
        <time>2016-01-10T09:01:15Z</time>
      </trkpt>
      <trkpt lat="46.40715" lon="5.36805">
        <ele>516.20001220703</ele>
        <time>2016-01-10T09:01:22Z</time>
      </trkpt>
      <trkpt lat="46.4071" lon="5.36793">
        <ele>515.79998779297</ele>
        <time>2016-01-10T09:01:26Z</time>
      </trkpt>
      <trkpt lat="46.40705" lon="5.36785">
        <ele>515.59997558594</ele>
        <time>2016-01-10T09:01:29Z</time>
      </trkpt>
      <trkpt lat="46.40687" lon="5.36762">
        <ele>515.40002441406</ele>
        <time>2016-01-10T09:01:38Z</time>
      </trkpt>
      <trkpt lat="46.40679" lon="5.36754">
        <ele>514.79998779297</ele>
        <time>2016-01-10T09:01:42Z</time>
      </trkpt>
      <trkpt lat="46.40668" lon="5.36751">
        <ele>514.79998779297</ele>
        <time>2016-01-10T09:01:47Z</time>
      </trkpt>
      <trkpt lat="46.40652" lon="5.36749">
        <ele>515.79998779297</ele>
        <time>2016-01-10T09:01:53Z</time>
      </trkpt>
      <trkpt lat="46.40645" lon="5.36748">
        <ele>516.40002441406</ele>
        <time>2016-01-10T09:01:56Z</time>
      </trkpt>
      <trkpt lat="46.40627" lon="5.36743">
        <ele>517</ele>
        <time>2016-01-10T09:02:04Z</time>
      </trkpt>
      <trkpt lat="46.40615" lon="5.3674">
        <ele>517</ele>
        <time>2016-01-10T09:02:10Z</time>
      </trkpt>
      <trkpt lat="46.40614" lon="5.36743">
        <ele>516.20001220703</ele>
        <time>2016-01-10T09:02:15Z</time>
      </trkpt>
      <trkpt lat="46.40615" lon="5.36746">
        <ele>515.79998779297</ele>
        <time>2016-01-10T09:02:17Z</time>
      </trkpt>
      <trkpt lat="46.40598" lon="5.36757">
        <ele>551</ele>
        <time>2016-01-10T09:02:41Z</time>
      </trkpt>
      <trkpt lat="46.40598" lon="5.36759">
        <ele>551.19995117188</ele>
        <time>2016-01-10T09:02:42Z</time>
      </trkpt>
      <trkpt lat="46.40597" lon="5.36767">
        <ele>552.40002441406</ele>
        <time>2016-01-10T09:02:46Z</time>
      </trkpt>
      <trkpt lat="46.40596" lon="5.36775">
        <ele>553.40002441406</ele>
        <time>2016-01-10T09:02:50Z</time>
      </trkpt>
      <trkpt lat="46.40595" lon="5.36782">
        <ele>554.59997558594</ele>
        <time>2016-01-10T09:02:54Z</time>
      </trkpt>
      <trkpt lat="46.40595" lon="5.36783">
        <ele>554.80004882812</ele>
        <time>2016-01-10T09:02:55Z</time>
      </trkpt>
      <trkpt lat="46.40595" lon="5.36797">
        <ele>555.80004882812</ele>
        <time>2016-01-10T09:03:03Z</time>
      </trkpt>
      <trkpt lat="46.40594" lon="5.368">
        <ele>555.80004882812</ele>
        <time>2016-01-10T09:03:04Z</time>
      </trkpt>
      <trkpt lat="46.40592" lon="5.36831">
        <ele>556.80004882812</ele>
        <time>2016-01-10T09:03:13Z</time>
      </trkpt>
      <trkpt lat="46.4059" lon="5.36847">
        <ele>558</ele>
        <time>2016-01-10T09:03:18Z</time>
      </trkpt>
      <trkpt lat="46.40589" lon="5.36861">
        <ele>559</ele>
        <time>2016-01-10T09:03:22Z</time>
      </trkpt>
      <trkpt lat="46.40588" lon="5.36868">
        <ele>559.40002441406</ele>
        <time>2016-01-10T09:03:24Z</time>
      </trkpt>
      <trkpt lat="46.40586" lon="5.36876">
        <ele>560.19995117188</ele>
        <time>2016-01-10T09:03:26Z</time>
      </trkpt>
      <trkpt lat="46.40584" lon="5.36886">
        <ele>561.40002441406</ele>
        <time>2016-01-10T09:03:29Z</time>
      </trkpt>
      <trkpt lat="46.40583" lon="5.36903">
        <ele>562.59997558594</ele>
        <time>2016-01-10T09:03:34Z</time>
      </trkpt>
      <trkpt lat="46.40583" lon="5.36917">
        <ele>563.80004882812</ele>
        <time>2016-01-10T09:03:38Z</time>
      </trkpt>
      <trkpt lat="46.40583" lon="5.36934">
        <ele>565</ele>
        <time>2016-01-10T09:03:43Z</time>
      </trkpt>
      <trkpt lat="46.40587" lon="5.36961">
        <ele>565.59997558594</ele>
        <time>2016-01-10T09:03:51Z</time>
      </trkpt>
      <trkpt lat="46.40613" lon="5.37088">
        <ele>566</ele>
        <time>2016-01-10T09:04:38Z</time>
      </trkpt>
      <trkpt lat="46.40605" lon="5.37093">
        <ele>565.80004882812</ele>
        <time>2016-01-10T09:04:41Z</time>
      </trkpt>
      <trkpt lat="46.40592" lon="5.37101">
        <ele>565.40002441406</ele>
        <time>2016-01-10T09:04:48Z</time>
      </trkpt>
      <trkpt lat="46.40577" lon="5.37101">
        <ele>565.59997558594</ele>
        <time>2016-01-10T09:04:57Z</time>
      </trkpt>
      <trkpt lat="46.40561" lon="5.37101">
        <ele>566.59997558594</ele>
        <time>2016-01-10T09:05:05Z</time>
      </trkpt>
      <trkpt lat="46.40554" lon="5.37102">
        <ele>567.40002441406</ele>
        <time>2016-01-10T09:05:09Z</time>
      </trkpt>
      <trkpt lat="46.40547" lon="5.37102">
        <ele>568</ele>
        <time>2016-01-10T09:05:13Z</time>
      </trkpt>
      <trkpt lat="46.40529" lon="5.37098">
        <ele>568.19995117188</ele>
        <time>2016-01-10T09:05:23Z</time>
      </trkpt>
      <trkpt lat="46.40525" lon="5.37097">
        <ele>568.40002441406</ele>
        <time>2016-01-10T09:05:25Z</time>
      </trkpt>
      <trkpt lat="46.40516" lon="5.37097">
        <ele>568</ele>
        <time>2016-01-10T09:05:30Z</time>
      </trkpt>
      <trkpt lat="46.40512" lon="5.37099">
        <ele>568.19995117188</ele>
        <time>2016-01-10T09:05:32Z</time>
      </trkpt>
      <trkpt lat="46.40509" lon="5.37099">
        <ele>569.59997558594</ele>
        <time>2016-01-10T09:05:33Z</time>
      </trkpt>
      <trkpt lat="46.40507" lon="5.37099">
        <ele>570.80004882812</ele>
        <time>2016-01-10T09:05:34Z</time>
      </trkpt>
      <trkpt lat="46.40501" lon="5.371">
        <ele>572.40002441406</ele>
        <time>2016-01-10T09:05:37Z</time>
      </trkpt>
      <trkpt lat="46.40498" lon="5.37101">
        <ele>573.59997558594</ele>
        <time>2016-01-10T09:05:38Z</time>
      </trkpt>
      <trkpt lat="46.40496" lon="5.37102">
        <ele>575</ele>
        <time>2016-01-10T09:05:39Z</time>
      </trkpt>
      <trkpt lat="46.40494" lon="5.37103">
        <ele>576.19995117188</ele>
        <time>2016-01-10T09:05:40Z</time>
      </trkpt>
      <trkpt lat="46.40491" lon="5.37104">
        <ele>577.59997558594</ele>
        <time>2016-01-10T09:05:41Z</time>
      </trkpt>
      <trkpt lat="46.4049" lon="5.37106">
        <ele>578.80004882812</ele>
        <time>2016-01-10T09:05:42Z</time>
      </trkpt>
      <trkpt lat="46.40488" lon="5.37109">
        <ele>580.19995117188</ele>
        <time>2016-01-10T09:05:43Z</time>
      </trkpt>
      <trkpt lat="46.40487" lon="5.37111">
        <ele>582.59997558594</ele>
        <time>2016-01-10T09:05:44Z</time>
      </trkpt>
      <trkpt lat="46.40486" lon="5.37113">
        <ele>583.59997558594</ele>
        <time>2016-01-10T09:05:45Z</time>
      </trkpt>
      <trkpt lat="46.40486" lon="5.37119">
        <ele>585.19995117188</ele>
        <time>2016-01-10T09:05:47Z</time>
      </trkpt>
      <trkpt lat="46.40488" lon="5.37129">
        <ele>585.80004882812</ele>
        <time>2016-01-10T09:05:51Z</time>
      </trkpt>
      <trkpt lat="46.40488" lon="5.37133">
        <ele>586.40002441406</ele>
        <time>2016-01-10T09:05:52Z</time>
      </trkpt>
      <trkpt lat="46.40493" lon="5.37146">
        <ele>585.80004882812</ele>
        <time>2016-01-10T09:05:57Z</time>
      </trkpt>
      <trkpt lat="46.40498" lon="5.37153">
        <ele>585.19995117188</ele>
        <time>2016-01-10T09:06:00Z</time>
      </trkpt>
      <trkpt lat="46.40504" lon="5.37165">
        <ele>583.59997558594</ele>
        <time>2016-01-10T09:06:05Z</time>
      </trkpt>
      <trkpt lat="46.40507" lon="5.3717">
        <ele>583</ele>
        <time>2016-01-10T09:06:07Z</time>
      </trkpt>
      <trkpt lat="46.40508" lon="5.37172">
        <ele>582.59997558594</ele>
        <time>2016-01-10T09:06:08Z</time>
      </trkpt>
      <trkpt lat="46.40522" lon="5.37198">
        <ele>582.59997558594</ele>
        <time>2016-01-10T09:06:17Z</time>
      </trkpt>
      <trkpt lat="46.4054" lon="5.37226">
        <ele>582.80004882812</ele>
        <time>2016-01-10T09:06:28Z</time>
      </trkpt>
      <trkpt lat="46.40556" lon="5.37257">
        <ele>581.40002441406</ele>
        <time>2016-01-10T09:06:39Z</time>
      </trkpt>
      <trkpt lat="46.40565" lon="5.37273">
        <ele>580</ele>
        <time>2016-01-10T09:06:45Z</time>
      </trkpt>
      <trkpt lat="46.40569" lon="5.37279">
        <ele>578.80004882812</ele>
        <time>2016-01-10T09:06:48Z</time>
      </trkpt>
      <trkpt lat="46.40572" lon="5.37283">
        <ele>577.59997558594</ele>
        <time>2016-01-10T09:06:50Z</time>
      </trkpt>
      <trkpt lat="46.40575" lon="5.37287">
        <ele>576.40002441406</ele>
        <time>2016-01-10T09:06:52Z</time>
      </trkpt>
      <trkpt lat="46.40578" lon="5.37289">
        <ele>575</ele>
        <time>2016-01-10T09:06:54Z</time>
      </trkpt>
      <trkpt lat="46.40581" lon="5.37291">
        <ele>573.59997558594</ele>
        <time>2016-01-10T09:06:56Z</time>
      </trkpt>
      <trkpt lat="46.40582" lon="5.37293">
        <ele>573.19995117188</ele>
        <time>2016-01-10T09:06:57Z</time>
      </trkpt>
      <trkpt lat="46.40586" lon="5.37297">
        <ele>572.19995117188</ele>
        <time>2016-01-10T09:06:59Z</time>
      </trkpt>
      <trkpt lat="46.4059" lon="5.37301">
        <ele>570.80004882812</ele>
        <time>2016-01-10T09:07:01Z</time>
      </trkpt>
      <trkpt lat="46.40594" lon="5.37314">
        <ele>569.59997558594</ele>
        <time>2016-01-10T09:07:04Z</time>
      </trkpt>
      <trkpt lat="46.40605" lon="5.37339">
        <ele>568.59997558594</ele>
        <time>2016-01-10T09:07:11Z</time>
      </trkpt>
      <trkpt lat="46.40609" lon="5.37346">
        <ele>567.80004882812</ele>
        <time>2016-01-10T09:07:14Z</time>
      </trkpt>
      <trkpt lat="46.40611" lon="5.37348">
        <ele>567.59997558594</ele>
        <time>2016-01-10T09:07:15Z</time>
      </trkpt>
      <trkpt lat="46.40619" lon="5.37357">
        <ele>566.59997558594</ele>
        <time>2016-01-10T09:07:19Z</time>
      </trkpt>
      <trkpt lat="46.40626" lon="5.37364">
        <ele>566</ele>
        <time>2016-01-10T09:07:22Z</time>
      </trkpt>
      <trkpt lat="46.4063" lon="5.37369">
        <ele>565.40002441406</ele>
        <time>2016-01-10T09:07:24Z</time>
      </trkpt>
      <trkpt lat="46.40635" lon="5.37379">
        <ele>564.40002441406</ele>
        <time>2016-01-10T09:07:27Z</time>
      </trkpt>
      <trkpt lat="46.40639" lon="5.37387">
        <ele>563.40002441406</ele>
        <time>2016-01-10T09:07:29Z</time>
      </trkpt>
      <trkpt lat="46.40644" lon="5.37398">
        <ele>562.59997558594</ele>
        <time>2016-01-10T09:07:32Z</time>
      </trkpt>
      <trkpt lat="46.40646" lon="5.37402">
        <ele>562.40002441406</ele>
        <time>2016-01-10T09:07:33Z</time>
      </trkpt>
      <trkpt lat="46.40658" lon="5.3743">
        <ele>562.40002441406</ele>
        <time>2016-01-10T09:07:41Z</time>
      </trkpt>
      <trkpt lat="46.40662" lon="5.37444">
        <ele>561.40002441406</ele>
        <time>2016-01-10T09:07:45Z</time>
      </trkpt>
      <trkpt lat="46.40665" lon="5.3746">
        <ele>559.80004882812</ele>
        <time>2016-01-10T09:07:49Z</time>
      </trkpt>
      <trkpt lat="46.40667" lon="5.37467">
        <ele>558.80004882812</ele>
        <time>2016-01-10T09:07:51Z</time>
      </trkpt>
      <trkpt lat="46.4067" lon="5.37474">
        <ele>557.59997558594</ele>
        <time>2016-01-10T09:07:53Z</time>
      </trkpt>
      <trkpt lat="46.40672" lon="5.3748">
        <ele>556</ele>
        <time>2016-01-10T09:07:55Z</time>
      </trkpt>
      <trkpt lat="46.40674" lon="5.37486">
        <ele>555.80004882812</ele>
        <time>2016-01-10T09:07:57Z</time>
      </trkpt>
      <trkpt lat="46.40676" lon="5.37492">
        <ele>555</ele>
        <time>2016-01-10T09:07:59Z</time>
      </trkpt>
      <trkpt lat="46.40678" lon="5.37498">
        <ele>553</ele>
        <time>2016-01-10T09:08:01Z</time>
      </trkpt>
      <trkpt lat="46.40678" lon="5.37502">
        <ele>551.59997558594</ele>
        <time>2016-01-10T09:08:02Z</time>
      </trkpt>
      <trkpt lat="46.40678" lon="5.37505">
        <ele>550.40002441406</ele>
        <time>2016-01-10T09:08:03Z</time>
      </trkpt>
      <trkpt lat="46.40679" lon="5.37506">
        <ele>549</ele>
        <time>2016-01-10T09:08:04Z</time>
      </trkpt>
      <trkpt lat="46.40681" lon="5.37509">
        <ele>547.59997558594</ele>
        <time>2016-01-10T09:08:05Z</time>
      </trkpt>
      <trkpt lat="46.40682" lon="5.37512">
        <ele>546.59997558594</ele>
        <time>2016-01-10T09:08:06Z</time>
      </trkpt>
      <trkpt lat="46.40685" lon="5.37523">
        <ele>545.40002441406</ele>
        <time>2016-01-10T09:08:09Z</time>
      </trkpt>
      <trkpt lat="46.40688" lon="5.37529">
        <ele>544.19995117188</ele>
        <time>2016-01-10T09:08:11Z</time>
      </trkpt>
      <trkpt lat="46.40689" lon="5.37532">
        <ele>543</ele>
        <time>2016-01-10T09:08:12Z</time>
      </trkpt>
      <trkpt lat="46.40692" lon="5.37538">
        <ele>541.40002441406</ele>
        <time>2016-01-10T09:08:14Z</time>
      </trkpt>
      <trkpt lat="46.40693" lon="5.3754">
        <ele>540</ele>
        <time>2016-01-10T09:08:15Z</time>
      </trkpt>
      <trkpt lat="46.40694" lon="5.37543">
        <ele>538.80004882812</ele>
        <time>2016-01-10T09:08:16Z</time>
      </trkpt>
      <trkpt lat="46.40696" lon="5.37548">
        <ele>537</ele>
        <time>2016-01-10T09:08:18Z</time>
      </trkpt>
      <trkpt lat="46.40699" lon="5.37553">
        <ele>535.80004882812</ele>
        <time>2016-01-10T09:08:20Z</time>
      </trkpt>
      <trkpt lat="46.407" lon="5.37556">
        <ele>535</ele>
        <time>2016-01-10T09:08:21Z</time>
      </trkpt>
      <trkpt lat="46.40702" lon="5.37559">
        <ele>534.59997558594</ele>
        <time>2016-01-10T09:08:22Z</time>
      </trkpt>
      <trkpt lat="46.40703" lon="5.37561">
        <ele>533.59997558594</ele>
        <time>2016-01-10T09:08:23Z</time>
      </trkpt>
      <trkpt lat="46.40704" lon="5.37564">
        <ele>532.40002441406</ele>
        <time>2016-01-10T09:08:24Z</time>
      </trkpt>
      <trkpt lat="46.40705" lon="5.37567">
        <ele>531.40002441406</ele>
        <time>2016-01-10T09:08:25Z</time>
      </trkpt>
      <trkpt lat="46.40706" lon="5.37569">
        <ele>530.19995117188</ele>
        <time>2016-01-10T09:08:26Z</time>
      </trkpt>
      <trkpt lat="46.40706" lon="5.37573">
        <ele>529.19995117188</ele>
        <time>2016-01-10T09:08:27Z</time>
      </trkpt>
      <trkpt lat="46.40707" lon="5.37575">
        <ele>528</ele>
        <time>2016-01-10T09:08:28Z</time>
      </trkpt>
      <trkpt lat="46.40709" lon="5.37581">
        <ele>526.19995117188</ele>
        <time>2016-01-10T09:08:30Z</time>
      </trkpt>
      <trkpt lat="46.40711" lon="5.37586">
        <ele>524.40002441406</ele>
        <time>2016-01-10T09:08:32Z</time>
      </trkpt>
      <trkpt lat="46.40714" lon="5.37591">
        <ele>524.40002441406</ele>
        <time>2016-01-10T09:08:33Z</time>
      </trkpt>
      <trkpt lat="46.40716" lon="5.37615">
        <ele>529</ele>
        <time>2016-01-10T09:08:39Z</time>
      </trkpt>
      <trkpt lat="46.40715" lon="5.3762">
        <ele>530.19995117188</ele>
        <time>2016-01-10T09:08:40Z</time>
      </trkpt>
      <trkpt lat="46.40713" lon="5.37624">
        <ele>530.59997558594</ele>
        <time>2016-01-10T09:08:41Z</time>
      </trkpt>
      <trkpt lat="46.40702" lon="5.37635">
        <ele>528.40002441406</ele>
        <time>2016-01-10T09:08:45Z</time>
      </trkpt>
      <trkpt lat="46.40699" lon="5.37636">
        <ele>527.19995117188</ele>
        <time>2016-01-10T09:08:46Z</time>
      </trkpt>
      <trkpt lat="46.40694" lon="5.37639">
        <ele>525.40002441406</ele>
        <time>2016-01-10T09:08:48Z</time>
      </trkpt>
      <trkpt lat="46.40689" lon="5.37642">
        <ele>523.40002441406</ele>
        <time>2016-01-10T09:08:50Z</time>
      </trkpt>
      <trkpt lat="46.40687" lon="5.37643">
        <ele>522.20001220703</ele>
        <time>2016-01-10T09:08:51Z</time>
      </trkpt>
      <trkpt lat="46.40685" lon="5.37644">
        <ele>521</ele>
        <time>2016-01-10T09:08:52Z</time>
      </trkpt>
      <trkpt lat="46.40682" lon="5.37644">
        <ele>520</ele>
        <time>2016-01-10T09:08:53Z</time>
      </trkpt>
      <trkpt lat="46.4068" lon="5.37644">
        <ele>519</ele>
        <time>2016-01-10T09:08:54Z</time>
      </trkpt>
      <trkpt lat="46.40678" lon="5.37644">
        <ele>518</ele>
        <time>2016-01-10T09:08:55Z</time>
      </trkpt>
      <trkpt lat="46.40675" lon="5.37644">
        <ele>516.79998779297</ele>
        <time>2016-01-10T09:08:56Z</time>
      </trkpt>
      <trkpt lat="46.40673" lon="5.37644">
        <ele>515.79998779297</ele>
        <time>2016-01-10T09:08:57Z</time>
      </trkpt>
      <trkpt lat="46.40671" lon="5.37643">
        <ele>514.59997558594</ele>
        <time>2016-01-10T09:08:58Z</time>
      </trkpt>
      <trkpt lat="46.40666" lon="5.37642">
        <ele>512.79998779297</ele>
        <time>2016-01-10T09:09:00Z</time>
      </trkpt>
      <trkpt lat="46.40661" lon="5.37642">
        <ele>510.20001220703</ele>
        <time>2016-01-10T09:09:02Z</time>
      </trkpt>
      <trkpt lat="46.40656" lon="5.37641">
        <ele>509</ele>
        <time>2016-01-10T09:09:04Z</time>
      </trkpt>
      <trkpt lat="46.40651" lon="5.37638">
        <ele>507.79998779297</ele>
        <time>2016-01-10T09:09:06Z</time>
      </trkpt>
      <trkpt lat="46.40645" lon="5.37636">
        <ele>506.59997558594</ele>
        <time>2016-01-10T09:09:08Z</time>
      </trkpt>
      <trkpt lat="46.40642" lon="5.37636">
        <ele>506</ele>
        <time>2016-01-10T09:09:09Z</time>
      </trkpt>
      <trkpt lat="46.40639" lon="5.37636">
        <ele>505.59997558594</ele>
        <time>2016-01-10T09:09:10Z</time>
      </trkpt>
      <trkpt lat="46.40631" lon="5.37635">
        <ele>504.20001220703</ele>
        <time>2016-01-10T09:09:13Z</time>
      </trkpt>
      <trkpt lat="46.40624" lon="5.37632">
        <ele>502.79998779297</ele>
        <time>2016-01-10T09:09:15Z</time>
      </trkpt>
      <trkpt lat="46.4062" lon="5.37631">
        <ele>502.20001220703</ele>
        <time>2016-01-10T09:09:17Z</time>
      </trkpt>
      <trkpt lat="46.40616" lon="5.37629">
        <ele>501</ele>
        <time>2016-01-10T09:09:18Z</time>
      </trkpt>
      <trkpt lat="46.40606" lon="5.37626">
        <ele>499.59997558594</ele>
        <time>2016-01-10T09:09:22Z</time>
      </trkpt>
      <trkpt lat="46.40595" lon="5.37625">
        <ele>498.59997558594</ele>
        <time>2016-01-10T09:09:26Z</time>
      </trkpt>
      <trkpt lat="46.4059" lon="5.37625">
        <ele>498.40002441406</ele>
        <time>2016-01-10T09:09:28Z</time>
      </trkpt>
      <trkpt lat="46.4058" lon="5.37622">
        <ele>497.20001220703</ele>
        <time>2016-01-10T09:09:31Z</time>
      </trkpt>
      <trkpt lat="46.40571" lon="5.37619">
        <ele>496.20001220703</ele>
        <time>2016-01-10T09:09:35Z</time>
      </trkpt>
      <trkpt lat="46.40569" lon="5.37619">
        <ele>496</ele>
        <time>2016-01-10T09:09:36Z</time>
      </trkpt>
      <trkpt lat="46.40564" lon="5.37619">
        <ele>497</ele>
        <time>2016-01-10T09:09:38Z</time>
      </trkpt>
      <trkpt lat="46.40557" lon="5.37622">
        <ele>498.79998779297</ele>
        <time>2016-01-10T09:09:41Z</time>
      </trkpt>
      <trkpt lat="46.40553" lon="5.37624">
        <ele>499.40002441406</ele>
        <time>2016-01-10T09:09:43Z</time>
      </trkpt>
      <trkpt lat="46.4055" lon="5.37625">
        <ele>499.59997558594</ele>
        <time>2016-01-10T09:09:44Z</time>
      </trkpt>
      <trkpt lat="46.40533" lon="5.37633">
        <ele>498</ele>
        <time>2016-01-10T09:09:51Z</time>
      </trkpt>
      <trkpt lat="46.40529" lon="5.3764">
        <ele>496.79998779297</ele>
        <time>2016-01-10T09:09:53Z</time>
      </trkpt>
      <trkpt lat="46.40524" lon="5.37643">
        <ele>497.40002441406</ele>
        <time>2016-01-10T09:09:55Z</time>
      </trkpt>
      <trkpt lat="46.40508" lon="5.37654">
        <ele>498</ele>
        <time>2016-01-10T09:10:01Z</time>
      </trkpt>
      <trkpt lat="46.40502" lon="5.3766">
        <ele>499.40002441406</ele>
        <time>2016-01-10T09:10:04Z</time>
      </trkpt>
      <trkpt lat="46.405" lon="5.37668">
        <ele>500.59997558594</ele>
        <time>2016-01-10T09:10:07Z</time>
      </trkpt>
      <trkpt lat="46.40495" lon="5.37666">
        <ele>507.79998779297</ele>
        <time>2016-01-10T09:10:08Z</time>
      </trkpt>
      <trkpt lat="46.40493" lon="5.37665">
        <ele>511.59997558594</ele>
        <time>2016-01-10T09:10:09Z</time>
      </trkpt>
      <trkpt lat="46.40492" lon="5.37666">
        <ele>513.40002441406</ele>
        <time>2016-01-10T09:10:10Z</time>
      </trkpt>
      <trkpt lat="46.40492" lon="5.37669">
        <ele>514.40002441406</ele>
        <time>2016-01-10T09:10:11Z</time>
      </trkpt>
      <trkpt lat="46.40492" lon="5.37672">
        <ele>514.59997558594</ele>
        <time>2016-01-10T09:10:12Z</time>
      </trkpt>
      <trkpt lat="46.40496" lon="5.37691">
        <ele>513</ele>
        <time>2016-01-10T09:10:19Z</time>
      </trkpt>
      <trkpt lat="46.40497" lon="5.37694">
        <ele>511.79998779297</ele>
        <time>2016-01-10T09:10:20Z</time>
      </trkpt>
      <trkpt lat="46.40497" lon="5.37696">
        <ele>510.59997558594</ele>
        <time>2016-01-10T09:10:21Z</time>
      </trkpt>
      <trkpt lat="46.40496" lon="5.377">
        <ele>507.79998779297</ele>
        <time>2016-01-10T09:10:22Z</time>
      </trkpt>
      <trkpt lat="46.40497" lon="5.37703">
        <ele>506.20001220703</ele>
        <time>2016-01-10T09:10:23Z</time>
      </trkpt>
      <trkpt lat="46.40497" lon="5.37706">
        <ele>505</ele>
        <time>2016-01-10T09:10:24Z</time>
      </trkpt>
      <trkpt lat="46.40498" lon="5.37709">
        <ele>503.59997558594</ele>
        <time>2016-01-10T09:10:25Z</time>
      </trkpt>
      <trkpt lat="46.405" lon="5.37711">
        <ele>502.40002441406</ele>
        <time>2016-01-10T09:10:26Z</time>
      </trkpt>
      <trkpt lat="46.40501" lon="5.37713">
        <ele>501.20001220703</ele>
        <time>2016-01-10T09:10:27Z</time>
      </trkpt>
      <trkpt lat="46.40502" lon="5.37715">
        <ele>500</ele>
        <time>2016-01-10T09:10:28Z</time>
      </trkpt>
      <trkpt lat="46.40503" lon="5.37718">
        <ele>498.79998779297</ele>
        <time>2016-01-10T09:10:29Z</time>
      </trkpt>
      <trkpt lat="46.40504" lon="5.37719">
        <ele>497.40002441406</ele>
        <time>2016-01-10T09:10:30Z</time>
      </trkpt>
      <trkpt lat="46.40505" lon="5.37722">
        <ele>496.20001220703</ele>
        <time>2016-01-10T09:10:31Z</time>
      </trkpt>
      <trkpt lat="46.40506" lon="5.37725">
        <ele>495</ele>
        <time>2016-01-10T09:10:32Z</time>
      </trkpt>
      <trkpt lat="46.40509" lon="5.37728">
        <ele>493.79998779297</ele>
        <time>2016-01-10T09:10:34Z</time>
      </trkpt>
      <trkpt lat="46.40511" lon="5.3773">
        <ele>492.79998779297</ele>
        <time>2016-01-10T09:10:35Z</time>
      </trkpt>
      <trkpt lat="46.40513" lon="5.37732">
        <ele>491.79998779297</ele>
        <time>2016-01-10T09:10:36Z</time>
      </trkpt>
      <trkpt lat="46.40519" lon="5.37741">
        <ele>490</ele>
        <time>2016-01-10T09:10:38Z</time>
      </trkpt>
      <trkpt lat="46.40522" lon="5.37744">
        <ele>488</ele>
        <time>2016-01-10T09:10:40Z</time>
      </trkpt>
      <trkpt lat="46.40528" lon="5.37749">
        <ele>486.59997558594</ele>
        <time>2016-01-10T09:10:42Z</time>
      </trkpt>
      <trkpt lat="46.40528" lon="5.37751">
        <ele>485.40002441406</ele>
        <time>2016-01-10T09:10:43Z</time>
      </trkpt>
      <trkpt lat="46.4053" lon="5.37753">
        <ele>484</ele>
        <time>2016-01-10T09:10:44Z</time>
      </trkpt>
      <trkpt lat="46.40532" lon="5.37756">
        <ele>483</ele>
        <time>2016-01-10T09:10:45Z</time>
      </trkpt>
      <trkpt lat="46.40535" lon="5.37758">
        <ele>482</ele>
        <time>2016-01-10T09:10:46Z</time>
      </trkpt>
      <trkpt lat="46.40537" lon="5.3776">
        <ele>481</ele>
        <time>2016-01-10T09:10:47Z</time>
      </trkpt>
      <trkpt lat="46.40541" lon="5.37763">
        <ele>480</ele>
        <time>2016-01-10T09:10:49Z</time>
      </trkpt>
      <trkpt lat="46.40545" lon="5.37768">
        <ele>478.20001220703</ele>
        <time>2016-01-10T09:10:51Z</time>
      </trkpt>
      <trkpt lat="46.40549" lon="5.37776">
        <ele>475.79998779297</ele>
        <time>2016-01-10T09:10:53Z</time>
      </trkpt>
      <trkpt lat="46.40552" lon="5.3778">
        <ele>474.40002441406</ele>
        <time>2016-01-10T09:10:55Z</time>
      </trkpt>
      <trkpt lat="46.40556" lon="5.37786">
        <ele>473.20001220703</ele>
        <time>2016-01-10T09:10:57Z</time>
      </trkpt>
      <trkpt lat="46.40563" lon="5.37794">
        <ele>471.79998779297</ele>
        <time>2016-01-10T09:11:00Z</time>
      </trkpt>
      <trkpt lat="46.40568" lon="5.37799">
        <ele>470.79998779297</ele>
        <time>2016-01-10T09:11:02Z</time>
      </trkpt>
      <trkpt lat="46.4057" lon="5.37801">
        <ele>470.20001220703</ele>
        <time>2016-01-10T09:11:03Z</time>
      </trkpt>
      <trkpt lat="46.40581" lon="5.37816">
        <ele>469</ele>
        <time>2016-01-10T09:11:08Z</time>
      </trkpt>
      <trkpt lat="46.40586" lon="5.37821">
        <ele>468</ele>
        <time>2016-01-10T09:11:10Z</time>
      </trkpt>
      <trkpt lat="46.40592" lon="5.37828">
        <ele>466.59997558594</ele>
        <time>2016-01-10T09:11:13Z</time>
      </trkpt>
      <trkpt lat="46.40598" lon="5.37837">
        <ele>465.20001220703</ele>
        <time>2016-01-10T09:11:16Z</time>
      </trkpt>
      <trkpt lat="46.40603" lon="5.37849">
        <ele>463.79998779297</ele>
        <time>2016-01-10T09:11:20Z</time>
      </trkpt>
      <trkpt lat="46.40604" lon="5.37849">
        <ele>463.79998779297</ele>
        <time>2016-01-10T09:11:21Z</time>
      </trkpt>
      <trkpt lat="46.40607" lon="5.37857">
        <ele>462.40002441406</ele>
        <time>2016-01-10T09:11:23Z</time>
      </trkpt>
      <trkpt lat="46.40611" lon="5.37862">
        <ele>461.40002441406</ele>
        <time>2016-01-10T09:11:25Z</time>
      </trkpt>
      <trkpt lat="46.40615" lon="5.37867">
        <ele>459.59997558594</ele>
        <time>2016-01-10T09:11:27Z</time>
      </trkpt>
      <trkpt lat="46.4062" lon="5.37873">
        <ele>458.59997558594</ele>
        <time>2016-01-10T09:11:29Z</time>
      </trkpt>
      <trkpt lat="46.40627" lon="5.37882">
        <ele>457.40002441406</ele>
        <time>2016-01-10T09:11:32Z</time>
      </trkpt>
      <trkpt lat="46.40631" lon="5.37885">
        <ele>456</ele>
        <time>2016-01-10T09:11:34Z</time>
      </trkpt>
      <trkpt lat="46.40642" lon="5.37902">
        <ele>454.79998779297</ele>
        <time>2016-01-10T09:11:39Z</time>
      </trkpt>
      <trkpt lat="46.40644" lon="5.37905">
        <ele>454.79998779297</ele>
        <time>2016-01-10T09:11:40Z</time>
      </trkpt>
      <trkpt lat="46.40657" lon="5.37927">
        <ele>454.79998779297</ele>
        <time>2016-01-10T09:11:47Z</time>
      </trkpt>
      <trkpt lat="46.40664" lon="5.37941">
        <ele>453.20001220703</ele>
        <time>2016-01-10T09:11:52Z</time>
      </trkpt>
      <trkpt lat="46.40666" lon="5.37945">
        <ele>453.59997558594</ele>
        <time>2016-01-10T09:11:53Z</time>
      </trkpt>
      <trkpt lat="46.40671" lon="5.37953">
        <ele>452.20001220703</ele>
        <time>2016-01-10T09:11:56Z</time>
      </trkpt>
      <trkpt lat="46.40677" lon="5.37959">
        <ele>451</ele>
        <time>2016-01-10T09:11:59Z</time>
      </trkpt>
      <trkpt lat="46.40684" lon="5.37967">
        <ele>450.59997558594</ele>
        <time>2016-01-10T09:12:02Z</time>
      </trkpt>
      <trkpt lat="46.40697" lon="5.37982">
        <ele>452.20001220703</ele>
        <time>2016-01-10T09:12:07Z</time>
      </trkpt>
      <trkpt lat="46.40724" lon="5.38011">
        <ele>451.20001220703</ele>
        <time>2016-01-10T09:12:18Z</time>
      </trkpt>
      <trkpt lat="46.40726" lon="5.38014">
        <ele>451</ele>
        <time>2016-01-10T09:12:19Z</time>
      </trkpt>
      <trkpt lat="46.40736" lon="5.38025">
        <ele>451</ele>
        <time>2016-01-10T09:12:23Z</time>
      </trkpt>
      <trkpt lat="46.40743" lon="5.38032">
        <ele>449</ele>
        <time>2016-01-10T09:12:26Z</time>
      </trkpt>
      <trkpt lat="46.4075" lon="5.38042">
        <ele>447.40002441406</ele>
        <time>2016-01-10T09:12:30Z</time>
      </trkpt>
      <trkpt lat="46.40756" lon="5.3805">
        <ele>446.40002441406</ele>
        <time>2016-01-10T09:12:33Z</time>
      </trkpt>
      <trkpt lat="46.40758" lon="5.38053">
        <ele>446.20001220703</ele>
        <time>2016-01-10T09:12:34Z</time>
      </trkpt>
      <trkpt lat="46.40768" lon="5.3807">
        <ele>444.20001220703</ele>
        <time>2016-01-10T09:12:39Z</time>
      </trkpt>
      <trkpt lat="46.40774" lon="5.3808">
        <ele>443.20001220703</ele>
        <time>2016-01-10T09:12:42Z</time>
      </trkpt>
      <trkpt lat="46.40776" lon="5.38083">
        <ele>443</ele>
        <time>2016-01-10T09:12:43Z</time>
      </trkpt>
      <trkpt lat="46.40785" lon="5.38096">
        <ele>442.79998779297</ele>
        <time>2016-01-10T09:12:47Z</time>
      </trkpt>
      <trkpt lat="46.4079" lon="5.38105">
        <ele>441.59997558594</ele>
        <time>2016-01-10T09:12:50Z</time>
      </trkpt>
      <trkpt lat="46.40792" lon="5.3811">
        <ele>440.40002441406</ele>
        <time>2016-01-10T09:12:52Z</time>
      </trkpt>
      <trkpt lat="46.40799" lon="5.38118">
        <ele>438.40002441406</ele>
        <time>2016-01-10T09:12:55Z</time>
      </trkpt>
      <trkpt lat="46.408" lon="5.38124">
        <ele>437</ele>
        <time>2016-01-10T09:12:57Z</time>
      </trkpt>
      <trkpt lat="46.40802" lon="5.38129">
        <ele>436</ele>
        <time>2016-01-10T09:12:59Z</time>
      </trkpt>
      <trkpt lat="46.40808" lon="5.38136">
        <ele>436.40002441406</ele>
        <time>2016-01-10T09:13:01Z</time>
      </trkpt>
      <trkpt lat="46.40969" lon="5.38257">
        <ele>423.79998779297</ele>
        <time>2016-01-10T09:14:14Z</time>
      </trkpt>
      <trkpt lat="46.40973" lon="5.3826">
        <ele>423.79998779297</ele>
        <time>2016-01-10T09:14:15Z</time>
      </trkpt>
      <trkpt lat="46.40988" lon="5.38268">
        <ele>425.40002441406</ele>
        <time>2016-01-10T09:14:18Z</time>
      </trkpt>
      <trkpt lat="46.40993" lon="5.3827">
        <ele>426.40002441406</ele>
        <time>2016-01-10T09:14:19Z</time>
      </trkpt>
      <trkpt lat="46.40997" lon="5.38272">
        <ele>427</ele>
        <time>2016-01-10T09:14:20Z</time>
      </trkpt>
      <trkpt lat="46.41017" lon="5.38337">
        <ele>439.59997558594</ele>
        <time>2016-01-10T09:14:38Z</time>
      </trkpt>
      <trkpt lat="46.41017" lon="5.38344">
        <ele>441.59997558594</ele>
        <time>2016-01-10T09:14:39Z</time>
      </trkpt>
      <trkpt lat="46.41016" lon="5.3835">
        <ele>443.59997558594</ele>
        <time>2016-01-10T09:14:40Z</time>
      </trkpt>
      <trkpt lat="46.41012" lon="5.38361">
        <ele>444.79998779297</ele>
        <time>2016-01-10T09:14:42Z</time>
      </trkpt>
      <trkpt lat="46.41007" lon="5.38375">
        <ele>446.79998779297</ele>
        <time>2016-01-10T09:14:45Z</time>
      </trkpt>
      <trkpt lat="46.41004" lon="5.38385">
        <ele>448.59997558594</ele>
        <time>2016-01-10T09:14:47Z</time>
      </trkpt>
      <trkpt lat="46.41002" lon="5.38398">
        <ele>450.59997558594</ele>
        <time>2016-01-10T09:14:49Z</time>
      </trkpt>
      <trkpt lat="46.41" lon="5.38403">
        <ele>452</ele>
        <time>2016-01-10T09:14:50Z</time>
      </trkpt>
      <trkpt lat="46.40998" lon="5.38408">
        <ele>453.59997558594</ele>
        <time>2016-01-10T09:14:51Z</time>
      </trkpt>
      <trkpt lat="46.40996" lon="5.38413">
        <ele>455.20001220703</ele>
        <time>2016-01-10T09:14:52Z</time>
      </trkpt>
      <trkpt lat="46.40994" lon="5.38419">
        <ele>456.79998779297</ele>
        <time>2016-01-10T09:14:53Z</time>
      </trkpt>
      <trkpt lat="46.40992" lon="5.38424">
        <ele>458.40002441406</ele>
        <time>2016-01-10T09:14:54Z</time>
      </trkpt>
      <trkpt lat="46.40991" lon="5.38429">
        <ele>459.79998779297</ele>
        <time>2016-01-10T09:14:55Z</time>
      </trkpt>
      <trkpt lat="46.4099" lon="5.38432">
        <ele>460.79998779297</ele>
        <time>2016-01-10T09:14:56Z</time>
      </trkpt>
      <trkpt lat="46.40988" lon="5.3844">
        <ele>462.40002441406</ele>
        <time>2016-01-10T09:14:58Z</time>
      </trkpt>
      <trkpt lat="46.40987" lon="5.38457">
        <ele>462</ele>
        <time>2016-01-10T09:15:03Z</time>
      </trkpt>
      <trkpt lat="46.40988" lon="5.38464">
        <ele>461.20001220703</ele>
        <time>2016-01-10T09:15:05Z</time>
      </trkpt>
      <trkpt lat="46.40989" lon="5.38475">
        <ele>460</ele>
        <time>2016-01-10T09:15:08Z</time>
      </trkpt>
      <trkpt lat="46.40989" lon="5.38483">
        <ele>459.79998779297</ele>
        <time>2016-01-10T09:15:10Z</time>
      </trkpt>
      <trkpt lat="46.40989" lon="5.38494">
        <ele>461.40002441406</ele>
        <time>2016-01-10T09:15:12Z</time>
      </trkpt>
      <trkpt lat="46.40988" lon="5.38505">
        <ele>463</ele>
        <time>2016-01-10T09:15:14Z</time>
      </trkpt>
      <trkpt lat="46.40987" lon="5.38511">
        <ele>464.20001220703</ele>
        <time>2016-01-10T09:15:15Z</time>
      </trkpt>
      <trkpt lat="46.40987" lon="5.38516">
        <ele>465.59997558594</ele>
        <time>2016-01-10T09:15:16Z</time>
      </trkpt>
      <trkpt lat="46.40985" lon="5.38523">
        <ele>467</ele>
        <time>2016-01-10T09:15:17Z</time>
      </trkpt>
      <trkpt lat="46.40981" lon="5.38533">
        <ele>468.59997558594</ele>
        <time>2016-01-10T09:15:19Z</time>
      </trkpt>
      <trkpt lat="46.40973" lon="5.38543">
        <ele>469.59997558594</ele>
        <time>2016-01-10T09:15:22Z</time>
      </trkpt>
      <trkpt lat="46.40966" lon="5.3855">
        <ele>471</ele>
        <time>2016-01-10T09:15:25Z</time>
      </trkpt>
      <trkpt lat="46.40951" lon="5.38561">
        <ele>472</ele>
        <time>2016-01-10T09:15:31Z</time>
      </trkpt>
      <trkpt lat="46.40949" lon="5.38562">
        <ele>472.20001220703</ele>
        <time>2016-01-10T09:15:32Z</time>
      </trkpt>
      <trkpt lat="46.40926" lon="5.38574">
        <ele>472.79998779297</ele>
        <time>2016-01-10T09:15:40Z</time>
      </trkpt>
      <trkpt lat="46.40909" lon="5.38586">
        <ele>473</ele>
        <time>2016-01-10T09:15:47Z</time>
      </trkpt>
      <trkpt lat="46.40891" lon="5.38599">
        <ele>472.79998779297</ele>
        <time>2016-01-10T09:15:54Z</time>
      </trkpt>
      <trkpt lat="46.40877" lon="5.38608">
        <ele>472</ele>
        <time>2016-01-10T09:16:00Z</time>
      </trkpt>
      <trkpt lat="46.40861" lon="5.38622">
        <ele>471.40002441406</ele>
        <time>2016-01-10T09:16:06Z</time>
      </trkpt>
      <trkpt lat="46.40857" lon="5.38627">
        <ele>471.20001220703</ele>
        <time>2016-01-10T09:16:08Z</time>
      </trkpt>
      <trkpt lat="46.40846" lon="5.38635">
        <ele>472.40002441406</ele>
        <time>2016-01-10T09:16:12Z</time>
      </trkpt>
      <trkpt lat="46.40844" lon="5.38637">
        <ele>472.59997558594</ele>
        <time>2016-01-10T09:16:13Z</time>
      </trkpt>
      <trkpt lat="46.40832" lon="5.38651">
        <ele>473.59997558594</ele>
        <time>2016-01-10T09:16:18Z</time>
      </trkpt>
      <trkpt lat="46.40829" lon="5.38653">
        <ele>474</ele>
        <time>2016-01-10T09:16:19Z</time>
      </trkpt>
      <trkpt lat="46.4082" lon="5.38664">
        <ele>474.79998779297</ele>
        <time>2016-01-10T09:16:23Z</time>
      </trkpt>
      <trkpt lat="46.40812" lon="5.38669">
        <ele>474.40002441406</ele>
        <time>2016-01-10T09:16:26Z</time>
      </trkpt>
      <trkpt lat="46.40799" lon="5.38681">
        <ele>473.59997558594</ele>
        <time>2016-01-10T09:16:31Z</time>
      </trkpt>
      <trkpt lat="46.40794" lon="5.38687">
        <ele>473.20001220703</ele>
        <time>2016-01-10T09:16:34Z</time>
      </trkpt>
      <trkpt lat="46.40792" lon="5.38692">
        <ele>472</ele>
        <time>2016-01-10T09:16:36Z</time>
      </trkpt>
      <trkpt lat="46.40793" lon="5.38697">
        <ele>470.20001220703</ele>
        <time>2016-01-10T09:16:38Z</time>
      </trkpt>
      <trkpt lat="46.40794" lon="5.38704">
        <ele>468</ele>
        <time>2016-01-10T09:16:40Z</time>
      </trkpt>
      <trkpt lat="46.40795" lon="5.38707">
        <ele>466.79998779297</ele>
        <time>2016-01-10T09:16:41Z</time>
      </trkpt>
      <trkpt lat="46.40795" lon="5.38711">
        <ele>465.79998779297</ele>
        <time>2016-01-10T09:16:42Z</time>
      </trkpt>
      <trkpt lat="46.40795" lon="5.38715">
        <ele>465</ele>
        <time>2016-01-10T09:16:43Z</time>
      </trkpt>
      <trkpt lat="46.40797" lon="5.38723">
        <ele>463.20001220703</ele>
        <time>2016-01-10T09:16:45Z</time>
      </trkpt>
      <trkpt lat="46.40798" lon="5.3873">
        <ele>461.59997558594</ele>
        <time>2016-01-10T09:16:47Z</time>
      </trkpt>
      <trkpt lat="46.40799" lon="5.38737">
        <ele>460.20001220703</ele>
        <time>2016-01-10T09:16:49Z</time>
      </trkpt>
      <trkpt lat="46.40801" lon="5.38744">
        <ele>458.20001220703</ele>
        <time>2016-01-10T09:16:51Z</time>
      </trkpt>
      <trkpt lat="46.40802" lon="5.38745">
        <ele>457</ele>
        <time>2016-01-10T09:16:52Z</time>
      </trkpt>
      <trkpt lat="46.40804" lon="5.38753">
        <ele>455</ele>
        <time>2016-01-10T09:16:54Z</time>
      </trkpt>
      <trkpt lat="46.40805" lon="5.38756">
        <ele>454</ele>
        <time>2016-01-10T09:16:55Z</time>
      </trkpt>
      <trkpt lat="46.40807" lon="5.38762">
        <ele>451.79998779297</ele>
        <time>2016-01-10T09:16:57Z</time>
      </trkpt>
      <trkpt lat="46.40809" lon="5.38769">
        <ele>450.40002441406</ele>
        <time>2016-01-10T09:16:59Z</time>
      </trkpt>
      <trkpt lat="46.40812" lon="5.38773">
        <ele>448.59997558594</ele>
        <time>2016-01-10T09:17:01Z</time>
      </trkpt>
      <trkpt lat="46.40816" lon="5.38778">
        <ele>446.79998779297</ele>
        <time>2016-01-10T09:17:03Z</time>
      </trkpt>
      <trkpt lat="46.40818" lon="5.3878">
        <ele>445.79998779297</ele>
        <time>2016-01-10T09:17:04Z</time>
      </trkpt>
      <trkpt lat="46.4082" lon="5.38788">
        <ele>444.40002441406</ele>
        <time>2016-01-10T09:17:06Z</time>
      </trkpt>
      <trkpt lat="46.40821" lon="5.38797">
        <ele>443.20001220703</ele>
        <time>2016-01-10T09:17:08Z</time>
      </trkpt>
      <trkpt lat="46.40823" lon="5.38804">
        <ele>441.79998779297</ele>
        <time>2016-01-10T09:17:10Z</time>
      </trkpt>
      <trkpt lat="46.40826" lon="5.3881">
        <ele>440</ele>
        <time>2016-01-10T09:17:12Z</time>
      </trkpt>
      <trkpt lat="46.40826" lon="5.38815">
        <ele>439.79998779297</ele>
        <time>2016-01-10T09:17:13Z</time>
      </trkpt>
      <trkpt lat="46.40827" lon="5.38835">
        <ele>438.79998779297</ele>
        <time>2016-01-10T09:17:17Z</time>
      </trkpt>
      <trkpt lat="46.40827" lon="5.38843">
        <ele>437.59997558594</ele>
        <time>2016-01-10T09:17:19Z</time>
      </trkpt>
      <trkpt lat="46.40828" lon="5.3885">
        <ele>436.20001220703</ele>
        <time>2016-01-10T09:17:21Z</time>
      </trkpt>
      <trkpt lat="46.4083" lon="5.38857">
        <ele>434.59997558594</ele>
        <time>2016-01-10T09:17:23Z</time>
      </trkpt>
      <trkpt lat="46.40833" lon="5.38862">
        <ele>433</ele>
        <time>2016-01-10T09:17:25Z</time>
      </trkpt>
      <trkpt lat="46.40835" lon="5.38869">
        <ele>431.40002441406</ele>
        <time>2016-01-10T09:17:27Z</time>
      </trkpt>
      <trkpt lat="46.40837" lon="5.38877">
        <ele>430</ele>
        <time>2016-01-10T09:17:29Z</time>
      </trkpt>
      <trkpt lat="46.4084" lon="5.38882">
        <ele>428.40002441406</ele>
        <time>2016-01-10T09:17:31Z</time>
      </trkpt>
      <trkpt lat="46.40842" lon="5.38889">
        <ele>427.20001220703</ele>
        <time>2016-01-10T09:17:33Z</time>
      </trkpt>
      <trkpt lat="46.40845" lon="5.38896">
        <ele>425.79998779297</ele>
        <time>2016-01-10T09:17:35Z</time>
      </trkpt>
      <trkpt lat="46.40848" lon="5.38903">
        <ele>424.59997558594</ele>
        <time>2016-01-10T09:17:37Z</time>
      </trkpt>
      <trkpt lat="46.4085" lon="5.3891">
        <ele>423.40002441406</ele>
        <time>2016-01-10T09:17:39Z</time>
      </trkpt>
      <trkpt lat="46.40853" lon="5.38921">
        <ele>422.20001220703</ele>
        <time>2016-01-10T09:17:42Z</time>
      </trkpt>
      <trkpt lat="46.40854" lon="5.38929">
        <ele>421.20001220703</ele>
        <time>2016-01-10T09:17:44Z</time>
      </trkpt>
      <trkpt lat="46.40856" lon="5.38936">
        <ele>420.20001220703</ele>
        <time>2016-01-10T09:17:46Z</time>
      </trkpt>
      <trkpt lat="46.40856" lon="5.3894">
        <ele>419.79998779297</ele>
        <time>2016-01-10T09:17:47Z</time>
      </trkpt>
      <trkpt lat="46.40858" lon="5.38948">
        <ele>419</ele>
        <time>2016-01-10T09:17:49Z</time>
      </trkpt>
      <trkpt lat="46.40862" lon="5.38965">
        <ele>420.20001220703</ele>
        <time>2016-01-10T09:17:53Z</time>
      </trkpt>
      <trkpt lat="46.40865" lon="5.38975">
        <ele>419.20001220703</ele>
        <time>2016-01-10T09:17:56Z</time>
      </trkpt>
      <trkpt lat="46.40865" lon="5.38978">
        <ele>419</ele>
        <time>2016-01-10T09:17:57Z</time>
      </trkpt>
      <trkpt lat="46.40867" lon="5.38988">
        <ele>417.59997558594</ele>
        <time>2016-01-10T09:18:00Z</time>
      </trkpt>
      <trkpt lat="46.40861" lon="5.39044">
        <ele>419.59997558594</ele>
        <time>2016-01-10T09:18:12Z</time>
      </trkpt>
      <trkpt lat="46.4086" lon="5.39054">
        <ele>420.59997558594</ele>
        <time>2016-01-10T09:18:14Z</time>
      </trkpt>
      <trkpt lat="46.40857" lon="5.39066">
        <ele>422.20001220703</ele>
        <time>2016-01-10T09:18:16Z</time>
      </trkpt>
      <trkpt lat="46.40854" lon="5.39078">
        <ele>423.59997558594</ele>
        <time>2016-01-10T09:18:18Z</time>
      </trkpt>
      <trkpt lat="46.40842" lon="5.39106">
        <ele>424.79998779297</ele>
        <time>2016-01-10T09:18:24Z</time>
      </trkpt>
      <trkpt lat="46.40837" lon="5.39113">
        <ele>425.79998779297</ele>
        <time>2016-01-10T09:18:26Z</time>
      </trkpt>
      <trkpt lat="46.40835" lon="5.39116">
        <ele>426</ele>
        <time>2016-01-10T09:18:27Z</time>
      </trkpt>
      <trkpt lat="46.4083" lon="5.39123">
        <ele>428.40002441406</ele>
        <time>2016-01-10T09:18:29Z</time>
      </trkpt>
      <trkpt lat="46.40828" lon="5.39126">
        <ele>430.20001220703</ele>
        <time>2016-01-10T09:18:30Z</time>
      </trkpt>
      <trkpt lat="46.40825" lon="5.39129">
        <ele>431.79998779297</ele>
        <time>2016-01-10T09:18:31Z</time>
      </trkpt>
      <trkpt lat="46.40823" lon="5.39133">
        <ele>434</ele>
        <time>2016-01-10T09:18:32Z</time>
      </trkpt>
      <trkpt lat="46.4082" lon="5.39135">
        <ele>435.79998779297</ele>
        <time>2016-01-10T09:18:33Z</time>
      </trkpt>
      <trkpt lat="46.40818" lon="5.39138">
        <ele>437.20001220703</ele>
        <time>2016-01-10T09:18:34Z</time>
      </trkpt>
      <trkpt lat="46.40813" lon="5.39143">
        <ele>439.20001220703</ele>
        <time>2016-01-10T09:18:36Z</time>
      </trkpt>
      <trkpt lat="46.4081" lon="5.39146">
        <ele>440.40002441406</ele>
        <time>2016-01-10T09:18:37Z</time>
      </trkpt>
      <trkpt lat="46.40805" lon="5.3915">
        <ele>442</ele>
        <time>2016-01-10T09:18:39Z</time>
      </trkpt>
      <trkpt lat="46.40799" lon="5.39154">
        <ele>443.20001220703</ele>
        <time>2016-01-10T09:18:41Z</time>
      </trkpt>
      <trkpt lat="46.40796" lon="5.39156">
        <ele>443.79998779297</ele>
        <time>2016-01-10T09:18:42Z</time>
      </trkpt>
      <trkpt lat="46.40793" lon="5.39157">
        <ele>444.40002441406</ele>
        <time>2016-01-10T09:18:43Z</time>
      </trkpt>
      <trkpt lat="46.40784" lon="5.39161">
        <ele>445.59997558594</ele>
        <time>2016-01-10T09:18:46Z</time>
      </trkpt>
      <trkpt lat="46.40775" lon="5.39166">
        <ele>446.59997558594</ele>
        <time>2016-01-10T09:18:50Z</time>
      </trkpt>
      <trkpt lat="46.40756" lon="5.39175">
        <ele>447.79998779297</ele>
        <time>2016-01-10T09:18:57Z</time>
      </trkpt>
      <trkpt lat="46.40748" lon="5.39179">
        <ele>448</ele>
        <time>2016-01-10T09:19:00Z</time>
      </trkpt>
      <trkpt lat="46.40736" lon="5.39188">
        <ele>448.79998779297</ele>
        <time>2016-01-10T09:19:05Z</time>
      </trkpt>
      <trkpt lat="46.40723" lon="5.39198">
        <ele>448.79998779297</ele>
        <time>2016-01-10T09:19:10Z</time>
      </trkpt>
      <trkpt lat="46.40705" lon="5.39214">
        <ele>447.40002441406</ele>
        <time>2016-01-10T09:19:17Z</time>
      </trkpt>
      <trkpt lat="46.40686" lon="5.39234">
        <ele>446.59997558594</ele>
        <time>2016-01-10T09:19:25Z</time>
      </trkpt>
      <trkpt lat="46.40684" lon="5.39237">
        <ele>446.40002441406</ele>
        <time>2016-01-10T09:19:26Z</time>
      </trkpt>
      <trkpt lat="46.4067" lon="5.3926">
        <ele>446.20001220703</ele>
        <time>2016-01-10T09:19:34Z</time>
      </trkpt>
      <trkpt lat="46.40671" lon="5.39264">
        <ele>446.20001220703</ele>
        <time>2016-01-10T09:19:35Z</time>
      </trkpt>
      <trkpt lat="46.40675" lon="5.39272">
        <ele>445.79998779297</ele>
        <time>2016-01-10T09:19:38Z</time>
      </trkpt>
      <trkpt lat="46.40677" lon="5.39274">
        <ele>445.79998779297</ele>
        <time>2016-01-10T09:19:39Z</time>
      </trkpt>
      <trkpt lat="46.40696" lon="5.39287">
        <ele>445.59997558594</ele>
        <time>2016-01-10T09:19:47Z</time>
      </trkpt>
      <trkpt lat="46.40699" lon="5.39289">
        <ele>445.40002441406</ele>
        <time>2016-01-10T09:19:48Z</time>
      </trkpt>
      <trkpt lat="46.40718" lon="5.39305">
        <ele>444.79998779297</ele>
        <time>2016-01-10T09:19:56Z</time>
      </trkpt>
      <trkpt lat="46.40736" lon="5.39311">
        <ele>444.79998779297</ele>
        <time>2016-01-10T09:20:03Z</time>
      </trkpt>
      <trkpt lat="46.40758" lon="5.39319">
        <ele>445.79998779297</ele>
        <time>2016-01-10T09:20:12Z</time>
      </trkpt>
      <trkpt lat="46.40766" lon="5.39322">
        <ele>446.40002441406</ele>
        <time>2016-01-10T09:20:15Z</time>
      </trkpt>
      <trkpt lat="46.40778" lon="5.39324">
        <ele>447.20001220703</ele>
        <time>2016-01-10T09:20:20Z</time>
      </trkpt>
      <trkpt lat="46.40793" lon="5.39327">
        <ele>447.59997558594</ele>
        <time>2016-01-10T09:20:26Z</time>
      </trkpt>
      <trkpt lat="46.40797" lon="5.39328">
        <ele>448</ele>
        <time>2016-01-10T09:20:28Z</time>
      </trkpt>
      <trkpt lat="46.40804" lon="5.3933">
        <ele>448.79998779297</ele>
        <time>2016-01-10T09:20:31Z</time>
      </trkpt>
      <trkpt lat="46.40824" lon="5.39335">
        <ele>450</ele>
        <time>2016-01-10T09:20:39Z</time>
      </trkpt>
      <trkpt lat="46.40842" lon="5.39342">
        <ele>451.20001220703</ele>
        <time>2016-01-10T09:20:46Z</time>
      </trkpt>
      <trkpt lat="46.4085" lon="5.39344">
        <ele>452</ele>
        <time>2016-01-10T09:20:49Z</time>
      </trkpt>
      <trkpt lat="46.40853" lon="5.39345">
        <ele>452.40002441406</ele>
        <time>2016-01-10T09:20:50Z</time>
      </trkpt>
      <trkpt lat="46.40867" lon="5.39358">
        <ele>453</ele>
        <time>2016-01-10T09:20:57Z</time>
      </trkpt>
      <trkpt lat="46.40871" lon="5.39363">
        <ele>453.79998779297</ele>
        <time>2016-01-10T09:20:59Z</time>
      </trkpt>
      <trkpt lat="46.40877" lon="5.3937">
        <ele>455</ele>
        <time>2016-01-10T09:21:02Z</time>
      </trkpt>
      <trkpt lat="46.40885" lon="5.39379">
        <ele>455.59997558594</ele>
        <time>2016-01-10T09:21:06Z</time>
      </trkpt>
      <trkpt lat="46.40902" lon="5.3939">
        <ele>455.59997558594</ele>
        <time>2016-01-10T09:21:13Z</time>
      </trkpt>
      <trkpt lat="46.40905" lon="5.39391">
        <ele>456</ele>
        <time>2016-01-10T09:21:14Z</time>
      </trkpt>
      <trkpt lat="46.40917" lon="5.39395">
        <ele>455</ele>
        <time>2016-01-10T09:21:19Z</time>
      </trkpt>
      <trkpt lat="46.40925" lon="5.39395">
        <ele>454.20001220703</ele>
        <time>2016-01-10T09:21:22Z</time>
      </trkpt>
      <trkpt lat="46.40933" lon="5.39395">
        <ele>453.79998779297</ele>
        <time>2016-01-10T09:21:25Z</time>
      </trkpt>
      <trkpt lat="46.40945" lon="5.39394">
        <ele>453</ele>
        <time>2016-01-10T09:21:30Z</time>
      </trkpt>
      <trkpt lat="46.40948" lon="5.39394">
        <ele>452.79998779297</ele>
        <time>2016-01-10T09:21:31Z</time>
      </trkpt>
      <trkpt lat="46.40969" lon="5.39394">
        <ele>452.59997558594</ele>
        <time>2016-01-10T09:21:38Z</time>
      </trkpt>
      <trkpt lat="46.40979" lon="5.39395">
        <ele>451.59997558594</ele>
        <time>2016-01-10T09:21:42Z</time>
      </trkpt>
      <trkpt lat="46.40989" lon="5.39399">
        <ele>450.40002441406</ele>
        <time>2016-01-10T09:21:46Z</time>
      </trkpt>
      <trkpt lat="46.40999" lon="5.39404">
        <ele>449.40002441406</ele>
        <time>2016-01-10T09:21:49Z</time>
      </trkpt>
      <trkpt lat="46.41004" lon="5.39408">
        <ele>448.20001220703</ele>
        <time>2016-01-10T09:21:51Z</time>
      </trkpt>
      <trkpt lat="46.41009" lon="5.39413">
        <ele>447.20001220703</ele>
        <time>2016-01-10T09:21:53Z</time>
      </trkpt>
      <trkpt lat="46.41016" lon="5.39421">
        <ele>446</ele>
        <time>2016-01-10T09:21:56Z</time>
      </trkpt>
      <trkpt lat="46.41027" lon="5.39437">
        <ele>444.79998779297</ele>
        <time>2016-01-10T09:22:02Z</time>
      </trkpt>
      <trkpt lat="46.4103" lon="5.39439">
        <ele>444.59997558594</ele>
        <time>2016-01-10T09:22:03Z</time>
      </trkpt>
      <trkpt lat="46.41043" lon="5.39456">
        <ele>443.79998779297</ele>
        <time>2016-01-10T09:22:09Z</time>
      </trkpt>
      <trkpt lat="46.41047" lon="5.3946">
        <ele>442.79998779297</ele>
        <time>2016-01-10T09:22:11Z</time>
      </trkpt>
      <trkpt lat="46.4105" lon="5.39462">
        <ele>442.59997558594</ele>
        <time>2016-01-10T09:22:12Z</time>
      </trkpt>
      <trkpt lat="46.41063" lon="5.39475">
        <ele>441.79998779297</ele>
        <time>2016-01-10T09:22:18Z</time>
      </trkpt>
      <trkpt lat="46.41066" lon="5.39481">
        <ele>441.40002441406</ele>
        <time>2016-01-10T09:22:20Z</time>
      </trkpt>
      <trkpt lat="46.41071" lon="5.39488">
        <ele>440.20001220703</ele>
        <time>2016-01-10T09:22:23Z</time>
      </trkpt>
      <trkpt lat="46.41077" lon="5.39496">
        <ele>439.59997558594</ele>
        <time>2016-01-10T09:22:26Z</time>
      </trkpt>
      <trkpt lat="46.41079" lon="5.39498">
        <ele>439</ele>
        <time>2016-01-10T09:22:27Z</time>
      </trkpt>
      <trkpt lat="46.41083" lon="5.39503">
        <ele>437.79998779297</ele>
        <time>2016-01-10T09:22:29Z</time>
      </trkpt>
      <trkpt lat="46.41086" lon="5.39508">
        <ele>436.59997558594</ele>
        <time>2016-01-10T09:22:31Z</time>
      </trkpt>
      <trkpt lat="46.41091" lon="5.39515">
        <ele>435.20001220703</ele>
        <time>2016-01-10T09:22:34Z</time>
      </trkpt>
      <trkpt lat="46.41093" lon="5.39518">
        <ele>434.59997558594</ele>
        <time>2016-01-10T09:22:35Z</time>
      </trkpt>
      <trkpt lat="46.41095" lon="5.3952">
        <ele>434</ele>
        <time>2016-01-10T09:22:36Z</time>
      </trkpt>
      <trkpt lat="46.41098" lon="5.39525">
        <ele>433</ele>
        <time>2016-01-10T09:22:38Z</time>
      </trkpt>
      <trkpt lat="46.41101" lon="5.3953">
        <ele>431.59997558594</ele>
        <time>2016-01-10T09:22:40Z</time>
      </trkpt>
      <trkpt lat="46.41103" lon="5.39536">
        <ele>430.40002441406</ele>
        <time>2016-01-10T09:22:42Z</time>
      </trkpt>
      <trkpt lat="46.41106" lon="5.3954">
        <ele>429.20001220703</ele>
        <time>2016-01-10T09:22:44Z</time>
      </trkpt>
      <trkpt lat="46.41115" lon="5.39555">
        <ele>429.40002441406</ele>
        <time>2016-01-10T09:22:49Z</time>
      </trkpt>
      <trkpt lat="46.41121" lon="5.39562">
        <ele>428.59997558594</ele>
        <time>2016-01-10T09:22:54Z</time>
      </trkpt>
      <trkpt lat="46.41122" lon="5.39564">
        <ele>428</ele>
        <time>2016-01-10T09:22:57Z</time>
      </trkpt>
      <trkpt lat="46.41196" lon="5.39553">
        <ele>424.40002441406</ele>
        <time>2016-01-10T09:23:31Z</time>
      </trkpt>
      <trkpt lat="46.41202" lon="5.39554">
        <ele>425</ele>
        <time>2016-01-10T09:23:32Z</time>
      </trkpt>
      <trkpt lat="46.41211" lon="5.39555">
        <ele>425.79998779297</ele>
        <time>2016-01-10T09:23:34Z</time>
      </trkpt>
      <trkpt lat="46.4123" lon="5.39562">
        <ele>425.79998779297</ele>
        <time>2016-01-10T09:23:40Z</time>
      </trkpt>
      <trkpt lat="46.4125" lon="5.39574">
        <ele>426.59997558594</ele>
        <time>2016-01-10T09:23:48Z</time>
      </trkpt>
      <trkpt lat="46.41272" lon="5.39586">
        <ele>426.20001220703</ele>
        <time>2016-01-10T09:23:57Z</time>
      </trkpt>
      <trkpt lat="46.41292" lon="5.39602">
        <ele>427.59997558594</ele>
        <time>2016-01-10T09:24:06Z</time>
      </trkpt>
      <trkpt lat="46.41296" lon="5.39607">
        <ele>428.59997558594</ele>
        <time>2016-01-10T09:24:08Z</time>
      </trkpt>
      <trkpt lat="46.41302" lon="5.39615">
        <ele>430.20001220703</ele>
        <time>2016-01-10T09:24:11Z</time>
      </trkpt>
      <trkpt lat="46.41304" lon="5.39622">
        <ele>431.79998779297</ele>
        <time>2016-01-10T09:24:13Z</time>
      </trkpt>
      <trkpt lat="46.41305" lon="5.39625">
        <ele>432.40002441406</ele>
        <time>2016-01-10T09:24:14Z</time>
      </trkpt>
      <trkpt lat="46.41307" lon="5.39628">
        <ele>432.79998779297</ele>
        <time>2016-01-10T09:24:15Z</time>
      </trkpt>
      <trkpt lat="46.4131" lon="5.39635">
        <ele>434.40002441406</ele>
        <time>2016-01-10T09:24:18Z</time>
      </trkpt>
      <trkpt lat="46.41331" lon="5.39685">
        <ele>448.20001220703</ele>
        <time>2016-01-10T09:24:46Z</time>
      </trkpt>
      <trkpt lat="46.41338" lon="5.39696">
        <ele>449.20001220703</ele>
        <time>2016-01-10T09:24:53Z</time>
      </trkpt>
      <trkpt lat="46.41339" lon="5.39697">
        <ele>449.20001220703</ele>
        <time>2016-01-10T09:24:54Z</time>
      </trkpt>
      <trkpt lat="46.41355" lon="5.39706">
        <ele>448.79998779297</ele>
        <time>2016-01-10T09:25:01Z</time>
      </trkpt>
      <trkpt lat="46.41382" lon="5.39716">
        <ele>448.59997558594</ele>
        <time>2016-01-10T09:25:11Z</time>
      </trkpt>
      <trkpt lat="46.41404" lon="5.39724">
        <ele>448.20001220703</ele>
        <time>2016-01-10T09:25:19Z</time>
      </trkpt>
      <trkpt lat="46.41407" lon="5.39725">
        <ele>448</ele>
        <time>2016-01-10T09:25:20Z</time>
      </trkpt>
      <trkpt lat="46.41421" lon="5.39737">
        <ele>447</ele>
        <time>2016-01-10T09:25:26Z</time>
      </trkpt>
      <trkpt lat="46.41429" lon="5.39743">
        <ele>445.79998779297</ele>
        <time>2016-01-10T09:25:29Z</time>
      </trkpt>
      <trkpt lat="46.41438" lon="5.39747">
        <ele>444.59997558594</ele>
        <time>2016-01-10T09:25:32Z</time>
      </trkpt>
      <trkpt lat="46.41449" lon="5.39745">
        <ele>443.59997558594</ele>
        <time>2016-01-10T09:25:37Z</time>
      </trkpt>
      <trkpt lat="46.41451" lon="5.39744">
        <ele>443.40002441406</ele>
        <time>2016-01-10T09:25:38Z</time>
      </trkpt>
      <trkpt lat="46.41454" lon="5.39743">
        <ele>442.59997558594</ele>
        <time>2016-01-10T09:25:40Z</time>
      </trkpt>
      <trkpt lat="46.41463" lon="5.39737">
        <ele>441.59997558594</ele>
        <time>2016-01-10T09:25:44Z</time>
      </trkpt>
      <trkpt lat="46.41471" lon="5.3973">
        <ele>440.59997558594</ele>
        <time>2016-01-10T09:25:47Z</time>
      </trkpt>
      <trkpt lat="46.41478" lon="5.39721">
        <ele>439.20001220703</ele>
        <time>2016-01-10T09:25:51Z</time>
      </trkpt>
      <trkpt lat="46.41485" lon="5.39712">
        <ele>437.79998779297</ele>
        <time>2016-01-10T09:25:54Z</time>
      </trkpt>
      <trkpt lat="46.41487" lon="5.39709">
        <ele>437.40002441406</ele>
        <time>2016-01-10T09:25:55Z</time>
      </trkpt>
      <trkpt lat="46.41489" lon="5.39703">
        <ele>436.79998779297</ele>
        <time>2016-01-10T09:25:57Z</time>
      </trkpt>
      <trkpt lat="46.41494" lon="5.39696">
        <ele>435.20001220703</ele>
        <time>2016-01-10T09:26:00Z</time>
      </trkpt>
      <trkpt lat="46.41497" lon="5.3969">
        <ele>434.20001220703</ele>
        <time>2016-01-10T09:26:02Z</time>
      </trkpt>
      <trkpt lat="46.41507" lon="5.3968">
        <ele>432.79998779297</ele>
        <time>2016-01-10T09:26:05Z</time>
      </trkpt>
      <trkpt lat="46.41511" lon="5.39675">
        <ele>431.59997558594</ele>
        <time>2016-01-10T09:26:07Z</time>
      </trkpt>
      <trkpt lat="46.41514" lon="5.3967">
        <ele>430.20001220703</ele>
        <time>2016-01-10T09:26:09Z</time>
      </trkpt>
      <trkpt lat="46.41516" lon="5.39667">
        <ele>429.59997558594</ele>
        <time>2016-01-10T09:26:10Z</time>
      </trkpt>
      <trkpt lat="46.41521" lon="5.39653">
        <ele>429</ele>
        <time>2016-01-10T09:26:14Z</time>
      </trkpt>
      <trkpt lat="46.41534" lon="5.39633">
        <ele>425.59997558594</ele>
        <time>2016-01-10T09:26:25Z</time>
      </trkpt>
      <trkpt lat="46.41536" lon="5.39635">
        <ele>425.79998779297</ele>
        <time>2016-01-10T09:26:26Z</time>
      </trkpt>
      <trkpt lat="46.41544" lon="5.3964">
        <ele>426.79998779297</ele>
        <time>2016-01-10T09:26:29Z</time>
      </trkpt>
      <trkpt lat="46.41553" lon="5.39648">
        <ele>427.20001220703</ele>
        <time>2016-01-10T09:26:33Z</time>
      </trkpt>
      <trkpt lat="46.41563" lon="5.39667">
        <ele>427</ele>
        <time>2016-01-10T09:26:40Z</time>
      </trkpt>
      <trkpt lat="46.41565" lon="5.39675">
        <ele>428</ele>
        <time>2016-01-10T09:26:42Z</time>
      </trkpt>
      <trkpt lat="46.41575" lon="5.39689">
        <ele>428.79998779297</ele>
        <time>2016-01-10T09:26:47Z</time>
      </trkpt>
      <trkpt lat="46.41577" lon="5.39692">
        <ele>429</ele>
        <time>2016-01-10T09:26:48Z</time>
      </trkpt>
      <trkpt lat="46.41595" lon="5.39711">
        <ele>430.20001220703</ele>
        <time>2016-01-10T09:26:56Z</time>
      </trkpt>
      <trkpt lat="46.41604" lon="5.39715">
        <ele>431.40002441406</ele>
        <time>2016-01-10T09:27:00Z</time>
      </trkpt>
      <trkpt lat="46.41611" lon="5.39717">
        <ele>432.59997558594</ele>
        <time>2016-01-10T09:27:03Z</time>
      </trkpt>
      <trkpt lat="46.41615" lon="5.39719">
        <ele>433.40002441406</ele>
        <time>2016-01-10T09:27:05Z</time>
      </trkpt>
      <trkpt lat="46.4162" lon="5.3972">
        <ele>433.79998779297</ele>
        <time>2016-01-10T09:27:07Z</time>
      </trkpt>
      <trkpt lat="46.4163" lon="5.39721">
        <ele>435.20001220703</ele>
        <time>2016-01-10T09:27:11Z</time>
      </trkpt>
      <trkpt lat="46.41635" lon="5.39723">
        <ele>435.79998779297</ele>
        <time>2016-01-10T09:27:13Z</time>
      </trkpt>
      <trkpt lat="46.41638" lon="5.39723">
        <ele>436.20001220703</ele>
        <time>2016-01-10T09:27:14Z</time>
      </trkpt>
      <trkpt lat="46.41645" lon="5.39725">
        <ele>437.59997558594</ele>
        <time>2016-01-10T09:27:17Z</time>
      </trkpt>
      <trkpt lat="46.41651" lon="5.3973">
        <ele>439.20001220703</ele>
        <time>2016-01-10T09:27:20Z</time>
      </trkpt>
      <trkpt lat="46.41654" lon="5.39731">
        <ele>439.59997558594</ele>
        <time>2016-01-10T09:27:21Z</time>
      </trkpt>
      <trkpt lat="46.41657" lon="5.39732">
        <ele>440.20001220703</ele>
        <time>2016-01-10T09:27:22Z</time>
      </trkpt>
      <trkpt lat="46.41662" lon="5.39733">
        <ele>441.20001220703</ele>
        <time>2016-01-10T09:27:24Z</time>
      </trkpt>
      <trkpt lat="46.4167" lon="5.39736">
        <ele>442.59997558594</ele>
        <time>2016-01-10T09:27:27Z</time>
      </trkpt>
      <trkpt lat="46.41681" lon="5.3974">
        <ele>443.59997558594</ele>
        <time>2016-01-10T09:27:31Z</time>
      </trkpt>
      <trkpt lat="46.41687" lon="5.39739">
        <ele>443.79998779297</ele>
        <time>2016-01-10T09:27:34Z</time>
      </trkpt>
      <trkpt lat="46.41698" lon="5.39729">
        <ele>444.20001220703</ele>
        <time>2016-01-10T09:27:39Z</time>
      </trkpt>
      <trkpt lat="46.41712" lon="5.39727">
        <ele>443.40002441406</ele>
        <time>2016-01-10T09:27:46Z</time>
      </trkpt>
      <trkpt lat="46.41716" lon="5.39729">
        <ele>443.40002441406</ele>
        <time>2016-01-10T09:27:48Z</time>
      </trkpt>
      <trkpt lat="46.41728" lon="5.39733">
        <ele>443.20001220703</ele>
        <time>2016-01-10T09:27:52Z</time>
      </trkpt>
      <trkpt lat="46.41735" lon="5.39735">
        <ele>443.20001220703</ele>
        <time>2016-01-10T09:27:54Z</time>
      </trkpt>
      <trkpt lat="46.41756" lon="5.39737">
        <ele>443.79998779297</ele>
        <time>2016-01-10T09:28:01Z</time>
      </trkpt>
      <trkpt lat="46.41775" lon="5.39741">
        <ele>444.79998779297</ele>
        <time>2016-01-10T09:28:08Z</time>
      </trkpt>
      <trkpt lat="46.41781" lon="5.39741">
        <ele>445.20001220703</ele>
        <time>2016-01-10T09:28:10Z</time>
      </trkpt>
      <trkpt lat="46.41793" lon="5.39743">
        <ele>445.79998779297</ele>
        <time>2016-01-10T09:28:15Z</time>
      </trkpt>
      <trkpt lat="46.41808" lon="5.39745">
        <ele>446.79998779297</ele>
        <time>2016-01-10T09:28:20Z</time>
      </trkpt>
      <trkpt lat="46.41818" lon="5.39746">
        <ele>448.20001220703</ele>
        <time>2016-01-10T09:28:23Z</time>
      </trkpt>
      <trkpt lat="46.41835" lon="5.3975">
        <ele>449</ele>
        <time>2016-01-10T09:28:29Z</time>
      </trkpt>
      <trkpt lat="46.41841" lon="5.39751">
        <ele>449.20001220703</ele>
        <time>2016-01-10T09:28:31Z</time>
      </trkpt>
      <trkpt lat="46.41857" lon="5.39758">
        <ele>449.20001220703</ele>
        <time>2016-01-10T09:28:37Z</time>
      </trkpt>
      <trkpt lat="46.41877" lon="5.39771">
        <ele>448.20001220703</ele>
        <time>2016-01-10T09:28:45Z</time>
      </trkpt>
      <trkpt lat="46.41899" lon="5.39786">
        <ele>447.79998779297</ele>
        <time>2016-01-10T09:28:53Z</time>
      </trkpt>
      <trkpt lat="46.41924" lon="5.39799">
        <ele>448.79998779297</ele>
        <time>2016-01-10T09:29:02Z</time>
      </trkpt>
      <trkpt lat="46.41933" lon="5.39802">
        <ele>449.20001220703</ele>
        <time>2016-01-10T09:29:05Z</time>
      </trkpt>
      <trkpt lat="46.41947" lon="5.39809">
        <ele>449.59997558594</ele>
        <time>2016-01-10T09:29:10Z</time>
      </trkpt>
      <trkpt lat="46.41962" lon="5.39814">
        <ele>450.20001220703</ele>
        <time>2016-01-10T09:29:16Z</time>
      </trkpt>
      <trkpt lat="46.41967" lon="5.39816">
        <ele>450.40002441406</ele>
        <time>2016-01-10T09:29:18Z</time>
      </trkpt>
      <trkpt lat="46.41983" lon="5.39822">
        <ele>450.20001220703</ele>
        <time>2016-01-10T09:29:26Z</time>
      </trkpt>
      <trkpt lat="46.41998" lon="5.39827">
        <ele>449.20001220703</ele>
        <time>2016-01-10T09:29:32Z</time>
      </trkpt>
      <trkpt lat="46.42005" lon="5.39826">
        <ele>448</ele>
        <time>2016-01-10T09:29:35Z</time>
      </trkpt>
      <trkpt lat="46.42017" lon="5.39826">
        <ele>446.79998779297</ele>
        <time>2016-01-10T09:29:40Z</time>
      </trkpt>
      <trkpt lat="46.42064" lon="5.39808">
        <ele>441.20001220703</ele>
        <time>2016-01-10T09:29:58Z</time>
      </trkpt>
      <trkpt lat="46.42078" lon="5.39802">
        <ele>440.40002441406</ele>
        <time>2016-01-10T09:30:02Z</time>
      </trkpt>
      <trkpt lat="46.4208" lon="5.398">
        <ele>440</ele>
        <time>2016-01-10T09:30:03Z</time>
      </trkpt>
      <trkpt lat="46.42089" lon="5.39794">
        <ele>438.59997558594</ele>
        <time>2016-01-10T09:30:06Z</time>
      </trkpt>
      <trkpt lat="46.42098" lon="5.39787">
        <ele>437.40002441406</ele>
        <time>2016-01-10T09:30:10Z</time>
      </trkpt>
      <trkpt lat="46.42103" lon="5.39781">
        <ele>436.59997558594</ele>
        <time>2016-01-10T09:30:12Z</time>
      </trkpt>
      <trkpt lat="46.42105" lon="5.39779">
        <ele>436.20001220703</ele>
        <time>2016-01-10T09:30:13Z</time>
      </trkpt>
      <trkpt lat="46.42112" lon="5.39769">
        <ele>434.59997558594</ele>
        <time>2016-01-10T09:30:16Z</time>
      </trkpt>
      <trkpt lat="46.42116" lon="5.39764">
        <ele>433.40002441406</ele>
        <time>2016-01-10T09:30:18Z</time>
      </trkpt>
      <trkpt lat="46.42121" lon="5.39757">
        <ele>432.20001220703</ele>
        <time>2016-01-10T09:30:21Z</time>
      </trkpt>
      <trkpt lat="46.42126" lon="5.39751">
        <ele>431.40002441406</ele>
        <time>2016-01-10T09:30:23Z</time>
      </trkpt>
      <trkpt lat="46.42128" lon="5.39748">
        <ele>430.79998779297</ele>
        <time>2016-01-10T09:30:24Z</time>
      </trkpt>
      <trkpt lat="46.42131" lon="5.39742">
        <ele>429.40002441406</ele>
        <time>2016-01-10T09:30:26Z</time>
      </trkpt>
      <trkpt lat="46.42132" lon="5.39738">
        <ele>428.59997558594</ele>
        <time>2016-01-10T09:30:27Z</time>
      </trkpt>
      <trkpt lat="46.42133" lon="5.39734">
        <ele>427.40002441406</ele>
        <time>2016-01-10T09:30:28Z</time>
      </trkpt>
      <trkpt lat="46.42141" lon="5.39723">
        <ele>426.20001220703</ele>
        <time>2016-01-10T09:30:31Z</time>
      </trkpt>
      <trkpt lat="46.42143" lon="5.39719">
        <ele>425.59997558594</ele>
        <time>2016-01-10T09:30:32Z</time>
      </trkpt>
      <trkpt lat="46.42145" lon="5.39714">
        <ele>425.20001220703</ele>
        <time>2016-01-10T09:30:33Z</time>
      </trkpt>
      <trkpt lat="46.42148" lon="5.39705">
        <ele>424</ele>
        <time>2016-01-10T09:30:35Z</time>
      </trkpt>
      <trkpt lat="46.42154" lon="5.39688">
        <ele>422.59997558594</ele>
        <time>2016-01-10T09:30:39Z</time>
      </trkpt>
      <trkpt lat="46.42156" lon="5.39682">
        <ele>422.59997558594</ele>
        <time>2016-01-10T09:30:41Z</time>
      </trkpt>
      <trkpt lat="46.42159" lon="5.39674">
        <ele>424.20001220703</ele>
        <time>2016-01-10T09:30:44Z</time>
      </trkpt>
      <trkpt lat="46.42164" lon="5.39667">
        <ele>425.20001220703</ele>
        <time>2016-01-10T09:30:47Z</time>
      </trkpt>
      <trkpt lat="46.4217" lon="5.3966">
        <ele>426.20001220703</ele>
        <time>2016-01-10T09:30:50Z</time>
      </trkpt>
      <trkpt lat="46.42172" lon="5.39658">
        <ele>426.40002441406</ele>
        <time>2016-01-10T09:30:51Z</time>
      </trkpt>
      <trkpt lat="46.42191" lon="5.39639">
        <ele>426.20001220703</ele>
        <time>2016-01-10T09:31:01Z</time>
      </trkpt>
      <trkpt lat="46.42203" lon="5.39624">
        <ele>425.40002441406</ele>
        <time>2016-01-10T09:31:06Z</time>
      </trkpt>
      <trkpt lat="46.42205" lon="5.39621">
        <ele>425.20001220703</ele>
        <time>2016-01-10T09:31:07Z</time>
      </trkpt>
      <trkpt lat="46.42211" lon="5.39604">
        <ele>424</ele>
        <time>2016-01-10T09:31:11Z</time>
      </trkpt>
      <trkpt lat="46.42214" lon="5.39597">
        <ele>423</ele>
        <time>2016-01-10T09:31:13Z</time>
      </trkpt>
      <trkpt lat="46.42216" lon="5.39594">
        <ele>422.20001220703</ele>
        <time>2016-01-10T09:31:14Z</time>
      </trkpt>
      <trkpt lat="46.42219" lon="5.3958">
        <ele>421</ele>
        <time>2016-01-10T09:31:18Z</time>
      </trkpt>
      <trkpt lat="46.4222" lon="5.39576">
        <ele>420.59997558594</ele>
        <time>2016-01-10T09:31:19Z</time>
      </trkpt>
      <trkpt lat="46.42222" lon="5.39569">
        <ele>419.79998779297</ele>
        <time>2016-01-10T09:31:21Z</time>
      </trkpt>
      <trkpt lat="46.42224" lon="5.39557">
        <ele>418.59997558594</ele>
        <time>2016-01-10T09:31:24Z</time>
      </trkpt>
      <trkpt lat="46.42223" lon="5.39546">
        <ele>418</ele>
        <time>2016-01-10T09:31:27Z</time>
      </trkpt>
      <trkpt lat="46.4223" lon="5.39518">
        <ele>418.79998779297</ele>
        <time>2016-01-10T09:31:34Z</time>
      </trkpt>
      <trkpt lat="46.42237" lon="5.395">
        <ele>419.59997558594</ele>
        <time>2016-01-10T09:31:39Z</time>
      </trkpt>
      <trkpt lat="46.4224" lon="5.39494">
        <ele>419</ele>
        <time>2016-01-10T09:31:41Z</time>
      </trkpt>
      <trkpt lat="46.42249" lon="5.39471">
        <ele>418.40002441406</ele>
        <time>2016-01-10T09:31:48Z</time>
      </trkpt>
      <trkpt lat="46.42252" lon="5.39467">
        <ele>420.79998779297</ele>
        <time>2016-01-10T09:31:51Z</time>
      </trkpt>
      <trkpt lat="46.42254" lon="5.39467">
        <ele>422.79998779297</ele>
        <time>2016-01-10T09:31:52Z</time>
      </trkpt>
      <trkpt lat="46.42257" lon="5.39468">
        <ele>424.59997558594</ele>
        <time>2016-01-10T09:31:53Z</time>
      </trkpt>
      <trkpt lat="46.4226" lon="5.39469">
        <ele>426.59997558594</ele>
        <time>2016-01-10T09:31:54Z</time>
      </trkpt>
      <trkpt lat="46.42263" lon="5.39471">
        <ele>428.20001220703</ele>
        <time>2016-01-10T09:31:55Z</time>
      </trkpt>
      <trkpt lat="46.42266" lon="5.39473">
        <ele>430</ele>
        <time>2016-01-10T09:31:56Z</time>
      </trkpt>
      <trkpt lat="46.42268" lon="5.39475">
        <ele>431</ele>
        <time>2016-01-10T09:31:57Z</time>
      </trkpt>
      <trkpt lat="46.4227" lon="5.39478">
        <ele>432.59997558594</ele>
        <time>2016-01-10T09:31:58Z</time>
      </trkpt>
      <trkpt lat="46.42271" lon="5.39481">
        <ele>433.79998779297</ele>
        <time>2016-01-10T09:31:59Z</time>
      </trkpt>
      <trkpt lat="46.42272" lon="5.39484">
        <ele>434.59997558594</ele>
        <time>2016-01-10T09:32:00Z</time>
      </trkpt>
      <trkpt lat="46.42273" lon="5.39488">
        <ele>436</ele>
        <time>2016-01-10T09:32:01Z</time>
      </trkpt>
      <trkpt lat="46.42273" lon="5.39491">
        <ele>437.20001220703</ele>
        <time>2016-01-10T09:32:02Z</time>
      </trkpt>
      <trkpt lat="46.42274" lon="5.39495">
        <ele>438.20001220703</ele>
        <time>2016-01-10T09:32:03Z</time>
      </trkpt>
      <trkpt lat="46.42275" lon="5.39499">
        <ele>439.20001220703</ele>
        <time>2016-01-10T09:32:04Z</time>
      </trkpt>
      <trkpt lat="46.42276" lon="5.39507">
        <ele>441</ele>
        <time>2016-01-10T09:32:06Z</time>
      </trkpt>
      <trkpt lat="46.42276" lon="5.39511">
        <ele>441.59997558594</ele>
        <time>2016-01-10T09:32:07Z</time>
      </trkpt>
      <trkpt lat="46.42277" lon="5.39514">
        <ele>442.20001220703</ele>
        <time>2016-01-10T09:32:08Z</time>
      </trkpt>
      <trkpt lat="46.42278" lon="5.39522">
        <ele>443.40002441406</ele>
        <time>2016-01-10T09:32:10Z</time>
      </trkpt>
      <trkpt lat="46.42281" lon="5.39534">
        <ele>444.79998779297</ele>
        <time>2016-01-10T09:32:13Z</time>
      </trkpt>
      <trkpt lat="46.42281" lon="5.39538">
        <ele>444.79998779297</ele>
        <time>2016-01-10T09:32:14Z</time>
      </trkpt>
      <trkpt lat="46.42283" lon="5.39551">
        <ele>445.79998779297</ele>
        <time>2016-01-10T09:32:18Z</time>
      </trkpt>
      <trkpt lat="46.42284" lon="5.39556">
        <ele>446.59997558594</ele>
        <time>2016-01-10T09:32:20Z</time>
      </trkpt>
    </trkseg>
  </trk>
</gpx>